[[{"header":{"parameterUnit":"m.s-1","parameterCategory":1,"la1":31.0,"la2":29.5877,"lo1":-88.7671,"lo2":-86.6584,"dy":0.0162,"dx":0.0185,"nx":115,"ny":88,"refTime":"2024-08-04T12:00:00:Z","depth":0,"parameterNumber":2,"parameterNumberName":"U-component_of_WINDS"},"data":[0.0,0.0,0.0,0.0,0.0,0.0,0.0,0.0,0.0,0.0,0.0,0.0,0.0,0.0,0.0,0.0,0.0,0.0,0.0,0.0,0.0,0.0,0.0,0.0,0.0,0.0,0.0,0.0,0.0,0.0,0.0,0.0,0.0,0.0,0.0,0.0,0.0,0.0,0.0,0.0,0.0,0.0,0.0,0.0,0.0,0.0,0.0,0.0,0.0,0.0,0.0,0.0,0.0,0.0,0.0,0.0,0.0,0.0,0.0,0.0,0.0,0.0,0.0,0.0,0.0,0.0,0.0,0.0,0.0,0.0,0.0,0.0,0.0,0.0,0.0,0.0,0.0,0.0,0.0,0.0,0.0,0.0,0.0,0.0,0.0,0.0,0.0,0.0,0.0,0.0,0.0,0.0,0.0,0.0,0.0,0.0,0.0,0.0,0.0,0.0,0.0,0.0,0.0,0.0,0.0,0.0,0.0,0.0,0.0,0.0,0.0,0.0,0.0,0.0,0.0,0.0,0.0,0.0,0.0,0.0,0.0,0.0,0.0,0.0,0.0,0.0,0.0,0.0,0.0,0.0,0.0,0.0,0.0,0.0,0.0,0.0,0.0,0.0,0.0,0.0,0.0,0.0,0.0,0.0,0.0,0.0,0.0,0.0,0.0,0.0,0.0,0.0,0.0,0.0,0.0,0.0,0.0,0.0,0.0,0.0,0.0,0.0,0.0,0.0,0.0,0.0,0.0,0.0,0.0,0.0,0.0,0.0,0.0,0.0,0.0,0.0,0.0,0.0,0.0,0.0,0.0,0.0,0.0,0.0,0.0,0.0,0.0,0.0,0.0,0.0,0.0,0.0,0.0,0.0,0.0,0.0,0.0,0.0,0.0,0.0,0.0,0.0,0.0,0.0,0.0,0.0,0.0,0.0,0.0,0.0,0.0,0.0,0.0,0.0,0.0,0.0,0.0,0.0,0.0,0.0,0.0,0.0,0.0,0.0,0.0,0.0,0.0,0.0,0.0,0.0,0.0,0.0,0.0,0.0,0.0,0.0,0.0,0.0,0.0,0.0,0.0,0.0,0.0,0.0,0.0,0.0,0.0,0.0,0.0,0.0,0.0,0.0,0.0,0.0,0.0,0.0,0.0,0.0,0.0,0.0,0.0,0.0,0.0,0.0,0.0,0.0,0.0,0.0,0.0,0.0,0.0,0.0,0.0,0.0,0.0,0.0,0.0,0.0,0.0,0.0,0.0,0.0,0.0,0.0,0.0,0.0,0.0,0.0,0.0,0.0,0.0,0.0,0.0,0.0,0.0,0.0,0.0,0.0,0.0,0.0,0.0,0.0,0.0,0.0,0.0,0.0,0.0,0.0,0.0,0.0,0.0,0.0,0.0,0.0,0.0,0.0,0.0,0.0,0.0,0.0,0.0,0.0,0.0,0.0,0.0,0.0,0.0,0.0,0.0,0.0,0.0,0.0,0.0,0.0,0.0,0.0,0.0,0.0,0.0,0.0,0.0,0.0,0.0,0.0,0.0,0.0,0.0,0.0,0.0,0.0,0.0,0.0,0.0,0.0,0.0,0.0,0.0,0.0,0.0,0.0,0.0,0.0,0.0,0.0,0.0,0.0,0.0,0.0,0.0,0.0,0.0,0.0,0.0,0.0,0.0,0.0,0.0,0.0,0.0,0.0,0.0,0.0,0.0,0.0,0.0,0.0,0.0,0.0,0.0,0.0,0.0,0.0,0.0,0.0,0.0,0.0,0.0,0.0,0.0,0.0,0.0,0.0,0.0,0.0,0.0,0.0,0.0,0.0,0.0,0.0,0.0,0.0,0.0,0.0,0.0,0.0,0.0,0.0,0.0,0.0,0.0,0.0,0.0,0.0,0.0,0.0,0.0,0.0,0.0,0.0,0.0,0.0,0.0,0.0,0.0,0.0,0.0,0.0,0.0,0.0,0.0,0.0,0.0,0.0,0.0,0.0,0.0,0.0,0.0,0.0,0.0,0.0,0.0,0.0,0.0,0.0,0.0,0.0,0.0,0.0,0.0,0.0,0.0,0.0,0.0,0.0,0.0,0.0,0.0,0.0,0.0,0.0,0.0,0.0,0.0,0.0,0.0,0.0,0.0,0.0,0.0,0.0,0.0,0.0,0.0,0.0,0.0,0.0,0.0,0.0,0.0,0.0,0.0,0.0,0.0,0.0,0.0,0.0,0.0,0.0,0.0,0.0,0.0,0.0,0.0,0.0,0.0,0.0,0.0,0.0,0.0,0.0,0.0,0.0,0.0,0.0,0.0,0.0,0.0,0.0,0.0,0.0,0.0,0.0,0.0,0.0,0.0,0.0,0.0,0.0,0.0,0.0,0.0,0.0,0.0,0.0,0.0,0.0,0.0,0.0,0.0,0.0,0.0,0.0,0.0,0.0,0.0,0.0,0.0,0.0,0.0,0.0,0.0,0.0,0.0,0.0,0.0,0.0,0.0,0.0,0.0,0.0,0.0,0.0,0.0,0.0,0.0,0.0,0.0,0.0,0.0,0.0,0.0,0.0,0.0,0.0,0.0,0.0,0.0,0.0,0.0,0.0,0.0,0.0,0.0,0.0,0.0,0.0,0.0,0.0,0.0,0.0,0.0,0.0,0.0,0.0,0.0,0.0,0.0,0.0,0.0,0.0,0.0,0.0,0.0,0.0,0.0,0.0,0.0,0.0,0.0,0.0,0.0,0.0,0.0,0.0,0.0,0.0,0.0,0.0,0.0,0.0,0.0,0.0,0.0,0.0,0.0,0.0,0.0,0.0,0.0,0.0,0.0,0.0,0.0,0.0,0.0,0.0,0.0,0.0,0.0,0.0,0.0,0.0,0.0,0.0,0.0,0.0,0.0,0.0,0.0,0.0,0.0,0.0,0.0,0.0,0.0,0.0,0.0,0.0,0.0,0.0,0.0,0.0,0.0,0.0,0.0,0.0,0.0,0.0,0.0,0.0,0.0,0.0,0.0,0.0,0.0,0.0,0.0,0.0,0.0,0.0,0.0,0.0,0.0,0.0,0.0,0.0,0.0,0.0,0.0,0.0,0.0,0.0,0.0,0.0,0.0,0.0,0.0,0.0,0.0,0.0,0.0,0.0,0.0,0.0,0.0,0.0,0.0,0.0,0.0,0.0,0.0,0.0,0.0,0.0,0.0,0.0,0.0,0.0,0.0,0.0,0.0,0.0,0.0,0.0,0.0,0.0,0.0,0.0,0.0,0.0,0.0,0.0,0.0,0.0,0.0,0.0,0.0,0.0,0.0,0.0,0.0,0.0,0.0,0.0,0.0,0.0,0.0,0.0,0.0,0.0,0.0,0.0,0.0,0.0,0.0,0.0,0.0,0.0,0.0,0.0,0.0,0.0,0.0,0.0,0.0,0.0,0.0,0.0,0.0,0.0,0.0,0.0,0.0,0.0,0.0,0.0,0.0,0.0,0.0,0.0,0.0,0.0,0.0,0.0,0.0,0.0,0.0,0.0,0.0,0.0,0.0,0.0,0.0,0.0,0.0,0.0,0.0,0.0,0.0,0.0,0.0,0.0,0.0,0.0,0.0,0.0,0.0,0.0,0.0,0.0,0.0,0.0,0.0,0.0,0.0,0.0,0.0,0.0,0.0,0.0,0.0,0.0,0.0,0.0,0.0,0.0,0.0,0.0,0.0,0.0,0.0,0.0,0.0,0.0,0.0,0.0,0.0,0.0,0.0,0.0,0.0,0.0,0.0,0.0,0.0,0.0,0.0,0.0,0.0,0.0,0.0,0.0,0.0,0.0,0.0,0.0,0.0,0.0,0.0,0.0,0.0,0.0,0.0,0.0,0.0,0.0,0.0,0.0,0.0,0.0,0.0,0.0,0.0,0.0,0.0,0.0,0.0,0.0,0.0,0.0,0.0,0.0,0.0,0.0,0.0,0.0,0.0,0.0,0.0,0.0,0.0,0.0,0.0,0.0,0.0,0.0,0.0,0.0,0.0,0.0,0.0,0.0,0.0,0.0,0.0,0.0,0.0,0.0,0.0,0.0,0.0,0.0,0.0,0.0,0.0,0.0,0.0,0.0,0.0,0.0,0.0,0.0,0.0,0.0,0.0,0.0,0.0,0.0,0.0,0.0,0.0,0.0,0.0,0.0,0.0,0.0,0.0,0.0,0.0,0.0,0.0,0.0,0.0,0.0,0.0,0.0,0.0,0.0,0.0,0.0,0.0,0.0,0.0,0.0,0.0,0.0,0.0,0.0,0.0,0.0,0.0,0.0,0.0,0.0,2.2327,0.0,0.0,0.0,0.0,0.0,0.0,0.0,0.0,0.0,0.0,0.0,0.0,0.0,0.0,0.0,0.0,0.0,0.0,0.0,0.0,0.0,0.0,0.0,0.0,0.0,0.0,0.0,0.0,0.0,0.0,0.0,0.0,0.0,0.0,0.0,0.0,0.0,0.0,0.0,0.0,0.0,0.0,0.0,0.0,0.0,0.0,0.0,0.0,0.0,0.0,0.0,0.0,0.0,0.0,0.0,0.0,0.0,0.0,0.0,0.0,0.0,0.0,0.0,0.0,0.0,0.0,0.0,0.0,0.0,0.0,0.0,0.0,0.0,0.0,0.0,0.0,0.0,0.0,0.0,0.0,0.0,0.0,0.0,0.0,0.0,0.0,0.0,0.0,0.0,0.0,0.0,0.0,0.0,0.0,0.0,0.0,0.0,0.0,0.0,0.0,0.0,0.0,0.0,0.0,0.0,0.0,0.0,0.0,0.0,0.0,2.2453,2.2293,2.2607,2.2634,2.2293,0.0,0.0,0.0,0.0,0.0,0.0,0.0,0.0,0.0,0.0,0.0,0.0,0.0,0.0,0.0,0.0,0.0,0.0,0.0,0.0,0.0,0.0,0.0,0.0,0.0,0.0,0.0,0.0,0.0,0.0,0.0,0.0,0.0,0.0,0.0,0.0,0.0,0.0,0.0,0.0,0.0,0.0,0.0,0.0,0.0,0.0,0.0,0.0,0.0,0.0,0.0,0.0,0.0,0.0,0.0,0.0,0.0,0.0,0.0,0.0,0.0,0.0,0.0,0.0,0.0,0.0,0.0,0.0,0.0,0.0,0.0,0.0,0.0,0.0,0.0,0.0,0.0,0.0,0.0,0.0,0.0,0.0,0.0,0.0,0.0,0.0,0.0,0.0,0.0,0.0,0.0,0.0,0.0,0.0,0.0,0.0,0.0,0.0,0.0,0.0,0.0,0.0,0.0,0.0,0.0,0.0,0.0,0.0,0.0,0.0,0.0,0.0,2.3702,2.3779,2.3266,0.0,0.0,0.0,0.0,0.0,0.0,0.0,0.0,0.0,0.0,0.0,0.0,0.0,0.0,0.0,0.0,0.0,0.0,0.0,0.0,0.0,0.0,0.0,0.0,0.0,0.0,0.0,0.0,0.0,0.0,0.0,0.0,0.0,0.0,0.0,0.0,0.0,0.0,0.0,0.0,0.0,0.0,0.0,0.0,0.0,0.0,0.0,0.0,0.0,0.0,0.0,0.0,0.0,0.0,0.0,0.0,0.0,0.0,0.0,0.0,0.0,0.0,0.0,0.0,0.0,0.0,0.0,0.0,0.0,0.0,0.0,0.0,0.0,0.0,0.0,0.0,0.0,0.0,0.0,0.0,0.0,0.0,0.0,0.0,0.0,0.0,0.0,0.0,0.0,0.0,0.0,0.0,0.0,0.0,0.0,0.0,0.0,0.0,0.0,0.0,0.0,0.0,0.0,0.0,0.0,0.0,0.0,0.0,0.0,0.0,2.3673,2.5695,2.6176,0.0,2.6057,0.0,0.0,0.0,0.0,0.0,0.0,0.0,0.0,0.0,0.0,0.0,0.0,0.0,0.0,0.0,0.0,0.0,0.0,0.0,0.0,0.0,0.0,0.0,0.0,0.0,0.0,0.0,0.0,0.0,0.0,0.0,0.0,0.0,0.0,0.0,0.0,0.0,0.0,0.0,0.0,0.0,0.0,0.0,0.0,0.0,0.0,0.0,0.0,0.0,0.0,0.0,0.0,0.0,0.0,0.0,0.0,0.0,0.0,0.0,0.0,0.0,0.0,0.0,0.0,0.0,0.0,0.0,0.0,0.0,0.0,0.0,0.0,0.0,0.0,0.0,0.0,0.0,0.0,0.0,0.0,0.0,0.0,0.0,0.0,0.0,0.0,0.0,0.0,0.0,0.0,0.0,0.0,0.0,0.0,0.0,0.0,0.0,0.0,0.0,0.0,0.0,0.0,0.0,0.0,0.0,0.0,0.0,0.0,0.0,0.0,0.0,2.5797,2.5979,2.613,0.0,0.0,0.0,0.0,0.0,0.0,0.0,0.0,0.0,0.0,0.0,0.0,0.0,0.0,0.0,0.0,0.0,0.0,0.0,0.0,0.0,0.0,0.0,0.0,0.0,0.0,0.0,0.0,0.0,0.0,0.0,0.0,0.0,0.0,0.0,0.0,0.0,0.0,0.0,0.0,0.0,0.0,0.0,0.0,0.0,0.0,0.0,0.0,0.0,0.0,0.0,0.0,0.0,0.0,0.0,0.0,0.0,0.0,0.0,0.0,0.0,0.0,0.0,0.0,0.0,0.0,0.0,0.0,0.0,0.0,0.0,0.0,0.0,0.0,0.0,0.0,0.0,0.0,0.0,0.0,0.0,0.0,0.0,0.0,0.0,0.0,0.0,0.0,0.0,0.0,0.0,0.0,0.0,0.0,0.0,0.0,0.0,0.0,0.0,0.0,0.0,0.0,0.0,0.0,0.0,0.0,0.0,0.0,0.0,0.0,2.6008,0.0,2.7178,2.7217,2.6964,2.6451,0.0,0.0,0.0,0.0,0.0,0.0,0.0,0.0,0.0,0.0,0.0,0.0,0.0,0.0,0.0,0.0,0.0,0.0,0.0,0.0,0.0,0.0,0.0,0.0,0.0,0.0,0.0,0.0,0.0,0.0,0.0,0.0,0.0,0.0,0.0,0.0,0.0,0.0,0.0,0.0,0.0,0.0,0.0,0.0,0.0,0.0,0.0,0.0,0.0,0.0,0.0,0.0,0.0,0.0,0.0,0.0,0.0,0.0,0.0,0.0,0.0,0.0,0.0,0.0,0.0,0.0,0.0,0.0,0.0,0.0,0.0,0.0,0.0,0.0,0.0,0.0,0.0,0.0,0.0,0.0,0.0,0.0,0.0,0.0,0.0,0.0,0.0,0.0,0.0,0.0,0.0,0.0,0.0,0.0,0.0,0.0,0.0,0.0,0.0,0.0,0.0,0.0,0.0,0.0,0.0,0.0,0.0,0.0,0.0,2.7635,2.819,3.0965,3.1126,2.9904,0.0,0.0,0.0,0.0,0.0,0.0,0.0,0.0,0.0,0.0,0.0,0.0,0.0,0.0,0.0,0.0,0.0,0.0,0.0,0.0,0.0,0.0,0.0,0.0,0.0,0.0,0.0,0.0,0.0,0.0,0.0,0.0,0.0,0.0,0.0,0.0,0.0,0.0,0.0,0.0,0.0,0.0,0.0,0.0,0.0,0.0,0.0,0.0,0.0,0.0,0.0,0.0,0.0,0.0,0.0,0.0,0.0,0.0,0.0,0.0,0.0,0.0,0.0,0.0,0.0,0.0,0.0,0.0,0.0,0.0,0.0,0.0,0.0,0.0,0.0,0.0,0.0,0.0,0.0,0.0,0.0,0.0,0.0,0.0,0.0,0.0,0.0,0.0,0.0,0.0,0.0,0.0,0.0,0.0,0.0,0.0,0.0,0.0,0.0,0.0,0.0,0.0,0.0,0.0,0.0,0.0,0.0,0.0,0.0,2.4898,2.5872,2.8563,3.2922,3.0088,2.8595,0.0,0.0,0.0,0.0,0.0,0.0,0.0,0.0,0.0,0.0,0.0,0.0,0.0,0.0,0.0,0.0,0.0,0.0,0.0,0.0,0.0,0.0,0.0,0.0,0.0,0.0,0.0,0.0,0.0,0.0,0.0,0.0,0.0,0.0,0.0,0.0,0.0,0.0,0.0,0.0,0.0,0.0,0.0,0.0,0.0,0.0,0.0,0.0,0.0,0.0,0.0,0.0,0.0,0.0,0.0,0.0,0.0,0.0,0.0,0.0,0.0,0.0,0.0,0.0,0.0,0.0,0.0,0.0,0.0,0.0,0.0,0.0,0.0,0.0,0.0,0.0,0.0,0.0,0.0,0.0,0.0,0.0,0.0,0.0,0.0,0.0,0.0,0.0,0.0,0.0,0.0,0.0,0.0,0.0,0.0,0.0,0.0,0.0,0.0,0.0,0.0,0.0,0.0,0.0,0.0,0.0,0.0,0.0,0.0,2.4953,0.0,3.0398,0.0,3.0024,2.8201,0.0,0.0,0.0,0.0,0.0,0.0,0.0,0.0,0.0,0.0,0.0,0.0,0.0,0.0,0.0,0.0,0.0,0.0,0.0,0.0,0.0,0.0,0.0,0.0,0.0,0.0,0.0,0.0,0.0,0.0,0.0,0.0,0.0,0.0,0.0,0.0,0.0,0.0,0.0,0.0,0.0,0.0,0.0,0.0,0.0,0.0,0.0,0.0,0.0,0.0,0.0,0.0,0.0,0.0,0.0,0.0,0.0,0.0,0.0,0.0,0.0,0.0,0.0,0.0,0.0,0.0,0.0,0.0,0.0,0.0,0.0,0.0,0.0,0.0,0.0,0.0,0.0,0.0,0.0,0.0,0.0,0.0,0.0,0.0,0.0,0.0,0.0,0.0,0.0,0.0,0.0,0.0,0.0,0.0,0.0,0.0,0.0,0.0,0.0,0.0,0.0,0.0,0.0,0.0,0.0,0.0,0.0,0.0,2.5023,3.0154,3.311,3.3506,3.1568,3.1249,2.9049,0.0,0.0,0.0,0.0,0.0,0.0,0.0,0.0,0.0,0.0,0.0,0.0,0.0,0.0,0.0,0.0,0.0,0.0,0.0,0.0,0.0,0.0,0.0,0.0,0.0,0.0,0.0,0.0,0.0,0.0,0.0,0.0,0.0,0.0,0.0,0.0,0.0,0.0,0.0,0.0,0.0,0.0,0.0,0.0,0.0,0.0,0.0,0.0,0.0,0.0,0.0,0.0,0.0,0.0,0.0,0.0,0.0,0.0,0.0,0.0,0.0,0.0,0.0,0.0,0.0,0.0,0.0,0.0,0.0,0.0,0.0,0.0,0.0,0.0,0.0,0.0,0.0,0.0,0.0,0.0,0.0,0.0,0.0,0.0,0.0,0.0,0.0,0.0,0.0,0.0,0.0,0.0,0.0,0.0,0.0,0.0,0.0,0.0,0.0,0.0,0.0,0.0,0.0,0.0,0.0,0.0,0.0,0.0,0.0,2.7184,2.9899,3.2155,3.367,3.0099,2.8705,0.0,0.0,0.0,0.0,0.0,0.0,0.0,0.0,0.0,0.0,0.0,0.0,0.0,0.0,0.0,0.0,0.0,0.0,0.0,0.0,0.0,0.0,0.0,0.0,0.0,0.0,0.0,0.0,0.0,0.0,0.0,0.0,0.0,0.0,0.0,0.0,0.0,0.0,0.0,0.0,0.0,0.0,0.0,0.0,0.0,0.0,0.0,0.0,0.0,0.0,0.0,0.0,0.0,0.0,0.0,0.0,0.0,0.0,0.0,0.0,0.0,0.0,0.0,0.0,0.0,0.0,0.0,0.0,0.0,0.0,0.0,0.0,0.0,0.0,0.0,0.0,0.0,0.0,0.0,0.0,0.0,0.0,0.0,0.0,0.0,0.0,0.0,0.0,0.0,0.0,0.0,0.0,0.0,0.0,0.0,0.0,0.0,0.0,0.0,0.0,0.0,0.0,0.0,0.0,0.0,0.0,0.0,0.0,0.0,2.9318,3.2421,3.4666,3.5899,3.2228,3.0246,3.0283,0.0,0.0,0.0,0.0,0.0,0.0,0.0,0.0,0.0,0.0,0.0,0.0,0.0,0.0,0.0,0.0,0.0,0.0,0.0,0.0,0.0,0.0,0.0,0.0,0.0,0.0,0.0,0.0,0.0,0.0,0.0,0.0,0.0,0.0,0.0,0.0,0.0,0.0,0.0,0.0,0.0,0.0,0.0,0.0,0.0,0.0,0.0,0.0,0.0,0.0,0.0,0.0,0.0,0.0,0.0,0.0,0.0,0.0,0.0,0.0,0.0,0.0,0.0,0.0,0.0,0.0,0.0,0.0,0.0,0.0,0.0,0.0,0.0,0.0,0.0,0.0,0.0,0.0,0.0,0.0,0.0,0.0,0.0,0.0,0.0,0.0,0.0,0.0,0.0,0.0,0.0,0.0,0.0,0.0,0.0,0.0,0.0,0.0,0.0,0.0,0.0,0.0,0.0,0.0,0.0,0.0,0.0,0.0,3.5328,3.9589,4.0563,3.8028,3.6743,3.333,0.0,0.0,0.0,0.0,0.0,0.0,0.0,0.0,0.0,0.0,0.0,0.0,0.0,0.0,0.0,0.0,0.0,0.0,0.0,0.0,0.0,0.0,0.0,0.0,0.0,0.0,0.0,0.0,0.0,0.0,0.0,0.0,0.0,0.0,0.0,0.0,0.0,0.0,0.0,0.0,0.0,0.0,0.0,0.0,0.0,0.0,0.0,0.0,0.0,0.0,0.0,0.0,0.0,0.0,0.0,0.0,0.0,0.0,0.0,0.0,0.0,0.0,0.0,0.0,0.0,0.0,0.0,0.0,0.0,0.0,0.0,0.0,0.0,0.0,0.0,0.0,0.0,0.0,0.0,0.0,0.0,0.0,0.0,0.0,0.0,0.0,0.0,0.0,0.0,0.0,0.0,0.0,0.0,0.0,0.0,0.0,0.0,0.0,0.0,0.0,0.0,0.0,0.0,0.0,0.0,0.0,0.0,0.0,0.0,3.8686,4.35,4.506,4.2803,3.7955,3.4578,0.0,0.0,0.0,0.0,0.0,0.0,0.0,0.0,0.0,0.0,0.0,0.0,0.0,0.0,0.0,0.0,0.0,0.0,0.0,0.0,0.0,0.0,0.0,0.0,0.0,0.0,0.0,0.0,0.0,0.0,0.0,0.0,0.0,0.0,0.0,0.0,0.0,0.0,0.0,0.0,0.0,0.0,0.0,0.0,0.0,0.0,0.0,0.0,0.0,0.0,0.0,0.0,0.0,0.0,0.0,0.0,0.0,0.0,0.0,0.0,0.0,0.0,0.0,0.0,0.0,0.0,0.0,0.0,0.0,0.0,0.0,0.0,0.0,0.0,0.0,0.0,0.0,0.0,0.0,0.0,0.0,0.0,0.0,0.0,0.0,0.0,0.0,0.0,0.0,0.0,0.0,0.0,0.0,0.0,0.0,0.0,0.0,0.0,0.0,0.0,0.0,0.0,0.0,0.0,0.0,0.0,0.0,0.0,3.654,4.1292,4.6458,4.8693,4.7754,4.2139,3.7741,0.0,0.0,0.0,0.0,0.0,0.0,0.0,0.0,0.0,0.0,0.0,0.0,0.0,0.0,0.0,0.0,0.0,0.0,0.0,0.0,0.0,0.0,0.0,0.0,0.0,0.0,0.0,0.0,0.0,0.0,0.0,0.0,0.0,0.0,0.0,0.0,0.0,0.0,0.0,0.0,0.0,0.0,0.0,0.0,0.0,0.0,0.0,0.0,0.0,0.0,0.0,0.0,0.0,0.0,0.0,0.0,0.0,0.0,0.0,0.0,0.0,0.0,0.0,0.0,0.0,0.0,0.0,0.0,0.0,0.0,0.0,0.0,0.0,0.0,0.0,0.0,0.0,0.0,0.0,0.0,0.0,0.0,0.0,0.0,0.0,0.0,0.0,0.0,0.0,0.0,0.0,0.0,0.0,0.0,0.0,0.0,0.0,0.0,0.0,0.0,0.0,0.0,0.0,0.0,0.0,0.0,0.0,0.0,3.9008,4.333,4.8458,5.1405,5.1852,4.7204,4.1699,0.0,0.0,0.0,0.0,0.0,0.0,0.0,0.0,0.0,0.0,0.0,0.0,0.0,0.0,0.0,0.0,0.0,0.0,0.0,0.0,0.0,0.0,0.0,0.0,0.0,0.0,0.0,0.0,0.0,0.0,0.0,0.0,0.0,0.0,0.0,0.0,0.0,0.0,0.0,0.0,0.0,0.0,0.0,0.0,0.0,0.0,0.0,0.0,0.0,0.0,0.0,0.0,0.0,0.0,0.0,0.0,0.0,0.0,0.0,0.0,0.0,0.0,0.0,0.0,0.0,0.0,0.0,0.0,0.0,0.0,0.0,0.0,0.0,0.0,0.0,0.0,0.0,0.0,0.0,0.0,0.0,0.0,0.0,0.0,0.0,0.0,0.0,0.0,0.0,0.0,0.0,0.0,0.0,0.0,0.0,0.0,0.0,0.0,0.0,0.0,0.0,0.0,0.0,0.0,0.0,0.0,0.0,0.0,3.9795,4.4187,4.8725,5.1422,5.2045,4.6684,4.1919,0.0,0.0,0.0,0.0,0.0,0.0,0.0,0.0,0.0,0.0,0.0,0.0,0.0,0.0,0.0,0.0,0.0,0.0,0.0,0.0,0.0,0.0,0.0,0.0,0.0,0.0,0.0,0.0,0.0,0.0,0.0,0.0,0.0,0.0,0.0,0.0,0.0,0.0,0.0,0.0,0.0,0.0,0.0,0.0,0.0,0.0,0.0,0.0,3.7009,0.0,0.0,0.0,0.0,0.0,0.0,0.0,0.0,0.0,0.0,0.0,0.0,0.0,0.0,0.0,0.0,0.0,0.0,0.0,0.0,0.0,0.0,0.0,0.0,0.0,0.0,0.0,0.0,0.0,0.0,0.0,0.0,0.0,0.0,0.0,0.0,0.0,0.0,0.0,0.0,0.0,0.0,0.0,0.0,0.0,0.0,0.0,0.0,0.0,0.0,0.0,0.0,0.0,0.0,0.0,0.0,0.0,0.0,0.0,4.1066,4.5423,4.9151,5.1393,5.1885,4.8356,4.4305,0.0,0.0,0.0,0.0,0.0,0.0,0.0,0.0,0.0,0.0,0.0,0.0,0.0,0.0,0.0,0.0,0.0,0.0,0.0,0.0,0.0,0.0,0.0,0.0,0.0,0.0,0.0,0.0,0.0,0.0,0.0,0.0,0.0,0.0,0.0,0.0,0.0,0.0,0.0,0.0,0.0,0.0,0.0,0.0,0.0,0.0,0.0,0.0,0.0,0.0,0.0,0.0,0.0,0.0,0.0,0.0,0.0,0.0,0.0,0.0,0.0,0.0,0.0,0.0,0.0,0.0,0.0,0.0,0.0,0.0,0.0,0.0,0.0,0.0,0.0,0.0,0.0,0.0,0.0,0.0,0.0,0.0,0.0,0.0,0.0,0.0,0.0,0.0,0.0,0.0,0.0,0.0,0.0,0.0,0.0,0.0,0.0,0.0,0.0,0.0,0.0,0.0,0.0,0.0,0.0,0.0,0.0,3.7584,4.2142,4.6911,4.9697,5.1393,5.1934,5.0545,4.7021,4.1332,0.0,0.0,0.0,0.0,0.0,0.0,0.0,0.0,0.0,0.0,0.0,0.0,0.0,0.0,0.0,0.0,0.0,0.0,0.0,0.0,0.0,0.0,0.0,0.0,0.0,0.0,0.0,0.0,0.0,0.0,0.0,0.0,0.0,0.0,0.0,0.0,0.0,0.0,3.2563,3.5956,0.0,0.0,0.0,0.0,0.0,0.0,0.0,0.0,3.8937,0.0,0.0,0.0,0.0,0.0,0.0,0.0,0.0,0.0,0.0,0.0,0.0,0.0,0.0,0.0,0.0,0.0,0.0,0.0,0.0,0.0,0.0,0.0,0.0,0.0,0.0,0.0,0.0,0.0,0.0,0.0,0.0,0.0,0.0,0.0,0.0,0.0,0.0,0.0,0.0,0.0,0.0,0.0,0.0,0.0,0.0,0.0,0.0,0.0,0.0,0.0,0.0,0.0,0.0,0.0,0.0,3.7753,3.8159,4.1594,4.8447,5.027,5.1138,5.1256,5.0838,4.7609,4.1405,0.0,0.0,0.0,0.0,0.0,0.0,0.0,0.0,0.0,0.0,0.0,0.0,0.0,0.0,0.0,0.0,0.0,0.0,0.0,0.0,0.0,0.0,0.0,0.0,0.0,0.0,0.0,0.0,0.0,0.0,0.0,0.0,0.0,0.0,0.0,0.0,0.0,0.0,0.0,3.8974,4.0087,0.0,0.0,0.0,0.0,0.0,0.0,0.0,0.0,4.0663,0.0,0.0,0.0,0.0,0.0,0.0,0.0,0.0,0.0,0.0,0.0,0.0,0.0,0.0,0.0,0.0,0.0,0.0,0.0,0.0,0.0,0.0,0.0,0.0,0.0,0.0,0.0,0.0,0.0,0.0,0.0,0.0,0.0,0.0,0.0,0.0,0.0,0.0,0.0,0.0,0.0,0.0,0.0,0.0,0.0,0.0,0.0,0.0,0.0,0.0,0.0,0.0,0.0,0.0,0.0,3.7009,3.9952,4.3842,4.8843,5.0369,5.1086,5.1067,4.9227,4.581,0.0,0.0,0.0,0.0,0.0,0.0,0.0,0.0,0.0,0.0,0.0,0.0,0.0,0.0,0.0,0.0,0.0,0.0,0.0,0.0,0.0,0.0,0.0,0.0,0.0,0.0,0.0,0.0,0.0,0.0,0.0,0.0,0.0,0.0,0.0,0.0,0.0,0.0,0.0,0.0,4.0087,4.1779,4.3301,0.0,0.0,0.0,0.0,0.0,0.0,4.1948,4.1711,0.0,0.0,0.0,0.0,0.0,0.0,0.0,0.0,0.0,0.0,0.0,0.0,0.0,0.0,0.0,0.0,0.0,0.0,0.0,0.0,0.0,0.0,0.0,0.0,0.0,0.0,0.0,0.0,0.0,0.0,0.0,0.0,0.0,0.0,0.0,0.0,0.0,0.0,0.0,0.0,0.0,0.0,0.0,0.0,0.0,0.0,0.0,0.0,0.0,0.0,0.0,0.0,0.0,0.0,0.0,3.5656,4.1102,4.5591,4.9052,5.048,5.1189,5.1221,4.7928,4.4158,0.0,0.0,0.0,0.0,0.0,0.0,0.0,0.0,0.0,0.0,0.0,0.0,0.0,0.0,0.0,0.0,0.0,0.0,0.0,0.0,0.0,0.0,0.0,0.0,0.0,0.0,0.0,0.0,0.0,0.0,0.0,0.0,0.0,0.0,0.0,0.0,0.0,0.0,0.0,0.0,0.0,4.3639,4.5432,4.4147,0.0,0.0,0.0,0.0,4.3031,4.3876,0.0,0.0,0.0,0.0,0.0,0.0,0.0,0.0,0.0,0.0,0.0,0.0,0.0,0.0,0.0,0.0,0.0,0.0,0.0,0.0,0.0,0.0,0.0,0.0,0.0,0.0,0.0,0.0,0.0,0.0,0.0,0.0,0.0,0.0,0.0,0.0,0.0,0.0,0.0,0.0,0.0,0.0,0.0,0.0,0.0,0.0,0.0,0.0,0.0,0.0,0.0,0.0,0.0,0.0,0.0,0.0,3.5554,3.9546,4.4272,4.9585,5.0662,5.1393,5.1898,4.8717,4.4745,0.0,0.0,0.0,0.0,0.0,0.0,0.0,0.0,0.0,0.0,0.0,0.0,0.0,0.0,0.0,0.0,0.0,0.0,0.0,0.0,0.0,0.0,0.0,0.0,0.0,0.0,0.0,0.0,0.0,0.0,0.0,0.0,0.0,0.0,0.0,0.0,0.0,0.0,0.0,0.0,0.0,4.5399,4.5669,4.55,4.5331,0.0,0.0,4.7699,4.8849,5.0845,0.0,0.0,0.0,0.0,0.0,0.0,0.0,0.0,0.0,0.0,0.0,0.0,0.0,0.0,0.0,0.0,0.0,0.0,0.0,0.0,0.0,0.0,0.0,0.0,0.0,0.0,0.0,0.0,0.0,0.0,0.0,0.0,0.0,0.0,0.0,0.0,0.0,0.0,0.0,0.0,0.0,0.0,0.0,0.0,0.0,0.0,0.0,0.0,0.0,0.0,0.0,0.0,0.0,0.0,0.0,3.2104,3.569,4.1407,4.6203,4.9837,5.0716,5.1444,5.2112,4.708,4.2763,0.0,0.0,0.0,0.0,0.0,0.0,0.0,0.0,0.0,0.0,0.0,0.0,0.0,0.0,0.0,0.0,0.0,0.0,0.0,0.0,0.0,0.0,0.0,0.0,0.0,0.0,0.0,0.0,0.0,0.0,0.0,0.0,0.0,0.0,0.0,0.0,0.0,0.0,0.0,0.0,0.0,0.0,4.753,4.7597,0.0,0.0,0.0,4.9221,4.9424,0.0,0.0,0.0,0.0,0.0,0.0,0.0,0.0,0.0,0.0,0.0,0.0,0.0,0.0,0.0,0.0,0.0,0.0,0.0,0.0,0.0,0.0,0.0,0.0,0.0,0.0,0.0,0.0,0.0,0.0,0.0,0.0,0.0,0.0,0.0,0.0,0.0,0.0,0.0,0.0,0.0,0.0,0.0,0.0,0.0,0.0,0.0,0.0,0.0,0.0,0.0,0.0,0.0,0.0,0.0,0.0,0.0,3.5645,4.2997,4.7899,5.0189,5.0823,5.1494,5.2226,4.6793,0.0,0.0,0.0,0.0,0.0,0.0,0.0,0.0,0.0,0.0,0.0,0.0,0.0,0.0,0.0,0.0,0.0,0.0,0.0,0.0,0.0,0.0,0.0,0.0,0.0,0.0,0.0,2.3274,0.0,0.0,0.0,0.0,0.0,0.0,0.0,0.0,0.0,0.0,0.0,0.0,0.0,0.0,4.8748,4.9458,5.0033,5.0947,0.0,0.0,5.1386,5.1014,5.2976,5.2706,0.0,0.0,0.0,0.0,0.0,0.0,0.0,0.0,0.0,0.0,0.0,0.0,0.0,0.0,0.0,0.0,0.0,0.0,0.0,0.0,0.0,0.0,0.0,0.0,0.0,0.0,0.0,0.0,0.0,0.0,0.0,0.0,0.0,0.0,0.0,0.0,0.0,0.0,0.0,0.0,0.0,0.0,0.0,0.0,0.0,0.0,0.0,0.0,0.0,0.0,0.0,0.0,0.0,0.0,0.0,3.5791,4.2997,4.8186,5.0911,5.1086,5.1728,5.2987,4.9698,4.4966,0.0,0.0,0.0,0.0,0.0,0.0,0.0,0.0,0.0,0.0,0.0,0.0,0.0,0.0,0.0,0.0,0.0,0.0,0.0,0.0,0.0,0.0,0.0,0.0,0.0,0.0,0.0,0.0,0.0,0.0,0.0,0.0,0.0,0.0,0.0,0.0,0.0,0.0,0.0,0.0,0.0,5.0202,5.098,5.2875,5.4735,0.0,0.0,5.5547,5.6156,5.8727,5.7983,5.0067,0.0,0.0,0.0,0.0,0.0,0.0,0.0,0.0,0.0,0.0,0.0,0.0,0.0,0.0,0.0,0.0,0.0,0.0,0.0,0.0,0.0,0.0,0.0,0.0,0.0,0.0,0.0,0.0,0.0,0.0,0.0,0.0,0.0,0.0,0.0,0.0,0.0,0.0,0.0,0.0,0.0,0.0,0.0,0.0,0.0,0.0,0.0,0.0,0.0,0.0,0.0,0.0,0.0,3.3389,3.5656,4.2997,4.7957,5.032,5.0876,5.1579,5.2472,4.9756,4.5516,0.0,0.0,0.0,0.0,0.0,0.0,0.0,0.0,0.0,0.0,0.0,0.0,0.0,0.0,0.0,0.0,0.0,0.0,0.0,0.0,0.0,0.0,0.0,0.0,0.0,0.0,0.0,0.0,2.9228,2.9837,2.9702,0.0,0.0,0.0,0.0,0.0,0.0,0.0,0.0,0.0,0.0,5.1555,5.3687,5.5108,0.0,0.0,5.7543,5.7137,5.7442,5.7679,5.6021,5.0574,4.8173,0.0,0.0,0.0,0.0,0.0,0.0,0.0,0.0,0.0,0.0,0.0,0.0,0.0,0.0,0.0,0.0,0.0,0.0,0.0,0.0,0.0,0.0,0.0,0.0,0.0,0.0,0.0,0.0,0.0,0.0,0.0,0.0,0.0,0.0,0.0,0.0,0.0,0.0,0.0,0.0,0.0,0.0,0.0,0.0,0.0,0.0,0.0,0.0,0.0,0.0,0.0,0.0,3.3491,3.596,4.3132,4.7957,5.0244,5.0823,5.1494,5.2309,5.0488,4.6874,0.0,0.0,0.0,0.0,0.0,0.0,0.0,0.0,0.0,0.0,0.0,0.0,0.0,0.0,0.0,0.0,0.0,0.0,0.0,0.0,0.0,0.0,0.0,0.0,0.0,0.0,0.0,0.0,3.0345,3.0751,3.048,0.0,0.0,0.0,0.0,0.0,0.0,0.0,0.0,0.0,0.0,5.3653,5.575,5.6664,5.7509,5.8524,5.7679,5.7002,5.7205,5.6393,5.4566,5.1285,0.0,0.0,0.0,0.0,0.0,0.0,0.0,0.0,0.0,0.0,0.0,0.0,0.0,0.0,0.0,0.0,0.0,0.0,0.0,0.0,0.0,0.0,0.0,0.0,0.0,0.0,0.0,0.0,0.0,0.0,1.8984,0.0,0.0,0.0,0.0,0.0,0.0,0.0,0.0,0.0,0.0,0.0,0.0,0.0,0.0,0.0,0.0,0.0,0.0,0.0,0.0,0.0,0.0,3.3804,3.6772,4.3403,4.8186,5.0946,5.1086,5.1728,5.3023,5.2344,4.9591,4.4635,0.0,0.0,0.0,0.0,0.0,0.0,0.0,0.0,0.0,0.0,0.0,0.0,0.0,0.0,0.0,0.0,0.0,0.0,0.0,0.0,0.0,0.0,0.0,0.0,0.0,0.0,2.6015,2.8383,3.0412,0.0,0.0,0.0,0.0,0.0,0.0,0.0,0.0,0.0,0.0,5.2942,5.6664,5.6731,5.7374,5.7881,5.7949,5.6156,5.5006,5.575,5.5716,5.4938,0.0,0.0,0.0,0.0,0.0,0.0,0.0,0.0,0.0,0.0,0.0,0.0,0.0,0.0,0.0,0.0,0.0,0.0,0.0,0.0,0.0,0.0,0.0,0.0,0.0,0.0,0.0,2.452,2.3786,0.0,0.0,0.0,0.0,0.0,0.0,0.0,0.0,0.0,0.0,0.0,3.3394,3.5077,0.0,0.0,0.0,0.0,0.0,0.0,0.0,0.0,0.0,0.0,0.0,0.0,3.4968,3.7055,4.3876,4.847,5.03,5.0823,5.1544,5.2427,5.2169,4.9444,4.4048,0.0,0.0,0.0,0.0,0.0,0.0,0.0,0.0,0.0,0.0,0.0,0.0,0.0,0.0,0.0,0.0,0.0,0.0,0.0,0.0,0.0,0.0,0.0,0.0,0.0,2.8112,0.0,0.0,0.0,0.0,0.0,0.0,0.0,0.0,0.0,0.0,0.0,4.6955,5.0371,5.301,5.4972,5.5953,5.7137,5.822,0.0,0.0,0.0,0.0,0.0,0.0,0.0,0.0,0.0,0.0,0.0,0.0,0.0,0.0,5.7343,4.9903,4.8285,4.8162,4.8604,0.0,0.0,0.0,0.0,0.0,0.0,0.0,0.0,0.0,0.0,0.0,0.0,0.0,0.0,2.8558,0.0,2.7735,0.0,0.0,0.0,0.0,0.0,0.0,0.0,0.0,3.4979,3.7215,3.7974,3.9658,4.0027,0.0,3.858,3.5044,0.0,0.0,0.0,0.0,0.0,0.0,0.0,0.0,3.6258,3.8482,4.4597,4.8685,5.03,5.0876,5.1393,5.2076,5.2047,4.9994,4.5736,4.1772,3.8138,0.0,0.0,0.0,0.0,0.0,0.0,0.0,0.0,0.0,0.0,0.0,0.0,0.0,0.0,0.0,0.0,0.0,0.0,0.0,0.0,0.0,0.0,0.0,2.9973,0.0,0.0,0.0,0.0,0.0,0.0,0.0,0.0,0.0,4.4553,4.7462,5.0574,5.3484,5.4972,5.5886,5.6055,0.0,0.0,0.0,0.0,0.0,0.0,0.0,5.4228,5.5243,5.5277,5.5879,5.806,6.1428,6.3551,6.251,0.0,0.0,5.6449,5.4888,5.474,5.4813,5.3868,5.3054,5.3149,5.3555,5.3773,0.0,0.0,0.0,0.0,0.0,0.0,0.0,0.0,3.3256,3.333,0.0,3.2375,0.0,0.0,0.0,0.0,0.0,3.3178,0.0,0.0,4.2068,4.4485,4.2625,4.3978,4.4558,4.432,4.4404,4.2706,3.9076,3.4431,0.0,0.0,0.0,0.0,0.0,0.0,3.7513,4.1152,4.5657,4.8976,5.0998,5.1086,5.1444,5.2112,5.2083,5.1279,4.9664,4.7241,4.4525,4.1332,3.5936,0.0,0.0,0.0,0.0,0.0,0.0,0.0,0.0,0.0,0.0,0.0,0.0,0.0,0.0,0.0,0.0,0.0,0.0,0.0,0.0,2.9973,0.0,0.0,0.0,0.0,0.0,0.0,0.0,0.0,0.0,0.0,4.7293,5.1352,5.5074,5.6461,0.0,0.0,0.0,0.0,5.7137,5.5175,5.4194,5.4059,5.4837,5.6055,5.7881,6.0757,0.0,0.0,6.3814,6.4458,6.4414,6.1344,6.4284,6.5892,6.4975,6.2819,6.14,6.1344,5.9078,5.7556,5.857,5.8412,5.7812,3.9166,0.0,0.0,0.0,0.0,3.6009,3.7294,3.9827,3.9019,3.8469,3.8102,3.7661,0.0,0.0,0.0,0.0,0.0,0.0,3.7819,4.0418,4.3202,4.5103,4.6346,4.7293,4.7657,4.7597,4.7146,4.6597,4.5927,4.3554,3.8377,3.0761,0.0,0.0,0.0,0.0,3.9836,4.2773,4.6666,4.9457,5.1086,5.1086,5.1643,5.2857,5.2883,5.238,5.1316,5.0068,4.7902,4.4635,4.1332,0.0,0.0,0.0,0.0,0.0,0.0,0.0,0.0,0.0,0.0,0.0,0.0,0.0,0.0,0.0,0.0,0.0,0.0,0.0,3.0784,3.207,3.3152,0.0,0.0,0.0,0.0,0.0,0.0,0.0,0.0,0.0,5.3044,5.3518,5.416,0.0,0.0,5.5175,5.4532,5.5953,5.7442,5.8389,5.8355,0.0,5.9979,5.9607,5.981,6.1772,6.5696,6.8721,6.8987,7.1438,7.3122,7.2075,7.334,7.3773,7.1237,6.7928,6.5753,6.5935,6.4901,6.4292,6.5106,6.5441,6.5503,4.4856,4.0928,3.935,3.9423,4.0524,4.0084,4.1332,4.3681,4.2873,4.2616,4.2727,4.2103,4.0634,3.8615,3.7661,0.0,0.0,0.0,4.1209,4.4258,4.5111,4.6481,4.8275,4.8768,4.9018,4.8984,4.8813,4.8778,4.8826,4.8031,4.3968,3.7104,0.0,0.0,3.6098,3.9658,4.2565,4.4741,4.7573,4.9698,5.1086,5.1343,5.2018,5.3146,5.3225,5.2968,5.2491,5.2013,5.0692,4.8379,4.5663,4.2066,0.0,0.0,0.0,0.0,0.0,0.0,0.0,0.0,0.0,0.0,0.0,2.8146,0.0,0.0,0.0,0.0,3.0345,3.2577,3.5554,3.6502,0.0,0.0,0.0,0.0,0.0,0.0,0.0,4.9289,5.2875,5.5581,5.6461,5.6055,5.619,5.7509,5.7036,5.6596,5.6596,0.0,5.9404,6.0419,6.0588,6.1095,6.2584,6.255,6.3125,6.5561,6.8944,7.1435,7.1721,7.3931,7.5372,7.5201,7.5246,7.4713,7.2902,6.9969,6.7901,6.8329,6.8061,6.7897,6.8315,6.8704,6.9004,4.926,4.8086,4.4415,4.3277,4.3864,4.3864,4.4709,4.5993,4.5296,4.581,4.702,4.5626,4.4158,4.2653,4.0419,0.0,4.2082,4.3444,4.5101,4.6826,4.7561,4.8266,4.8993,4.9035,4.9046,4.9107,4.9664,4.9639,4.9067,4.8993,4.7696,4.5246,4.4245,4.3081,4.1929,4.3498,4.5199,4.6759,4.8114,4.9561,5.1086,5.179,5.2509,5.3146,5.3225,5.3225,5.3225,5.3225,5.2858,5.205,4.9114,4.5957,4.2616,0.0,0.0,0.0,0.0,0.0,0.0,0.0,0.0,0.0,0.0,0.0,0.0,0.0,0.0,0.0,3.5926,0.0,4.1474,4.2354,0.0,0.0,0.0,4.6786,4.8376,5.1691,5.3856,5.3856,0.0,0.0,5.8254,5.8863,6.0114,6.2347,6.1806,6.1231,6.1298,6.1839,6.2245,6.1704,6.1772,6.2347,6.3903,6.5121,6.7049,7.0195,7.2462,7.3036,7.2745,7.3408,7.3553,7.3426,7.2471,7.2113,7.1759,7.083,6.9597,6.9346,6.9064,6.9064,6.9183,6.9243,6.9273,5.0582,4.9187,4.8233,4.7609,4.7168,4.7168,4.7388,4.7719,4.7535,4.7682,4.7976,4.7609,4.7241,4.68,4.5797,4.6197,4.7636,4.6972,4.7854,4.979,4.9543,4.9485,4.9756,4.9735,4.978,4.9722,4.9402,4.9402,4.9746,4.9708,4.8831,4.7248,4.7435,4.5857,4.2661,4.3235,4.4986,4.7523,4.7397,4.8529,5.1051,5.2289,5.306,5.3225,5.3225,5.3225,5.3225,5.3225,5.3115,5.2894,5.1022,4.8453,4.5149,3.935,0.0,0.0,0.0,0.0,0.0,0.0,0.0,0.0,0.0,3.3558,2.7706,0.0,3.5588,0.0,4.0087,4.3707,4.6075,4.6481,0.0,0.0,5.0135,5.0947,5.3585,5.5649,5.6867,5.6867,5.8998,6.0689,6.1264,6.1467,6.2415,6.4512,6.2279,6.0622,6.1231,6.2415,6.3396,6.3835,6.5155,6.644,6.6812,6.8132,6.9553,7.1075,7.209,7.2776,7.3205,7.4825,7.6205,7.6609,7.754,7.7148,7.4953,7.5182,7.4256,7.1339,7.0081,6.9901,7.035,7.044,7.044,5.2344,5.1169,5.0802,5.0178,4.937,4.8636,4.8306,4.8306,4.8306,4.8306,4.8306,4.8306,4.8306,4.8267,4.7955,4.8251,4.8928,4.8242,4.8981,5.0729,4.9817,4.9922,5.0894,5.0279,4.9976,4.9976,4.9605,4.9605,4.9976,4.9976,4.975,4.924,4.9346,4.8061,4.5587,4.4766,4.5161,4.6688,4.738,4.896,5.1472,5.2635,5.2674,5.1646,5.194,5.1463,4.9994,5.0325,5.0178,4.9444,4.8893,4.7462,4.4892,4.062,3.7119,0.0,0.0,0.0,0.0,0.0,0.0,0.0,0.0,0.0,0.0,0.0,3.9681,4.0696,4.4891,4.8308,5.0236,5.098,5.23,5.4566,5.5006,5.6089,5.8457,5.9708,6.052,6.0858,6.2009,6.3057,6.3734,6.3869,6.441,6.5967,6.4377,6.326,6.37,6.4512,6.5155,6.5595,6.6914,6.8199,6.8774,6.9891,7.0804,7.1244,7.165,7.2259,7.3308,7.4796,7.6318,7.7705,7.8354,7.8331,7.6906,7.6038,7.4998,7.3655,7.2149,7.1274,7.0599,7.0709,7.0859,5.4106,5.3298,5.2601,5.1793,5.0839,4.9517,4.8636,4.8159,4.8049,4.8049,4.8159,4.8269,4.8306,4.8306,4.8306,4.8379,4.8489,4.8489,4.937,5.0872,4.9683,5.0199,5.2029,5.0875,5.0341,5.0453,5.0332,5.0367,5.0424,5.0424,5.0585,5.0788,5.0195,4.9501,4.8649,4.6564,4.5494,4.558,4.7908,4.9997,5.1752,5.2302,5.1573,4.9554,4.9994,4.9003,4.6214,4.6764,4.6471,4.5149,4.57,4.5516,4.4268,4.1286,3.9511,0.0,3.5856,0.0,0.0,0.0,0.0,0.0,0.0,0.0,0.0,4.276,4.4418,4.638,4.9898,5.2706,5.4194,5.5615,5.7002,5.8321,5.9607,6.096,6.2347,6.3125,6.3835,6.4647,6.4749,6.5019,6.5662,6.5831,6.6102,6.6643,6.6745,6.6609,6.688,6.6812,6.688,6.7083,6.7726,6.8808,6.9992,7.0838,7.1278,7.1312,7.1481,7.1921,7.3274,7.4255,7.5506,7.7371,7.7512,7.7245,7.7726,7.5763,7.4518,7.4722,7.4074,7.2953,7.1183,7.1044,7.0968,5.4913,5.4179,5.3995,5.3115,5.1793,5.2123,5.0398,4.7315,4.6654,4.6728,4.7388,4.8012,4.8306,4.8306,4.8306,4.8673,4.9334,4.9334,5.0215,5.1793,5.1511,5.1645,5.2065,5.188,5.2059,5.2609,5.2187,5.2218,5.2745,5.2799,5.163,4.9353,4.9264,4.8678,4.7707,0.0,0.0,0.0,4.8973,5.0337,5.0128,4.9565,4.9003,4.8563,4.8049,0.0,4.6948,4.7058,4.6985,4.6691,4.6801,0.0,0.0,0.0,0.0,0.0,0.0,0.0,0.0,0.0,0.0,0.0,4.4198,4.3572,4.32,4.7564,5.0642,5.1116,5.4431,5.7239,5.8693,5.9674,6.0588,6.1434,6.1806,6.2313,6.3193,6.3429,6.4005,6.5324,6.5493,6.5764,6.644,6.6609,6.6643,6.6846,6.732,6.7658,6.7726,6.7726,6.7963,6.8571,6.9214,7.0026,7.0973,7.121,7.1312,7.1379,7.1853,7.2496,7.3375,7.4593,7.598,7.7671,7.788,7.7547,7.7106,7.7484,7.667,7.3439,7.4029,7.4613,7.3014,7.2706,7.2578,5.6565,0.0,5.5757,5.4876,0.0,5.3371,5.1793,4.9481,4.9077,4.893,4.8967,4.937,4.9554,4.9517,4.9114,4.9187,4.9554,4.915,5.0031,5.1977,5.1609,5.228,5.3845,5.3504,5.3584,5.3917,5.3618,5.3638,5.3989,5.3691,5.2928,5.174,5.1351,5.1154,5.0958,5.0365,4.9416,4.8232,5.0067,5.1538,5.2535,5.1736,5.0729,4.9591,4.915,0.0,0.0,0.0,0.0,0.0,0.0,0.0,0.0,0.0,0.0,4.596,4.4586,4.4102,4.4833,4.5096,4.655,4.9615,5.1007,5.0777,4.8578,5.2503,5.5412,5.6122,5.8254,6.0013,6.1095,6.1603,6.1975,6.2347,6.2719,6.3226,6.3937,6.4377,6.5019,6.6,6.6237,6.6406,6.6779,6.7151,6.7354,6.7387,6.7996,6.8605,6.891,6.8707,6.8774,6.9519,6.9891,7.0466,7.1142,7.1312,7.1312,7.1379,7.1921,7.2665,7.3375,7.4424,7.5676,7.7063,7.7435,7.7343,7.7446,7.7443,7.6617,7.478,7.5411,7.612,7.4794,7.3509,7.2784,5.7997,5.7923,5.7299,5.6528,5.5721,5.4546,5.3592,5.2784,0.0,0.0,0.0,5.0802,5.0802,5.0765,5.0105,4.9811,4.9774,4.937,5.0288,5.2197,5.1908,5.3117,5.5493,5.5051,5.4882,5.4979,5.5026,5.5013,5.4963,5.4486,5.4466,5.4697,5.4203,5.4044,5.4431,5.5192,5.4143,5.1315,5.1422,5.2714,5.5053,5.4252,5.2821,5.0839,5.0655,4.9297,4.6691,4.7205,4.6948,4.5663,4.6324,4.6911,4.7205,4.8024,4.8815,4.9451,4.9829,5.0241,5.0679,5.1415,5.2557,5.4195,5.663,5.7002,5.4465,5.6867,5.8998,6.0216,6.1028,6.1738,6.2347,6.2381,6.2448,6.2584,6.3159,6.3835,6.4681,6.529,6.5933,6.6643,6.6779,6.6812,6.6812,6.7421,6.7895,6.7996,6.8673,6.9553,7.0128,6.9891,6.9755,7.0297,7.0466,7.0703,7.1312,7.1548,7.1548,7.1819,7.2394,7.2969,7.3612,7.4322,7.5303,7.669,7.6826,7.6995,7.7472,7.691,7.5889,7.5614,7.6564,7.7227,7.6266,7.437,7.3369,5.7997,5.7997,5.7886,5.7373,5.6675,5.7116,5.6859,5.5831,5.2491,5.0912,5.0802,5.0802,5.0802,5.0802,5.0692,5.0618,5.0729,5.194,5.2711,5.3115,5.4349,5.52,5.5566,5.5547,5.5874,5.6493,5.6514,5.6587,5.6638,5.7085,5.6758,5.5663,5.5491,5.4876,5.3851,5.5029,5.5446,5.495,5.3617,5.3127,5.3518,5.2087,5.1169,5.0802,5.0141,4.9517,4.9114,4.9187,4.915,4.893,4.9701,5.0729,5.2087,5.226,5.2806,5.3677,5.4409,5.4581,5.4001,5.4676,5.5744,5.7179,5.8254,5.8389,5.7476,5.9438,6.0926,6.1163,6.1806,6.2279,6.2381,6.2415,6.2685,6.3226,6.3463,6.4038,6.5324,6.5628,6.6,6.6711,6.6812,6.6812,6.6948,6.7489,6.7996,6.8166,6.9214,7.0297,7.0838,7.1075,7.1041,7.1142,7.1176,7.1481,7.1887,7.2225,7.236,7.3105,7.368,7.4086,7.4322,7.4965,7.5743,7.6724,7.6352,7.6284,7.6893,7.6932,7.6074,7.5194,7.5641,7.6531,7.7151,7.6503,7.5825,5.7997,5.7997,5.7997,5.7776,5.7483,5.785,5.7776,5.7262,5.506,5.3555,5.2784,5.2747,5.2527,5.2087,5.1646,5.1426,5.1499,5.2234,5.3004,5.3922,5.506,5.6051,5.6895,5.6948,5.7131,5.7437,5.7496,5.7498,5.7498,5.7821,5.7637,5.6988,5.6999,5.6673,5.6066,5.6588,5.6951,5.6963,5.5848,5.5395,5.5794,5.4656,5.4069,5.4032,5.3261,5.2821,5.2858,5.2821,5.2858,5.2858,5.3188,5.3739,5.4473,5.4913,5.5377,5.5808,5.6602,5.6723,5.5876,5.6503,5.743,5.8462,5.9607,6.0114,5.9776,6.0689,6.1467,6.1839,6.2212,6.2415,6.2415,6.2753,6.3125,6.3463,6.4174,6.4952,6.5595,6.6068,6.644,6.6779,6.6812,6.6981,6.7354,6.8064,6.8741,6.9113,7.0128,7.0939,7.1278,7.1312,7.1312,7.1312,7.1312,7.1447,7.1785,7.1819,7.2124,7.2766,7.351,7.4119,7.4525,7.5236,7.5777,7.6149,7.5912,7.5879,7.6251,7.6251,7.5735,7.5165,7.6369,7.7603,7.7932,7.756,7.715,5.7997,5.7997,5.7997,5.7997,5.7997,5.7997,5.7997,5.7923,5.7299,5.6161,5.4766,5.4473,5.4069,5.3408,5.2637,5.227,5.2307,5.2637,5.3482,5.4693,5.5684,5.6822,5.7886,5.7997,5.7997,5.7997,5.7997,5.7997,5.7997,5.7997,5.7997,5.7997,5.7997,5.7997,5.7997,5.7997,5.7997,5.7914,5.7449,5.7449,5.796,5.7409,5.7079,5.7042,5.6455,5.6124,5.6124,5.6124,5.6235,5.6381,5.6418,5.6492,5.6675,5.7262,5.7617,5.776,5.8471,5.8625,5.8002,5.8221,5.8744,5.9471,6.0622,6.1366,6.1535,6.1535,6.1772,6.2279,6.2381,6.2415,6.2482,6.3057,6.3599,6.3802,6.4884,6.5696,6.5967,6.6474,6.6812,6.6812,6.6812,6.7083,6.7827,6.8605,6.9383,7.0263,7.0939,7.1278,7.1312,7.1312,7.1312,7.1312,7.1312,7.1447,7.1515,7.1616,7.2022,7.2699,7.3409,7.4153,7.4762,7.5371,7.5642,7.5743,7.5743,7.5709,7.5709,7.5709,7.5628,7.5506,7.6743,7.8018,7.827,7.8563,7.8292,5.8033,5.7997,5.8033,5.7997,5.7997,5.7997,5.8033,5.796,5.7923,5.7005,5.5537,5.473,5.4363,5.4179,5.3408,5.3115,5.3225,5.462,5.5317,5.5647,5.7079,5.785,5.7997,5.7997,5.7997,5.7997,5.7997,5.7997,5.7997,5.7997,5.7997,5.7997,5.7997,5.7997,5.7997,5.7997,5.7997,5.7997,5.795,5.795,5.7997,5.7923,5.7886,5.7886,5.7813,5.7776,5.774,5.7776,5.8143,5.8804,5.8841,5.9171,5.9795,6.0015,6.0041,6.0018,6.075,6.1207,6.0999,6.0485,6.0316,6.0969,6.1197,6.1603,6.2178,6.2279,6.2279,6.2381,6.2415,6.2415,6.2448,6.3091,6.3802,6.4377,6.5222,6.5933,6.6542,6.6779,6.6812,6.6812,6.6846,6.7117,6.7895,6.8741,6.9722,7.0939,7.1176,7.1312,7.1312,7.1312,7.1312,7.1312,7.1312,7.1582,7.2022,7.2293,7.2732,7.3916,7.439,7.4762,7.527,7.5574,7.5676,7.5676,7.5676,7.5676,7.5676,7.5709,7.598,7.6466,7.68,7.6796,7.8521,7.9696,7.9716,5.9428,5.9428,5.9428,5.9134,5.8731,5.8731,5.8437,5.7997,5.7997,5.7593,5.6895,5.5647,5.4583,5.3739,5.3849,5.3922,5.4032,5.5574,5.6308,5.6418,5.7483,5.7997,5.7997,5.7997,5.7997,5.7997,5.7997,5.7997,5.7997,5.7997,5.7997,5.7997,5.7997,5.7997,5.7997,5.7997,5.7997,5.7997,5.7997,5.7997,5.7997,5.7997,5.7997,5.8033,5.8437,5.8694,5.8767,5.9171,5.9575,5.9905,5.9942,6.0089,6.0382,6.0419,6.0371,6.0441,6.0648,6.0795,6.0758,6.0804,6.104,6.1298,6.1704,6.211,6.2347,6.2415,6.2415,6.2415,6.2415,6.2415,6.2482,6.3463,6.4275,6.4715,6.5628,6.6474,6.6779,6.6812,6.6812,6.6846,6.7218,6.776,6.8605,6.9654,7.0567,7.121,7.1312,7.1312,7.1312,7.1312,7.1312,7.1379,7.165,7.1819,7.1887,7.2157,7.2868,7.3713,7.4322,7.4864,7.5473,7.5676,7.5676,7.5676,7.5676,7.5676,7.5676,7.5777,7.6014,7.6961,7.8215,7.8487,7.8478,7.8836,7.8629,6.0419,6.0419,6.0419,6.0089,5.9575,5.9538,5.9208,5.8657,5.8437,5.8217,5.785,5.6308,5.4987,5.4032,5.4252,5.4509,5.4876,5.6161,5.6785,5.6895,5.7629,5.7997,5.7997,5.7997,5.7997,5.7997,5.7997,5.7997,5.7997,5.7997,5.7997,5.7997,5.7997,5.7997,5.8033,5.818,5.8327,5.8364,5.851,5.8657,5.8694,5.8657,5.8547,5.8437,5.9134,5.9538,5.9538,6.0089,6.0529,6.0713,6.0713,6.0823,6.1043,6.108,6.1126,6.1371,6.1077,6.1068,6.1253,6.1521,6.1639,6.168,6.211,6.2415,6.2415,6.2415,6.2415,6.2415,6.2415,6.2448,6.2821,6.3835,6.4613,6.4918,6.6102,6.6812,6.6812,6.6812,6.6812,6.688,6.7421,6.8301,6.9316,7.0432,7.1244,7.1278,7.1312,7.1312,7.1312,7.1312,7.1379,7.1582,7.209,7.2157,7.1751,7.2293,7.2935,7.3612,7.4356,7.4864,7.554,7.5676,7.5676,7.5676,7.5676,7.5676,7.5676,7.5777,7.6115,7.7502,7.8889,7.9533,7.8682,7.8531,7.7862,6.0419,6.0456,6.0419,6.0456,6.0346,6.0346,6.0309,6.0089,5.9428,5.8731,5.7886,5.6345,5.5574,5.55,5.495,5.484,5.5574,5.6455,5.6895,5.6969,5.7703,5.7997,5.7997,5.7997,5.8033,5.8217,5.8217,5.8143,5.807,5.8033,5.7997,5.8033,5.807,5.8033,5.8217,5.8841,5.9171,5.9208,5.9795,6.0199,6.0236,6.0236,5.9905,5.9391,5.9942,6.0346,6.0346,6.0382,6.0786,6.152,6.1557,6.1887,6.2498,6.2558,6.2837,6.3503,6.2964,6.2796,6.3181,6.2718,6.2375,6.23,6.2347,6.2415,6.2415,6.2415,6.2415,6.2415,6.2415,6.2651,6.3429,6.414,6.4884,6.5527,6.6305,6.6779,6.6812,6.6812,6.6812,6.6981,6.7624,6.8673,6.9992,7.0804,7.1244,7.1312,7.1312,7.1312,7.1312,7.1312,7.1548,7.2022,7.2326,7.2394,7.2428,7.2969,7.3713,7.4221,7.4559,7.4897,7.5337,7.5676,7.5676,7.5676,7.5676,7.5676,7.5676,7.5912,7.6318,7.7435,7.9025,7.9466,7.8612,7.9601,7.8836,6.1961,6.1961,6.1961,6.1667,6.119,6.1153,6.0896,6.0346,5.9575,5.9061,5.8547,5.7079,5.6932,5.785,5.7079,5.6565,5.6492,5.7226,5.7556,5.7666,5.84,5.8767,5.8841,5.9281,5.9538,5.9538,5.9538,5.9281,5.8804,5.8767,5.8767,5.8767,5.8767,5.9024,5.9501,5.9832,5.9979,6.0015,6.0272,6.0419,6.0493,6.0896,6.1006,6.0786,6.1006,6.119,6.1153,6.1667,6.2071,6.2365,6.2365,6.2237,6.2023,6.152,6.1521,6.2238,6.2016,6.1951,6.2144,6.2398,6.2429,6.2391,6.2415,6.2415,6.2415,6.2415,6.2415,6.2415,6.2415,6.2888,6.3937,6.4444,6.4884,6.5628,6.6339,6.6812,6.6812,6.6812,6.6981,6.7557,6.8538,6.9789,7.0567,7.1142,7.1312,7.1312,7.1312,7.1312,7.1312,7.1312,7.1447,7.1785,7.2496,7.3071,7.3105,7.3713,7.4356,7.4627,7.4931,7.527,7.5642,7.5676,7.5676,7.5676,7.5676,7.5676,7.5709,7.6487,7.6826,7.7536,7.9126,7.9432,7.8607,7.9361,7.8418,6.2805,6.2805,6.2805,6.2511,6.1998,6.1998,6.1704,6.108,6.0052,5.9612,5.9318,5.7923,5.796,5.8988,5.8657,5.829,5.8033,5.8547,5.8767,5.8841,5.9355,5.9612,5.9685,6.0162,6.0419,6.0382,6.0419,6.0126,5.9685,5.9612,5.9612,5.9612,5.9612,5.9869,6.0346,6.0639,6.0786,6.0823,6.1043,6.1092,6.0943,6.1605,6.1862,6.1675,6.1862,6.1998,6.1998,6.2511,6.2618,6.2464,6.2376,6.2168,6.1566,6.1242,6.1392,6.1987,6.1903,6.1824,6.2063,6.2343,6.2381,6.2415,6.2415,6.2415,6.2415,6.2415,6.2415,6.2415,6.2685,6.3294,6.4275,6.4816,6.5256,6.5933,6.6508,6.6812,6.6812,6.6812,6.7286,6.8199,6.9316,7.0398,7.1142,7.1278,7.1312,7.1312,7.1312,7.1312,7.1312,7.1312,7.1447,7.1684,7.2462,7.324,7.3646,7.4221,7.4728,7.5033,7.5168,7.554,7.5676,7.5676,7.5676,7.5676,7.5676,7.5676,7.6115,7.6893,7.7468,7.7942,7.8788,7.9365,7.9023,7.9012,7.7773,6.2805,6.2805,6.2805,6.2768,6.2695,6.2695,6.2768,6.2365,6.108,6.0382,6.0052,5.8694,5.8584,5.9171,5.9355,5.9685,6.0236,6.0382,6.0309,6.0199,6.0346,6.0419,6.0419,6.0603,6.0676,6.0676,6.0529,6.0493,6.0419,6.0419,6.0419,6.0419,6.0419,6.0493,6.0493,6.1263,6.1594,6.1704,6.2168,6.2193,6.177,6.2214,6.2266,6.1752,6.2214,6.2595,6.2682,6.2718,6.2376,6.177,6.164,6.1566,6.1663,6.1988,6.2793,6.3196,6.2858,6.292,6.3363,6.2745,6.2415,6.2415,6.2415,6.2415,6.2415,6.2415,6.2415,6.2482,6.3024,6.3802,6.4512,6.5189,6.5865,6.6643,6.6812,6.6812,6.6812,6.688,6.7421,6.8842,6.9823,7.05,7.1075,7.1312,7.1312,7.1312,7.1312,7.1312,7.1312,7.1312,7.1616,7.2056,7.2462,7.2969,7.3815,7.4627,7.5067,7.5439,7.5506,7.5676,7.5676,7.5676,7.5676,7.5676,7.5676,7.5709,7.5811,7.6589,7.7164,7.7739,7.8619,7.9128,7.8752,7.8325,7.727,6.2805,6.2805,6.2805,6.2805,6.2805,6.2805,6.2805,6.2695,6.1667,6.0933,6.0382,5.9869,5.9795,6.0126,6.0603,6.13,6.2034,6.2034,6.1484,6.0676,6.097,6.1227,6.1337,6.1777,6.2071,6.2071,6.2071,6.1741,6.13,6.1227,6.1227,6.1227,6.1227,6.152,6.1998,6.2328,6.2438,6.2425,6.2126,6.1824,6.1659,6.1824,6.1824,6.1659,6.186,6.1969,6.1969,6.1969,6.1824,6.1548,6.1556,6.1714,6.2053,6.1912,6.2066,6.2719,6.2631,6.2506,6.2711,6.2581,6.2415,6.2415,6.2415,6.2415,6.2415,6.2415,6.2415,6.2482,6.3057,6.3802,6.4546,6.5256,6.6,6.6711,6.6812,6.6846,6.6981,6.7726,6.8741,6.9688,7.05,7.1041,7.121,7.1312,7.1312,7.1312,7.1312,7.1312,7.1312,7.1312,7.1345,7.165,7.209,7.2699,7.3578,7.4424,7.4999,7.5405,7.5642,7.5676,7.5676,7.5676,7.5676,7.5676,7.5676,7.5743,7.5845,7.6284,7.6961,7.7472,7.8249,7.8253,7.8003,7.7096,7.6055,6.2805,6.2805,6.2805,6.2805,6.2805,6.2805,6.2805,6.2622,6.163,6.086,6.0419,6.0052,6.0126,6.0529,6.1227,6.2034,6.2768,6.2805,6.2254,6.1447,6.1741,6.2034,6.2108,6.2548,6.2805,6.2805,6.2805,6.2548,6.2071,6.2034,6.2071,6.2034,6.2034,6.2254,6.2768,6.2805,6.2705,6.2324,6.1824,6.1286,6.0902,6.1286,6.1286,6.0879,6.1516,6.1831,6.1637,6.1557,6.1412,6.1254,6.1336,6.164,6.1998,6.1885,6.1941,6.2279,6.2381,6.2381,6.2415,6.2381,6.2415,6.2415,6.2415,6.2415,6.2415,6.2415,6.2448,6.2854,6.3497,6.4208,6.4952,6.5696,6.6305,6.6745,6.6812,6.6948,6.7286,6.8335,6.9316,7.006,7.0804,7.121,7.1312,7.1312,7.1312,7.1312,7.1312,7.1312,7.1312,7.1312,7.1312,7.1481,7.1988,7.2665,7.3375,7.4153,7.4897,7.5303,7.5676,7.5676,7.5676,7.5676,7.5676,7.5676,7.5676,7.5676,7.5811,7.642,7.7029,7.754,7.7949,7.774,7.7429,7.612,7.4998,6.2805,6.2805,6.2805,6.2805,6.2805,6.2805,6.2805,6.2585,6.1374,6.0713,6.0419,6.0126,6.0015,6.0603,6.1447,6.2181,6.2695,6.2805,6.2768,6.2622,6.2695,6.2695,6.2695,6.2768,6.2805,6.2805,6.2805,6.2805,6.2658,6.2695,6.2805,6.2695,6.2558,6.2718,6.2755,6.2755,6.2376,6.1969,6.1604,6.0725,5.9539,6.0544,6.0796,5.9516,6.1229,6.2045,6.1545,6.146,6.112,6.0601,6.1058,6.1359,6.1545,6.2009,6.2347,6.2415,6.2415,6.2415,6.2415,6.2415,6.2415,6.2415,6.2415,6.2415,6.2415,6.255,6.2821,6.3362,6.4174,6.4918,6.5595,6.6271,6.6745,6.688,6.7015,6.7252,6.7895,6.8741,6.9553,7.0229,7.0872,7.1312,7.1312,7.1312,7.1312,7.1312,7.1312,7.1312,7.1312,7.1312,7.1312,7.1582,7.1954,7.2665,7.3375,7.4119,7.4864,7.5405,7.5676,7.5676,7.5676,7.5676,7.5676,7.5676,7.5676,7.5676,7.598,7.6589,7.7198,7.7773,7.7816,7.745,7.6515,7.5093,7.3959,6.2805,6.2805,6.2805,6.2805,6.2805,6.2805,6.2805,6.2768,6.2365,6.1704,6.141,6.1704,6.1447,6.1374,6.2071,6.2622,6.2768,6.2805,6.2805,6.2805,6.2805,6.2805,6.2805,6.2805,6.2805,6.2805,6.2805,6.2805,6.2805,6.2805,6.2805,6.2755,6.2271,6.2271,6.2654,6.2219,6.2219,6.2219,6.1265,6.058,6.0086,5.9768,5.9853,6.018,6.0656,6.1208,6.1396,6.138,6.1272,6.1102,6.1181,6.1569,6.2009,6.2279,6.2415,6.2415,6.2415,6.2415,6.2415,6.2415,6.2415,6.2415,6.2415,6.2415,6.2415,6.2922,6.326,6.3734,6.4613,6.5459,6.5764,6.6373,6.6981,6.7523,6.759,6.7929,6.8707,6.9451,7.0195,7.0906,7.1176,7.1278,7.1312,7.1312,7.1312,7.1312,7.1312,7.1312,7.1312,7.1312,7.1312,7.1548,7.1954,7.2665,7.3375,7.4119,7.483,7.5439,7.5676,7.5676,7.5676,7.5676,7.5676,7.5676,7.5676,7.5676,7.6251,7.686,7.7401,7.7878,7.7337,7.6834,7.5427,7.4084,7.3014,6.2805,6.2805,6.2805,6.2805,6.2805,6.2805,6.2805,6.2732,6.2438,6.2071,6.1704,6.1704,6.1741,6.1667,6.2071,6.2511,6.2768,6.2805,6.2805,6.2805,6.2805,6.2805,6.2805,6.2805,6.2805,6.2805,6.2805,6.2805,6.2805,6.2805,6.2805,6.2654,6.2023,6.1915,6.2219,6.1879,6.14,6.1229,6.058,6.0149,5.9346,5.9525,5.9633,6.0081,6.0599,6.15,6.1753,6.1809,6.1637,6.1434,6.1603,6.1941,6.2313,6.2415,6.2415,6.2415,6.2415,6.2415,6.2415,6.2415,6.2415,6.2415,6.2415,6.2584,6.2854,6.3328,6.3632,6.4512,6.5256,6.5764,6.617,6.6576,6.7151,6.776,6.8199,6.8707,6.9485,6.9891,7.05,7.1041,7.1312,7.1312,7.1312,7.1312,7.1312,7.1312,7.1312,7.1312,7.1312,7.1345,7.1515,7.1853,7.236,7.3172,7.3883,7.4593,7.4999,7.5574,7.5676,7.5676,7.5676,7.5676,7.5676,7.5676,7.5676,7.5912,7.6589,7.71,7.7279,7.7411,7.6795,7.5844,7.4521,7.3281,7.2082,6.2805,6.2805,6.2805,6.2805,6.2805,6.2805,6.2805,6.2658,6.2181,6.1851,6.1704,6.1006,6.141,6.1704,6.1998,6.2181,6.2805,6.2805,6.2805,6.2805,6.2805,6.2805,6.2805,6.2805,6.2805,6.2805,6.2805,6.2705,6.2654,6.2705,6.2654,6.2271,6.1659,6.1564,6.1651,6.1501,6.0722,6.0346,6.0516,6.0067,5.9321,5.9699,5.997,5.9979,6.1336,6.2124,6.2285,6.2313,6.2076,6.1467,6.2042,6.2313,6.2415,6.2415,6.2415,6.2415,6.2415,6.2415,6.2415,6.2415,6.2415,6.2415,6.2482,6.2787,6.3362,6.3734,6.441,6.5358,6.573,6.617,6.6576,6.6812,6.7286,6.7996,6.8707,6.9383,7.0094,7.0297,7.0567,7.1176,7.1312,7.1345,7.1413,7.1447,7.1481,7.2124,7.2022,7.2056,7.2056,7.209,7.2259,7.2496,7.3105,7.3781,7.4492,7.5134,7.5371,7.5676,7.5676,7.5676,7.5676,7.5676,7.5676,7.5743,7.5946,7.6386,7.7029,7.7309,7.7379,7.6908,7.6275,7.4977,7.3534,7.2396,7.1148,6.2805,6.2805,6.2805,6.2805,6.2805,6.2805,6.2805,6.2805,6.2622,6.2475,6.2475,6.2328,6.2328,6.2511,6.2475,6.2658,6.2805,6.2805,6.2805,6.2805,6.2805,6.2805,6.2805,6.2805,6.2805,6.2805,6.2805,6.2464,6.2129,6.2412,6.2166,6.1127,6.1081,6.096,6.1397,6.1065,6.1125,6.1546,6.1387,6.0878,6.0423,6.0194,6.0415,6.0723,6.18,6.231,6.2391,6.2415,6.2313,6.2245,6.2279,6.2415,6.2415,6.2415,6.2415,6.2415,6.2415,6.2415,6.2415,6.2415,6.2415,6.2516,6.2922,6.3362,6.3531,6.458,6.5222,6.5797,6.6203,6.6576,6.6779,6.6812,6.7489,6.8436,6.9011,6.9654,7.0703,7.1041,7.1109,7.1244,7.1345,7.1515,7.2056,7.209,7.2293,7.28,7.2969,7.3003,7.2902,7.28,7.3003,7.3172,7.3646,7.4289,7.4762,7.5303,7.554,7.5676,7.5676,7.5676,7.5676,7.5676,7.5676,7.5946,7.6318,7.6729,7.7073,7.7109,7.6981,7.632,7.5534,7.4225,7.2768,7.1631,7.0919,6.2805,6.2805,6.2805,6.2805,6.2805,6.2805,6.2805,6.2805,6.2805,6.2805,6.2805,6.2805,6.2805,6.2805,6.2805,6.2805,6.2805,6.2805,6.2805,6.2805,6.2805,6.2805,6.2805,6.2805,6.2805,6.2842,6.2805,6.2324,6.2023,6.2291,6.2187,6.1051,6.0901,6.1171,6.1345,6.1014,6.0982,6.1259,6.1432,6.1256,6.0789,6.0789,6.1028,6.167,6.2178,6.2415,6.2415,6.2415,6.2415,6.2415,6.2415,6.2415,6.2415,6.2415,6.2415,6.2415,6.2415,6.2415,6.2415,6.2415,6.255,6.2888,6.3328,6.3903,6.4377,6.5324,6.5831,6.6203,6.6542,6.6812,6.6846,6.7218,6.7929,6.8808,6.9417,7.0094,7.1007,7.1312,7.1312,7.1312,7.1312,7.1718,7.209,7.2428,7.2834,7.3206,7.3308,7.3341,7.3274,7.324,7.3612,7.3883,7.4255,7.4695,7.51,7.5439,7.5608,7.5676,7.5676,7.5676,7.5676,7.5676,7.5676,7.6014,7.6256,7.644,7.6608,7.665,7.6157,7.4997,7.4017,7.3138,7.233,7.1247,7.0919,6.2805,6.2805,6.2805,6.2805,6.2805,6.2805,6.2805,6.2805,6.2805,6.2805,6.2805,6.2805,6.2805,6.2805,6.2805,6.2805,6.2805,6.2805,6.2805,6.2805,6.2805,6.2805,6.2842,6.2989,6.3135,6.3025,6.3099,6.2615,6.2059,6.2386,6.2299,6.1446,6.1389,6.132,6.1397,6.1392,6.1242,6.104,6.1478,6.1444,6.0883,6.1197,6.1772,6.2178,6.2347,6.2415,6.2415,6.2415,6.2415,6.2415,6.2415,6.2415,6.2415,6.2415,6.2415,6.2415,6.2415,6.2516,6.2685,6.2685,6.2922,6.3599,6.3869,6.441,6.5324,6.5797,6.6203,6.6576,6.6914,6.7083,6.7049,6.7658,6.8402,6.918,6.9857,7.05,7.1109,7.1312,7.1312,7.1312,7.1379,7.1684,7.2293,7.2766,7.3172,7.3578,7.368,7.3781,7.3747,7.3849,7.4289,7.4559,7.4897,7.5033,7.5371,7.5473,7.5676,7.5676,7.5676,7.5676,7.5676,7.5676,7.5743,7.585,7.5998,7.6107,7.5911,7.5592,7.4857,7.3562,7.2798,7.2078,7.1473,7.1018,7.0919,6.2805,6.2805,6.2805,6.2805,6.2805,6.2805,6.2805,6.2805,6.2805,6.2805,6.2805,6.2805,6.2805,6.2805,6.2805,6.2805,6.2805,6.2805,6.2805,6.2805,6.2842,6.2842,6.3062,6.3466,6.3796,6.3906,6.3804,6.3094,6.2295,6.2785,6.2355,6.0945,6.1155,6.1463,6.1428,6.1325,6.1639,6.1714,6.2047,6.197,6.1917,6.1975,6.2144,6.2415,6.2415,6.2415,6.2415,6.2415,6.2415,6.2415,6.2415,6.2415,6.2415,6.2415,6.2415,6.2415,6.2415,6.2584,6.3091,6.3294,6.37,6.4343,6.485,6.5222,6.5764,6.6237,6.6542,6.6846,6.732,6.7692,6.776,6.8402,6.9147,6.9789,7.0161,7.0534,7.1109,7.1312,7.1379,7.1447,7.1515,7.1751,7.2529,7.324,7.3747,7.4289,7.4695,7.4796,7.483,7.4931,7.5202,7.5405,7.554,7.5574,7.5642,7.5642,7.5676,7.5676,7.5676,7.5676,7.5676,7.5676,7.5715,7.5598,7.5506,7.5521,7.5212,7.4701,7.3934,7.2953,7.2048,7.1247,7.1148,7.0919,7.0919,6.2805,6.2805,6.2805,6.2805,6.2805,6.2805,6.2805,6.2805,6.2805,6.2805,6.2805,6.2805,6.2805,6.2805,6.2805,6.2805,6.2805,6.2805,6.2805,6.2805,6.2842,6.3099,6.3429,6.3943,6.4347,6.461,6.4548,6.3733,6.2328,6.2764,6.229,6.1375,6.159,6.1895,6.1902,6.1951,6.2042,6.2381,6.2415,6.2415,6.2415,6.2415,6.2415,6.2415,6.2415,6.2415,6.2415,6.2415,6.2415,6.2415,6.2415,6.2415,6.2415,6.2415,6.2415,6.2415,6.2415,6.2719,6.3362,6.3565,6.4005,6.5019,6.5527,6.5899,6.6203,6.6609,6.6812,6.6981,6.7455,6.7895,6.7895,6.8977,6.9722,7.0128,7.05,7.0906,7.1176,7.1278,7.1515,7.1718,7.165,7.2056,7.3037,7.3713,7.4289,7.4931,7.5574,7.5676,7.5676,7.5676,7.5676,7.5676,7.5676,7.5676,7.5676,7.5676,7.5676,7.5676,7.5484,7.5484,7.5619,7.559,7.5368,7.5105,7.5021,7.4766,7.3948,7.3108,7.2674,7.2238,7.1571,7.1018,7.1018,7.0919,7.0919,6.2805,6.2805,6.2805,6.2805,6.2805,6.2805,6.2805,6.2805,6.2805,6.2805,6.2805,6.2805,6.2805,6.2805,6.2805,6.2805,6.2805,6.2805,6.2915,6.3172,6.3172,6.3539,6.4163,6.4375,6.4725,6.5401,6.4687,6.4162,6.3151,6.2969,6.2369,6.1872,6.2233,6.2473,6.2368,6.2279,6.2381,6.2415,6.2415,6.2415,6.2415,6.2415,6.2415,6.2415,6.2415,6.2415,6.2415,6.2415,6.2415,6.2415,6.2415,6.2415,6.2415,6.2415,6.2415,6.2415,6.2516,6.299,6.3565,6.4038,6.4715,6.5797,6.5899,6.6271,6.6542,6.6779,6.688,6.7083,6.7726,6.8335,6.8707,6.962,7.0297,7.0534,7.0939,7.1312,7.1345,7.1515,7.1887,7.1954,7.1819,7.2496,7.3612,7.3984,7.4559,7.5067,7.5676,7.5676,7.5676,7.5676,7.5676,7.5676,7.5676,7.5676,7.5676,7.5676,7.5676,7.5676,7.5258,7.4932,7.5234,7.5502,7.5004,7.4235,7.3609,7.3195,7.2394,7.1752,7.1378,7.1208,7.0998,7.0889,7.0889,7.0919,7.0919,6.2805,6.2805,6.2805,6.2805,6.2805,6.2805,6.2805,6.2805,6.2805,6.2805,6.2805,6.2805,6.2805,6.2805,6.2805,6.2805,6.2842,6.2952,6.3282,6.3723,6.3906,6.4383,6.505,6.5037,6.5405,6.575,6.4663,6.3931,6.3477,6.345,6.3009,6.2421,6.2266,6.2436,6.2425,6.2415,6.2415,6.2415,6.2415,6.2415,6.2415,6.2415,6.2415,6.2415,6.2415,6.2415,6.2415,6.2415,6.2415,6.2415,6.2415,6.2415,6.2415,6.2415,6.2415,6.2584,6.299,6.37,6.4343,6.485,6.5493,6.6305,6.6576,6.6711,6.6812,6.6948,6.7151,6.776,6.847,6.9113,6.9654,7.0567,7.1041,7.1109,7.1176,7.1345,7.1413,7.1819,7.2191,7.28,7.2834,7.3477,7.439,7.4559,7.4762,7.5303,7.5676,7.5676,7.5676,7.5676,7.5676,7.5676,7.5676,7.5676,7.5676,7.5676,7.5388,7.5484,7.4932,7.434,7.4303,7.4328,7.3793,7.3067,7.2503,7.2002,7.1409,7.089,7.0441,7.0419,7.0709,7.0859,7.0919,7.0919,7.0919,6.3686,6.2805,6.2805,6.2805,6.2805,6.2805,6.2805,6.2805,6.2805,6.2805,6.2805,6.2805,6.2805,6.2805,6.2805,6.2805,6.2915,6.3282,6.3686,6.4237,6.4604,6.5228,6.5657,6.5436,6.5612,6.5803,6.4756,6.3797,6.3587,6.3186,6.2736,6.2537,6.2415,6.2425,6.2415,6.2415,6.2415,6.2415,6.2415,6.2415,6.2415,6.2415,6.2415,6.2415,6.2415,6.2415,6.2415,6.2415,6.2415,6.2415,6.2415,6.2415,6.2415,6.2448,6.2516,6.3125,6.3734,6.4241,6.4613,6.529,6.6034,6.6576,6.6812,6.6812,6.688,6.7184,6.7489,6.7861,6.9045,6.9789,7.0229,7.0872,7.1176,7.1312,7.1379,7.165,7.1819,7.2124,7.2563,7.324,7.3916,7.4458,7.483,7.483,7.4965,7.5405,7.5676,7.5676,7.5676,7.5676,7.5676,7.5676,7.5676,7.5676,7.5676,7.5676,7.4736,7.4539,7.4206,7.3632,7.3103,7.2778,7.2348,7.2296,7.2175,7.1529,7.077,7.0391,7.0277,7.0509,7.0739,7.0829,7.0919,7.0919,7.0919,6.4751,6.3429,6.3209,6.3135,6.3099,6.2915,6.2805,6.2805,6.2805,6.2805,6.2805,6.2805,6.2805,6.2805,6.2842,6.2952,6.3209,6.3833,6.4347,6.4787,6.5338,6.6035,6.619,6.5866,6.5514,6.6344,6.4218,6.3539,6.3427,6.3007,6.2459,6.2415,6.2415,6.2415,6.2415,6.2415,6.2415,6.2415,6.2415,6.2415,6.2415,6.2415,6.2415,6.2415,6.2415,6.2415,6.2415,6.2415,6.2415,6.2415,6.2415,6.2415,6.2415,6.2415,6.2753,6.3362,6.4072,6.4647,6.5053,6.5628,6.6203,6.6609,6.6812,6.6812,6.6914,6.7455,6.8098,6.8267,6.935,7.0094,7.0534,7.1041,7.121,7.1413,7.1515,7.1921,7.236,7.2834,7.3274,7.3883,7.4492,7.4999,7.5236,7.5067,7.5202,7.5574,7.5676,7.5676,7.5676,7.5676,7.558,7.558,7.503,7.4932,7.4835,7.4736,7.4106,7.3464,7.3018,7.2632,7.2046,7.16,7.1097,7.1247,7.1594,7.1321,7.0658,7.0307,7.0111,7.032,7.053,7.0799,7.0919,7.0919,7.0919,6.5925,6.5081,6.431,6.398,6.3906,6.3135,6.2842,6.2805,6.2805,6.2842,6.2952,6.2879,6.2952,6.2879,6.3025,6.3319,6.3943,6.4053,6.4971,6.5852,6.6439,6.6843,6.6755,6.6115,6.5347,6.5681,6.39,6.3199,6.3314,6.2779,6.2459,6.2415,6.2415,6.2415,6.2415,6.2415,6.2415,6.2415,6.2415,6.2415,6.2415,6.2415,6.2415,6.2415,6.2415,6.2415,6.2415,6.2415,6.2415,6.2415,6.2415,6.2415,6.2415,6.255,6.2956,6.3666,6.4377,6.5019,6.5595,6.6136,6.6609,6.6812,6.6812,6.688,6.7049,6.7557,6.8199,6.8977,6.9891,7.05,7.0939,7.1278,7.1312,7.1447,7.1718,7.2225,7.2868,7.3747,7.4187,7.4627,7.5033,7.5405,7.554,7.5371,7.5337,7.5642,7.5676,7.5676,7.5676,7.5676,7.5484,7.5258,7.4306,7.3871,7.3566,7.3121,7.2599,7.1821,7.1169,7.1059,7.0902,7.0495,6.9852,7.0465,7.077,7.0688,7.0689,7.044,7.032,7.0231,7.038,7.0739,7.0919,7.0919,7.0919,6.7063,6.6659,6.5411,6.4567,6.4053,6.3723,6.3319,6.2879,6.2805,6.3135,6.3613,6.3613,6.3613,6.3613,6.3613,6.3759,6.4237,6.5228,6.5888,6.6476,6.6953,6.7357,6.7045,6.6053,6.5196,6.5035,6.3427,6.2459,6.2702,6.2537,6.2459,6.2415,6.2415,6.2415,6.2415,6.2415,6.2415,6.2415,6.2415,6.2415,6.2415,6.2415,6.2415,6.2415,6.2415,6.2415,6.2415,6.2415,6.2415,6.2415,6.2415,6.2415,6.2516,6.2787,6.3362,6.4072,6.4783,6.5527,6.617,6.6643,6.6812,6.6812,6.6846,6.7015,6.7455,6.8199,6.8944,6.9722,7.0398,7.1007,7.1176,7.1312,7.1345,7.1515,7.1921,7.2529,7.324,7.4119,7.4796,7.51,7.5337,7.5608,7.5676,7.5642,7.5642,7.5676,7.5676,7.5676,7.5484,7.5258,7.5064,7.4306,7.3328,7.2802,7.2379,7.1669,7.0981,7.0231,6.9495,6.9463,6.9557,6.9145,6.8816,6.945,7.0209,7.0367,7.05,7.059,7.059,7.053,7.062,7.0829,7.0919,7.0919,7.0919,6.754,6.721,6.6109,6.5191,6.4457,6.3906,6.3356,6.2952,6.3135,6.3649,6.442,6.4457,6.4457,6.4457,6.4457,6.4677,6.5118,6.5888,6.6279,6.6792,6.7195,6.7305,6.6605,6.5743,6.4866,6.4357,6.3314,6.2459,6.2459,6.2381,6.2415,6.2415,6.2415,6.2415,6.2415,6.2415,6.2415,6.2415,6.2415,6.2415,6.2415,6.2415,6.2415,6.2415,6.2415,6.2415,6.2415,6.2415,6.2415,6.2415,6.2415,6.2415,6.2651,6.3091,6.3835,6.4546,6.529,6.6034,6.6576,6.6812,6.6948,6.7184,6.7218,6.759,6.8199,6.8977,6.9654,7.006,7.0804,7.1312,7.1312,7.1312,7.1312,7.1447,7.2428,7.3071,7.3612,7.4356,7.4999,7.554,7.5676,7.5676,7.5676,7.5676,7.558,7.558,7.5709,7.5388,7.4638,7.4406,7.4073,7.3225,7.2143,7.1657,7.1124,7.0349,6.9666,6.9376,6.8664,6.8211,6.8092,6.7871,6.8226,6.9106,6.9766,7.0171,7.053,7.0709,7.0799,7.0859,7.0919,7.0919,7.0919,7.0919,7.0919,6.7247,6.6549,6.6439,6.5925,6.4971,6.3539,6.2915,6.3099,6.3833,6.4567,6.5264,6.5301,6.5301,6.5301,6.5264,6.5558,6.5983,6.6333,6.6464,6.6598,6.6858,6.6487,6.5743,6.4933,6.4495,6.3719,6.2855,6.2415,6.2415,6.2415,6.2415,6.2415,6.2415,6.2415,6.2415,6.2415,6.2415,6.2415,6.2415,6.2415,6.2415,6.2415,6.2415,6.2415,6.2415,6.2415,6.2415,6.2415,6.2415,6.2415,6.2415,6.2415,6.2482,6.3226,6.3937,6.458,6.5358,6.6068,6.6711,6.6812,6.7184,6.7624,6.7624,6.8098,6.8944,6.9654,7.0161,7.0466,7.0939,7.1278,7.1312,7.1312,7.1312,7.1785,7.2732,7.351,7.4018,7.4661,7.5337,7.5642,7.5676,7.5676,7.5676,7.558,7.5484,7.5484,7.5614,7.5064,7.4106,7.3361,7.2914,7.2036,7.0838,7.0293,6.9627,6.8819,6.8238,6.8144,6.8144,6.7994,6.7934,6.8111,6.8465,6.8974,6.9542,7.0171,7.056,7.0889,7.0919,7.0919,7.0919,7.0919,7.0919,7.0919,7.0919,6.721,6.6439,6.5925,6.5228,6.4457,6.3906,6.3649,6.3906,6.5007,6.5852,6.6035,6.6109,6.6109,6.6072,6.6056,6.6239,6.6406,6.6494,6.6415,6.6332,6.6211,6.5681,6.4933,6.4357,6.3971,6.3574,6.2855,6.2415,6.2415,6.2415,6.2415,6.2415,6.2415,6.2415,6.2415,6.2415,6.2415,6.2415,6.2415,6.2415,6.2415,6.2415,6.2415,6.2415,6.2415,6.2415,6.2415,6.2415,6.2415,6.2415,6.2415,6.2415,6.2651,6.3396,6.4275,6.485,6.5595,6.6474,6.6914,6.7184,6.759,6.7861,6.8098,6.8605,6.962,6.9992,7.0398,7.0804,7.1075,7.1312,7.1312,7.1312,7.1481,7.2124,7.2969,7.3713,7.4322,7.5067,7.5676,7.5676,7.5676,7.4835,7.4505,7.4505,7.4406,7.3871,7.377,7.3972,7.3328,7.2388,7.1605,7.0616,6.9662,6.8858,6.8182,6.8057,6.8171,6.826,6.85,6.874,6.8555,6.8465,6.8884,6.9482,6.9812,7.0141,7.056,7.0919,7.0919,7.0919,7.0919,7.0919,7.0919,7.0919,7.0919,6.6806,6.5999,6.5228,6.4604,6.4127,6.409,6.4347,6.5007,6.6072,6.6623,6.6843,6.6916,6.6916,6.6826,6.6573,6.6464,6.6389,6.6019,6.559,6.5526,6.5261,6.4597,6.4078,6.3829,6.3574,6.3165,6.2779,6.2415,6.2415,6.2415,6.2415,6.2415,6.2415,6.2415,6.2415,6.2415,6.2415,6.2415,6.2415,6.2415,6.2415,6.2415,6.2415,6.2415,6.2415,6.2415,6.2415,6.2415,6.2415,6.2415,6.2415,6.2415,6.2821,6.3632,6.4512,6.4986,6.5899,6.6643,6.6948,6.7489,6.7895,6.8368,6.8504,6.9282,7.0263,7.0601,7.0838,7.1142,7.1278,7.1312,7.1312,7.1345,7.158,7.2254,7.2586,7.329,7.3599,7.4302,7.4835,7.4932,7.4406,7.377,7.3121,7.3225,7.3225,7.2461,7.1821,7.2036,7.2249,7.1278,7.0199,6.9317,6.8592,6.8181,6.797,6.7964,6.8046,6.8286,6.8675,6.9093,6.9123,6.9004,6.9482,6.9931,7.0231,7.05,7.0709,7.0919,7.0919,7.0919,7.0919,7.0919,7.0919,7.0919,7.0919,6.5966,6.5212,6.4442,6.4149,6.4075,6.4171,6.4977,6.6349,6.6459,6.6846,6.7506,6.7323,6.714,6.7213,6.6664,6.6295,6.6042,6.5326,6.47,6.4253,6.4357,6.3647,6.3314,6.3199,6.3049,6.2659,6.2415,6.2415,6.2415,6.2415,6.2415,6.2415,6.2415,6.2415,6.2415,6.2415,6.2415,6.2415,6.2415,6.2415,6.2415,6.2415,6.2415,6.2415,6.2415,6.2415,6.2415,6.2415,6.2415,6.2415,6.2415,6.2415,6.2888,6.3835,6.4343,6.5087,6.6203,6.6609,6.6948,6.7523,6.7974,6.8493,6.9389,7.0377,7.085,7.0895,7.0872,7.112,7.1312,7.1312,7.1312,7.1387,7.1486,7.1679,7.1788,7.2082,7.2273,7.2835,7.3332,7.3328,7.2599,7.2068,7.1605,7.1605,7.1929,7.0727,7.0086,6.9941,7.0055,6.9745,6.8766,6.7998,6.7547,6.7514,6.7508,6.7717,6.8226,6.8555,6.8944,6.9333,6.9363,6.9602,6.9991,7.035,7.062,7.0829,7.0889,7.0919,7.0919,7.0919,7.0919,7.0919,7.0919,7.0919,7.0919,6.4956,6.4302,6.4621,6.4452,6.4054,6.4561,6.5125,6.5561,6.6084,6.6283,6.5806,6.5806,6.593,6.5743,6.549,6.5426,6.5065,6.4564,6.4113,6.3757,6.3427,6.2931,6.2659,6.2659,6.2581,6.2537,6.2415,6.2415,6.2415,6.2415,6.2415,6.2415,6.2415,6.2415,6.2415,6.2415,6.2415,6.2415,6.2415,6.2415,6.2415,6.2415,6.2415,6.2415,6.2415,6.2415,6.2415,6.2415,6.2415,6.2415,6.2415,6.255,6.3294,6.414,6.485,6.6102,6.6643,6.6846,6.7015,6.7996,6.8425,6.8078,6.8666,7.0046,7.0632,7.0482,7.0263,7.0482,7.0699,7.0574,7.053,7.0681,7.0697,7.0662,7.0766,7.0994,7.1135,7.1284,7.1821,7.1605,7.0949,7.0727,7.0312,7.0536,7.0616,6.9317,6.8531,6.8295,6.8206,6.8087,6.7879,6.7213,6.7029,6.7178,6.7358,6.7537,6.8226,6.8824,6.9153,6.9632,7.0141,7.038,7.056,7.0679,7.0799,7.0859,7.0889,7.0919,7.0919,7.0919,7.0919,7.0919,7.0919,7.0919,7.0919,6.4226,6.3831,6.4019,6.3954,6.4026,6.4731,6.4867,6.4785,6.5502,6.549,6.5065,6.5065,6.4999,6.4999,6.4665,6.446,6.4427,6.3647,6.3124,6.2973,6.2659,6.2537,6.2415,6.2415,6.2459,6.2415,6.2415,6.2415,6.2415,6.2415,6.2415,6.2415,6.2415,6.2415,6.2415,6.2415,6.2415,6.2415,6.2415,6.2415,6.2415,6.2415,6.2415,6.2415,6.2415,6.2415,6.2415,6.2415,6.2415,6.2415,6.2415,6.2753,6.3565,6.4444,6.5425,6.6542,6.6779,6.6812,6.6965,6.7523,6.7521,6.7311,6.7329,6.8078,6.8797,6.883,6.8927,6.9121,6.9346,6.9637,6.9678,6.978,6.9668,6.9527,6.9829,7.003,6.9947,6.9797,6.9745,6.9745,6.9516,6.9432,6.9432,6.9631,6.9432,6.8325,6.7638,6.7638,6.7548,6.7427,6.7305,6.7091,6.6999,6.7059,6.7208,6.7448,6.8076,6.8675,6.9064,6.9632,7.053,7.0889,7.0799,7.0799,7.0889,7.0919,7.0919,7.0919,7.0919,7.0919,7.0919,7.0919,7.0919,7.0919,7.0919,6.3604,6.3502,6.2964,6.3211,6.3842,6.4548,6.4356,6.3684,6.4391,6.4732,6.4665,6.4732,6.4597,6.4288,6.39,6.3647,6.3427,6.2897,6.2659,6.2459,6.2459,6.2415,6.2415,6.2415,6.2415,6.2415,6.2415,6.2415,6.2415,6.2415,6.2415,6.2415,6.2415,6.2415,6.2415,6.2415,6.2415,6.2415,6.2415,6.2415,6.2415,6.2415,6.2415,6.2415,6.2415,6.2415,6.2415,6.2415,6.2415,6.2415,6.2482,6.2787,6.3559,6.4656,6.5783,6.5847,6.5942,6.5855,6.6046,6.6469,6.6565,6.6193,6.5821,6.6143,6.6574,6.7164,6.7368,6.7974,6.8306,6.8306,6.8366,6.8595,6.8595,6.8516,6.857,6.8767,6.876,6.8531,6.8325,6.8325,6.8531,6.8325,6.8087,6.8325,6.8444,6.7335,6.7091,6.7091,6.7091,6.6999,6.6999,6.6999,6.6999,6.6999,6.7119,6.7418,6.7926,6.8465,6.8974,6.9692,7.0649,7.0889,7.0919,7.0919,7.0919,7.0919,7.0919,7.0919,7.0919,7.0919,7.0919,7.0919,7.0919,7.0919,7.0919,6.1879,6.1987,6.2991,6.3554,6.3728,6.3973,6.3501,6.2736,6.2931,6.3124,6.3049,6.3049,6.309,6.3199,6.2973,6.2855,6.2659,6.2581,6.2459,6.2381,6.2415,6.2415,6.2415,6.2415,6.2415,6.2415,6.2415,6.2415,6.2415,6.2415,6.2415,6.2415,6.2415,6.2415,6.2415,6.2415,6.2415,6.2415,6.2415,6.2415,6.2415,6.2415,6.2415,6.2415,6.2415,6.2415,6.2415,6.2415,6.2415,6.2415,6.2415,6.2542,6.2927,6.432,6.4515,6.4105,6.423,6.4322,6.4496,6.493,6.5058,6.476,6.444,6.4364,6.4703,6.5219,6.5941,6.6647,6.7061,6.6958,6.7069,6.7306,6.7554,6.7434,6.7352,6.7573,6.7638,6.7305,6.6999,6.7213,6.7427,6.7335,6.7091,6.6999,6.6999,6.6999,6.6999,6.6999,6.7091,6.6999,6.6999,6.6999,6.6999,6.7029,6.7089,6.7448,6.8016,6.8704,6.9303,7.0021,7.0769,7.0859,7.0919,7.0919,7.0919,7.0919,7.0919,7.0919,7.0919,7.0919,7.0919,7.0919,7.0919,7.0919,7.0919,6.1298,6.1477,6.2624,6.3124,6.3124,6.3124,6.2855,6.2459,6.2415,6.2415,6.2415,6.2415,6.2415,6.2415,6.2415,6.2415,6.2415,6.2415,6.2415,6.2415,6.2415,6.2415,6.2415,6.2415,6.2415,6.2415,6.2415,6.2415,6.2415,6.2415,6.2415,6.2415,6.2415,6.2415,6.2415,6.2415,6.2415,6.2415,6.2415,6.2415,6.2415,6.2415,6.2415,6.2415,6.2415,6.2415,6.2415,6.2415,6.2415,6.2447,6.2508,6.2849,6.3188,6.3792,6.3635,6.3355,6.3164,6.3004,6.313,6.3241,6.3618,6.3344,6.3159,6.3243,6.3676,6.4209,6.4209,6.4813,6.4923,6.4844,6.5183,6.5452,6.5979,6.6092,6.6702,6.7185,6.7213,6.7091,6.6999,6.7091,6.7213,6.7213,6.6999,6.6999,6.6999,6.6999,6.6999,6.6999,6.6999,6.6999,6.6999,6.6999,6.6999,6.6999,6.7029,6.7508,6.8166,6.8854,6.9572,7.0171,7.0739,7.0829,7.0919,7.0919,7.0919,7.0919,7.0919,7.0919,7.0919,7.0919,7.0919,7.0919,7.0919,7.0919,7.0919,6.1095,6.14,6.1975,6.2313,6.2415,6.2381,6.2381,6.2415,6.2415,6.2415,6.2415,6.2415,6.2415,6.2415,6.2415,6.2415,6.2415,6.2415,6.2415,6.2415,6.2415,6.2415,6.2415,6.2415,6.2415,6.2415,6.2415,6.2415,6.2415,6.2415,6.2415,6.2415,6.2415,6.2415,6.2415,6.2415,6.2415,6.2415,6.2415,6.2415,6.2415,6.2415,6.2415,6.2415,6.2415,6.2415,6.2415,6.2415,6.2415,6.2455,6.2549,6.2497,6.2561,6.2588,6.2426,6.2126,6.1828,6.1927,6.2085,6.1836,6.2236,6.235,6.2203,6.2415,6.2839,6.3194,6.3309,6.3309,6.3279,6.3399,6.373,6.427,6.4753,6.5353,6.6161,6.6969,6.6999,6.6999,6.6999,6.6999,6.6999,6.6999,6.6999,6.6999,6.6999,6.6999,6.6999,6.6999,6.6999,6.6999,6.6999,6.6999,6.6999,6.6999,6.6999,6.7747,6.8465,6.9004,6.9692,7.026,7.0709,7.0829,7.0919,7.0919,7.0919,7.0919,7.0919,7.0919,7.0919,7.0919,7.0919,7.0919,7.0919,7.0919,7.0919,6.0182,6.1332,6.1467,6.1839,6.2313,6.2381,6.2415,6.2415,6.2415,6.2415,6.2415,6.2415,6.2415,6.2415,6.2415,6.2415,6.2415,6.2415,6.2415,6.2415,6.2415,6.2415,6.2415,6.2415,6.2415,6.2415,6.2415,6.2415,6.2415,6.2415,6.2415,6.2415,6.2415,6.2415,6.2415,6.2415,6.2415,6.2415,6.2415,6.2415,6.2415,6.2415,6.2415,6.2415,6.2415,6.2415,6.2415,6.2415,6.2415,6.2468,6.2396,6.1795,6.1567,6.132,6.1029,6.0671,6.0463,6.0359,6.0394,6.0548,6.091,6.1619,6.1672,6.2271,6.275,6.3079,6.3194,6.3194,6.3194,6.3194,6.3554,6.4363,6.4904,6.5443,6.6191,6.6729,6.6999,6.6999,6.6999,6.6999,6.6999,6.6999,6.6999,6.6999,6.6999,6.6999,6.6999,6.6999,6.6999,6.6999,6.6999,6.6999,6.6999,6.6999,6.7029,6.8106,6.8884,6.9333,6.9812,7.044,7.0799,7.0859,7.0919,7.0919,7.0919,7.0919,7.0919,7.0919,7.0919,7.0919,7.0919,7.0919,7.0919,7.0919,7.0919]},{"header":{"parameterUnit":"m.s-1","parameterCategory":1,"la1":31.0,"la2":29.5877,"lo1":-88.7671,"lo2":-86.6584,"dy":0.0162,"dx":0.0185,"nx":115,"ny":88,"refTime":"2024-08-04T12:00:00:Z","depth":0,"parameterNumber":3,"parameterNumberName":"V-component_of_WINDS"},"data":[0.0,0.0,0.0,0.0,0.0,0.0,0.0,0.0,0.0,0.0,0.0,0.0,0.0,0.0,0.0,0.0,0.0,0.0,0.0,0.0,0.0,0.0,0.0,0.0,0.0,0.0,0.0,0.0,0.0,0.0,0.0,0.0,0.0,0.0,0.0,0.0,0.0,0.0,0.0,0.0,0.0,0.0,0.0,0.0,0.0,0.0,0.0,0.0,0.0,0.0,0.0,0.0,0.0,0.0,0.0,0.0,0.0,0.0,0.0,0.0,0.0,0.0,0.0,0.0,0.0,0.0,0.0,0.0,0.0,0.0,0.0,0.0,0.0,0.0,0.0,0.0,0.0,0.0,0.0,0.0,0.0,0.0,0.0,0.0,0.0,0.0,0.0,0.0,0.0,0.0,0.0,0.0,0.0,0.0,0.0,0.0,0.0,0.0,0.0,0.0,0.0,0.0,0.0,0.0,0.0,0.0,0.0,0.0,0.0,0.0,0.0,0.0,0.0,0.0,0.0,0.0,0.0,0.0,0.0,0.0,0.0,0.0,0.0,0.0,0.0,0.0,0.0,0.0,0.0,0.0,0.0,0.0,0.0,0.0,0.0,0.0,0.0,0.0,0.0,0.0,0.0,0.0,0.0,0.0,0.0,0.0,0.0,0.0,0.0,0.0,0.0,0.0,0.0,0.0,0.0,0.0,0.0,0.0,0.0,0.0,0.0,0.0,0.0,0.0,0.0,0.0,0.0,0.0,0.0,0.0,0.0,0.0,0.0,0.0,0.0,0.0,0.0,0.0,0.0,0.0,0.0,0.0,0.0,0.0,0.0,0.0,0.0,0.0,0.0,0.0,0.0,0.0,0.0,0.0,0.0,0.0,0.0,0.0,0.0,0.0,0.0,0.0,0.0,0.0,0.0,0.0,0.0,0.0,0.0,0.0,0.0,0.0,0.0,0.0,0.0,0.0,0.0,0.0,0.0,0.0,0.0,0.0,0.0,0.0,0.0,0.0,0.0,0.0,0.0,0.0,0.0,0.0,0.0,0.0,0.0,0.0,0.0,0.0,0.0,0.0,0.0,0.0,0.0,0.0,0.0,0.0,0.0,0.0,0.0,0.0,0.0,0.0,0.0,0.0,0.0,0.0,0.0,0.0,0.0,0.0,0.0,0.0,0.0,0.0,0.0,0.0,0.0,0.0,0.0,0.0,0.0,0.0,0.0,0.0,0.0,0.0,0.0,0.0,0.0,0.0,0.0,0.0,0.0,0.0,0.0,0.0,0.0,0.0,0.0,0.0,0.0,0.0,0.0,0.0,0.0,0.0,0.0,0.0,0.0,0.0,0.0,0.0,0.0,0.0,0.0,0.0,0.0,0.0,0.0,0.0,0.0,0.0,0.0,0.0,0.0,0.0,0.0,0.0,0.0,0.0,0.0,0.0,0.0,0.0,0.0,0.0,0.0,0.0,0.0,0.0,0.0,0.0,0.0,0.0,0.0,0.0,0.0,0.0,0.0,0.0,0.0,0.0,0.0,0.0,0.0,0.0,0.0,0.0,0.0,0.0,0.0,0.0,0.0,0.0,0.0,0.0,0.0,0.0,0.0,0.0,0.0,0.0,0.0,0.0,0.0,0.0,0.0,0.0,0.0,0.0,0.0,0.0,0.0,0.0,0.0,0.0,0.0,0.0,0.0,0.0,0.0,0.0,0.0,0.0,0.0,0.0,0.0,0.0,0.0,0.0,0.0,0.0,0.0,0.0,0.0,0.0,0.0,0.0,0.0,0.0,0.0,0.0,0.0,0.0,0.0,0.0,0.0,0.0,0.0,0.0,0.0,0.0,0.0,0.0,0.0,0.0,0.0,0.0,0.0,0.0,0.0,0.0,0.0,0.0,0.0,0.0,0.0,0.0,0.0,0.0,0.0,0.0,0.0,0.0,0.0,0.0,0.0,0.0,0.0,0.0,0.0,0.0,0.0,0.0,0.0,0.0,0.0,0.0,0.0,0.0,0.0,0.0,0.0,0.0,0.0,0.0,0.0,0.0,0.0,0.0,0.0,0.0,0.0,0.0,0.0,0.0,0.0,0.0,0.0,0.0,0.0,0.0,0.0,0.0,0.0,0.0,0.0,0.0,0.0,0.0,0.0,0.0,0.0,0.0,0.0,0.0,0.0,0.0,0.0,0.0,0.0,0.0,0.0,0.0,0.0,0.0,0.0,0.0,0.0,0.0,0.0,0.0,0.0,0.0,0.0,0.0,0.0,0.0,0.0,0.0,0.0,0.0,0.0,0.0,0.0,0.0,0.0,0.0,0.0,0.0,0.0,0.0,0.0,0.0,0.0,0.0,0.0,0.0,0.0,0.0,0.0,0.0,0.0,0.0,0.0,0.0,0.0,0.0,0.0,0.0,0.0,0.0,0.0,0.0,0.0,0.0,0.0,0.0,0.0,0.0,0.0,0.0,0.0,0.0,0.0,0.0,0.0,0.0,0.0,0.0,0.0,0.0,0.0,0.0,0.0,0.0,0.0,0.0,0.0,0.0,0.0,0.0,0.0,0.0,0.0,0.0,0.0,0.0,0.0,0.0,0.0,0.0,0.0,0.0,0.0,0.0,0.0,0.0,0.0,0.0,0.0,0.0,0.0,0.0,0.0,0.0,0.0,0.0,0.0,0.0,0.0,0.0,0.0,0.0,0.0,0.0,0.0,0.0,0.0,0.0,0.0,0.0,0.0,0.0,0.0,0.0,0.0,0.0,0.0,0.0,0.0,0.0,0.0,0.0,0.0,0.0,0.0,0.0,0.0,0.0,0.0,0.0,0.0,0.0,0.0,0.0,0.0,0.0,0.0,0.0,0.0,0.0,0.0,0.0,0.0,0.0,0.0,0.0,0.0,0.0,0.0,0.0,0.0,0.0,0.0,0.0,0.0,0.0,0.0,0.0,0.0,0.0,0.0,0.0,0.0,0.0,0.0,0.0,0.0,0.0,0.0,0.0,0.0,0.0,0.0,0.0,0.0,0.0,0.0,0.0,0.0,0.0,0.0,0.0,0.0,0.0,0.0,0.0,0.0,0.0,0.0,0.0,0.0,0.0,0.0,0.0,0.0,0.0,0.0,0.0,0.0,0.0,0.0,0.0,0.0,0.0,0.0,0.0,0.0,0.0,0.0,0.0,0.0,0.0,0.0,0.0,0.0,0.0,0.0,0.0,0.0,0.0,0.0,0.0,0.0,0.0,0.0,0.0,0.0,0.0,0.0,0.0,0.0,0.0,0.0,0.0,0.0,0.0,0.0,0.0,0.0,0.0,0.0,0.0,0.0,0.0,0.0,0.0,0.0,0.0,0.0,0.0,0.0,0.0,0.0,0.0,0.0,0.0,0.0,0.0,0.0,0.0,0.0,0.0,0.0,0.0,0.0,0.0,0.0,0.0,0.0,0.0,0.0,0.0,0.0,0.0,0.0,0.0,0.0,0.0,0.0,0.0,0.0,0.0,0.0,0.0,0.0,0.0,0.0,0.0,0.0,0.0,0.0,0.0,0.0,0.0,0.0,0.0,0.0,0.0,0.0,0.0,0.0,0.0,0.0,0.0,0.0,0.0,0.0,0.0,0.0,0.0,0.0,0.0,0.0,0.0,0.0,0.0,0.0,0.0,0.0,0.0,0.0,0.0,0.0,0.0,0.0,0.0,0.0,0.0,0.0,0.0,0.0,0.0,0.0,0.0,0.0,0.0,0.0,0.0,0.0,0.0,0.0,0.0,0.0,0.0,0.0,0.0,0.0,0.0,0.0,0.0,0.0,0.0,0.0,0.0,0.0,0.0,0.0,0.0,0.0,0.0,0.0,0.0,0.0,0.0,0.0,0.0,0.0,0.0,0.0,0.0,0.0,0.0,0.0,0.0,0.0,0.0,0.0,0.0,0.0,0.0,0.0,0.0,0.0,0.0,0.0,0.0,0.0,0.0,0.0,0.0,0.0,0.0,0.0,0.0,0.0,0.0,0.0,0.0,0.0,0.0,0.0,0.0,0.0,0.0,0.0,0.0,0.0,0.0,0.0,0.0,0.0,0.0,0.0,0.0,0.0,0.0,0.0,0.0,0.0,0.0,0.0,0.0,0.0,0.0,0.0,0.0,0.0,0.0,0.0,0.0,0.0,0.0,0.0,0.0,0.0,0.0,0.0,0.0,0.0,0.0,0.0,0.0,0.0,0.0,0.0,0.0,0.0,0.0,0.0,0.0,0.0,0.0,0.0,0.0,0.0,0.0,0.0,0.0,0.0,0.0,0.0,0.0,0.0,0.0,-1.2891,0.0,0.0,0.0,0.0,0.0,0.0,0.0,0.0,0.0,0.0,0.0,0.0,0.0,0.0,0.0,0.0,0.0,0.0,0.0,0.0,0.0,0.0,0.0,0.0,0.0,0.0,0.0,0.0,0.0,0.0,0.0,0.0,0.0,0.0,0.0,0.0,0.0,0.0,0.0,0.0,0.0,0.0,0.0,0.0,0.0,0.0,0.0,0.0,0.0,0.0,0.0,0.0,0.0,0.0,0.0,0.0,0.0,0.0,0.0,0.0,0.0,0.0,0.0,0.0,0.0,0.0,0.0,0.0,0.0,0.0,0.0,0.0,0.0,0.0,0.0,0.0,0.0,0.0,0.0,0.0,0.0,0.0,0.0,0.0,0.0,0.0,0.0,0.0,0.0,0.0,0.0,0.0,0.0,0.0,0.0,0.0,0.0,0.0,0.0,0.0,0.0,0.0,0.0,0.0,0.0,0.0,0.0,0.0,0.0,0.0,-1.251,-1.2871,-1.2147,-1.2098,-1.2871,0.0,0.0,0.0,0.0,0.0,0.0,0.0,0.0,0.0,0.0,0.0,0.0,0.0,0.0,0.0,0.0,0.0,0.0,0.0,0.0,0.0,0.0,0.0,0.0,0.0,0.0,0.0,0.0,0.0,0.0,0.0,0.0,0.0,0.0,0.0,0.0,0.0,0.0,0.0,0.0,0.0,0.0,0.0,0.0,0.0,0.0,0.0,0.0,0.0,0.0,0.0,0.0,0.0,0.0,0.0,0.0,0.0,0.0,0.0,0.0,0.0,0.0,0.0,0.0,0.0,0.0,0.0,0.0,0.0,0.0,0.0,0.0,0.0,0.0,0.0,0.0,0.0,0.0,0.0,0.0,0.0,0.0,0.0,0.0,0.0,0.0,0.0,0.0,0.0,0.0,0.0,0.0,0.0,0.0,0.0,0.0,0.0,0.0,0.0,0.0,0.0,0.0,0.0,0.0,0.0,0.0,0.0,0.0,0.0,0.0,0.0,0.0,-1.1817,-1.1662,-1.2897,0.0,0.0,0.0,0.0,0.0,0.0,0.0,0.0,0.0,0.0,0.0,0.0,0.0,0.0,0.0,0.0,0.0,0.0,0.0,0.0,0.0,0.0,0.0,0.0,0.0,0.0,0.0,0.0,0.0,0.0,0.0,0.0,0.0,0.0,0.0,0.0,0.0,0.0,0.0,0.0,0.0,0.0,0.0,0.0,0.0,0.0,0.0,0.0,0.0,0.0,0.0,0.0,0.0,0.0,0.0,0.0,0.0,0.0,0.0,0.0,0.0,0.0,0.0,0.0,0.0,0.0,0.0,0.0,0.0,0.0,0.0,0.0,0.0,0.0,0.0,0.0,0.0,0.0,0.0,0.0,0.0,0.0,0.0,0.0,0.0,0.0,0.0,0.0,0.0,0.0,0.0,0.0,0.0,0.0,0.0,0.0,0.0,0.0,0.0,0.0,0.0,0.0,0.0,0.0,0.0,0.0,0.0,0.0,0.0,0.0,-1.2389,-1.3662,-1.2626,0.0,-1.3134,0.0,0.0,0.0,0.0,0.0,0.0,0.0,0.0,0.0,0.0,0.0,0.0,0.0,0.0,0.0,0.0,0.0,0.0,0.0,0.0,0.0,0.0,0.0,0.0,0.0,0.0,0.0,0.0,0.0,0.0,0.0,0.0,0.0,0.0,0.0,0.0,0.0,0.0,0.0,0.0,0.0,0.0,0.0,0.0,0.0,0.0,0.0,0.0,0.0,0.0,0.0,0.0,0.0,0.0,0.0,0.0,0.0,0.0,0.0,0.0,0.0,0.0,0.0,0.0,0.0,0.0,0.0,0.0,0.0,0.0,0.0,0.0,0.0,0.0,0.0,0.0,0.0,0.0,0.0,0.0,0.0,0.0,0.0,0.0,0.0,0.0,0.0,0.0,0.0,0.0,0.0,0.0,0.0,0.0,0.0,0.0,0.0,0.0,0.0,0.0,0.0,0.0,0.0,0.0,0.0,0.0,0.0,0.0,0.0,0.0,0.0,-1.4373,-1.3959,-1.3675,0.0,0.0,0.0,0.0,0.0,0.0,0.0,0.0,0.0,0.0,0.0,0.0,0.0,0.0,0.0,0.0,0.0,0.0,0.0,0.0,0.0,0.0,0.0,0.0,0.0,0.0,0.0,0.0,0.0,0.0,0.0,0.0,0.0,0.0,0.0,0.0,0.0,0.0,0.0,0.0,0.0,0.0,0.0,0.0,0.0,0.0,0.0,0.0,0.0,0.0,0.0,0.0,0.0,0.0,0.0,0.0,0.0,0.0,0.0,0.0,0.0,0.0,0.0,0.0,0.0,0.0,0.0,0.0,0.0,0.0,0.0,0.0,0.0,0.0,0.0,0.0,0.0,0.0,0.0,0.0,0.0,0.0,0.0,0.0,0.0,0.0,0.0,0.0,0.0,0.0,0.0,0.0,0.0,0.0,0.0,0.0,0.0,0.0,0.0,0.0,0.0,0.0,0.0,0.0,0.0,0.0,0.0,0.0,0.0,0.0,-1.2615,0.0,-1.3773,-1.3868,-1.3591,-1.3044,0.0,0.0,0.0,0.0,0.0,0.0,0.0,0.0,0.0,0.0,0.0,0.0,0.0,0.0,0.0,0.0,0.0,0.0,0.0,0.0,0.0,0.0,0.0,0.0,0.0,0.0,0.0,0.0,0.0,0.0,0.0,0.0,0.0,0.0,0.0,0.0,0.0,0.0,0.0,0.0,0.0,0.0,0.0,0.0,0.0,0.0,0.0,0.0,0.0,0.0,0.0,0.0,0.0,0.0,0.0,0.0,0.0,0.0,0.0,0.0,0.0,0.0,0.0,0.0,0.0,0.0,0.0,0.0,0.0,0.0,0.0,0.0,0.0,0.0,0.0,0.0,0.0,0.0,0.0,0.0,0.0,0.0,0.0,0.0,0.0,0.0,0.0,0.0,0.0,0.0,0.0,0.0,0.0,0.0,0.0,0.0,0.0,0.0,0.0,0.0,0.0,0.0,0.0,0.0,0.0,0.0,0.0,0.0,0.0,-1.3107,-1.1966,-1.1654,-1.156,-1.1479,0.0,0.0,0.0,0.0,0.0,0.0,0.0,0.0,0.0,0.0,0.0,0.0,0.0,0.0,0.0,0.0,0.0,0.0,0.0,0.0,0.0,0.0,0.0,0.0,0.0,0.0,0.0,0.0,0.0,0.0,0.0,0.0,0.0,0.0,0.0,0.0,0.0,0.0,0.0,0.0,0.0,0.0,0.0,0.0,0.0,0.0,0.0,0.0,0.0,0.0,0.0,0.0,0.0,0.0,0.0,0.0,0.0,0.0,0.0,0.0,0.0,0.0,0.0,0.0,0.0,0.0,0.0,0.0,0.0,0.0,0.0,0.0,0.0,0.0,0.0,0.0,0.0,0.0,0.0,0.0,0.0,0.0,0.0,0.0,0.0,0.0,0.0,0.0,0.0,0.0,0.0,0.0,0.0,0.0,0.0,0.0,0.0,0.0,0.0,0.0,0.0,0.0,0.0,0.0,0.0,0.0,0.0,0.0,0.0,-1.3659,-1.3325,-1.3244,-1.3301,-1.2694,-1.2508,0.0,0.0,0.0,0.0,0.0,0.0,0.0,0.0,0.0,0.0,0.0,0.0,0.0,0.0,0.0,0.0,0.0,0.0,0.0,0.0,0.0,0.0,0.0,0.0,0.0,0.0,0.0,0.0,0.0,0.0,0.0,0.0,0.0,0.0,0.0,0.0,0.0,0.0,0.0,0.0,0.0,0.0,0.0,0.0,0.0,0.0,0.0,0.0,0.0,0.0,0.0,0.0,0.0,0.0,0.0,0.0,0.0,0.0,0.0,0.0,0.0,0.0,0.0,0.0,0.0,0.0,0.0,0.0,0.0,0.0,0.0,0.0,0.0,0.0,0.0,0.0,0.0,0.0,0.0,0.0,0.0,0.0,0.0,0.0,0.0,0.0,0.0,0.0,0.0,0.0,0.0,0.0,0.0,0.0,0.0,0.0,0.0,0.0,0.0,0.0,0.0,0.0,0.0,0.0,0.0,0.0,0.0,0.0,0.0,-1.3059,0.0,-1.3454,0.0,-1.2745,-1.2336,0.0,0.0,0.0,0.0,0.0,0.0,0.0,0.0,0.0,0.0,0.0,0.0,0.0,0.0,0.0,0.0,0.0,0.0,0.0,0.0,0.0,0.0,0.0,0.0,0.0,0.0,0.0,0.0,0.0,0.0,0.0,0.0,0.0,0.0,0.0,0.0,0.0,0.0,0.0,0.0,0.0,0.0,0.0,0.0,0.0,0.0,0.0,0.0,0.0,0.0,0.0,0.0,0.0,0.0,0.0,0.0,0.0,0.0,0.0,0.0,0.0,0.0,0.0,0.0,0.0,0.0,0.0,0.0,0.0,0.0,0.0,0.0,0.0,0.0,0.0,0.0,0.0,0.0,0.0,0.0,0.0,0.0,0.0,0.0,0.0,0.0,0.0,0.0,0.0,0.0,0.0,0.0,0.0,0.0,0.0,0.0,0.0,0.0,0.0,0.0,0.0,0.0,0.0,0.0,0.0,0.0,0.0,0.0,-1.3095,-1.3425,-1.3042,-1.2444,-1.149,-1.1451,-1.0645,0.0,0.0,0.0,0.0,0.0,0.0,0.0,0.0,0.0,0.0,0.0,0.0,0.0,0.0,0.0,0.0,0.0,0.0,0.0,0.0,0.0,0.0,0.0,0.0,0.0,0.0,0.0,0.0,0.0,0.0,0.0,0.0,0.0,0.0,0.0,0.0,0.0,0.0,0.0,0.0,0.0,0.0,0.0,0.0,0.0,0.0,0.0,0.0,0.0,0.0,0.0,0.0,0.0,0.0,0.0,0.0,0.0,0.0,0.0,0.0,0.0,0.0,0.0,0.0,0.0,0.0,0.0,0.0,0.0,0.0,0.0,0.0,0.0,0.0,0.0,0.0,0.0,0.0,0.0,0.0,0.0,0.0,0.0,0.0,0.0,0.0,0.0,0.0,0.0,0.0,0.0,0.0,0.0,0.0,0.0,0.0,0.0,0.0,0.0,0.0,0.0,0.0,0.0,0.0,0.0,0.0,0.0,0.0,0.0,-1.2317,-1.2232,-1.2263,-1.2338,-1.0955,-1.0448,0.0,0.0,0.0,0.0,0.0,0.0,0.0,0.0,0.0,0.0,0.0,0.0,0.0,0.0,0.0,0.0,0.0,0.0,0.0,0.0,0.0,0.0,0.0,0.0,0.0,0.0,0.0,0.0,0.0,0.0,0.0,0.0,0.0,0.0,0.0,0.0,0.0,0.0,0.0,0.0,0.0,0.0,0.0,0.0,0.0,0.0,0.0,0.0,0.0,0.0,0.0,0.0,0.0,0.0,0.0,0.0,0.0,0.0,0.0,0.0,0.0,0.0,0.0,0.0,0.0,0.0,0.0,0.0,0.0,0.0,0.0,0.0,0.0,0.0,0.0,0.0,0.0,0.0,0.0,0.0,0.0,0.0,0.0,0.0,0.0,0.0,0.0,0.0,0.0,0.0,0.0,0.0,0.0,0.0,0.0,0.0,0.0,0.0,0.0,0.0,0.0,0.0,0.0,0.0,0.0,0.0,0.0,0.0,0.0,-1.3284,-1.3595,-1.3568,-1.3066,-1.173,-1.1009,-1.1022,0.0,0.0,0.0,0.0,0.0,0.0,0.0,0.0,0.0,0.0,0.0,0.0,0.0,0.0,0.0,0.0,0.0,0.0,0.0,0.0,0.0,0.0,0.0,0.0,0.0,0.0,0.0,0.0,0.0,0.0,0.0,0.0,0.0,0.0,0.0,0.0,0.0,0.0,0.0,0.0,0.0,0.0,0.0,0.0,0.0,0.0,0.0,0.0,0.0,0.0,0.0,0.0,0.0,0.0,0.0,0.0,0.0,0.0,0.0,0.0,0.0,0.0,0.0,0.0,0.0,0.0,0.0,0.0,0.0,0.0,0.0,0.0,0.0,0.0,0.0,0.0,0.0,0.0,0.0,0.0,0.0,0.0,0.0,0.0,0.0,0.0,0.0,0.0,0.0,0.0,0.0,0.0,0.0,0.0,0.0,0.0,0.0,0.0,0.0,0.0,0.0,0.0,0.0,0.0,0.0,0.0,0.0,0.0,-1.5729,-1.6703,-1.6183,-1.3841,-1.3373,-1.2131,0.0,0.0,0.0,0.0,0.0,0.0,0.0,0.0,0.0,0.0,0.0,0.0,0.0,0.0,0.0,0.0,0.0,0.0,0.0,0.0,0.0,0.0,0.0,0.0,0.0,0.0,0.0,0.0,0.0,0.0,0.0,0.0,0.0,0.0,0.0,0.0,0.0,0.0,0.0,0.0,0.0,0.0,0.0,0.0,0.0,0.0,0.0,0.0,0.0,0.0,0.0,0.0,0.0,0.0,0.0,0.0,0.0,0.0,0.0,0.0,0.0,0.0,0.0,0.0,0.0,0.0,0.0,0.0,0.0,0.0,0.0,0.0,0.0,0.0,0.0,0.0,0.0,0.0,0.0,0.0,0.0,0.0,0.0,0.0,0.0,0.0,0.0,0.0,0.0,0.0,0.0,0.0,0.0,0.0,0.0,0.0,0.0,0.0,0.0,0.0,0.0,0.0,0.0,0.0,0.0,0.0,0.0,0.0,0.0,-1.7022,-1.9368,-1.9011,-1.5685,-1.3814,-1.2585,0.0,0.0,0.0,0.0,0.0,0.0,0.0,0.0,0.0,0.0,0.0,0.0,0.0,0.0,0.0,0.0,0.0,0.0,0.0,0.0,0.0,0.0,0.0,0.0,0.0,0.0,0.0,0.0,0.0,0.0,0.0,0.0,0.0,0.0,0.0,0.0,0.0,0.0,0.0,0.0,0.0,0.0,0.0,0.0,0.0,0.0,0.0,0.0,0.0,0.0,0.0,0.0,0.0,0.0,0.0,0.0,0.0,0.0,0.0,0.0,0.0,0.0,0.0,0.0,0.0,0.0,0.0,0.0,0.0,0.0,0.0,0.0,0.0,0.0,0.0,0.0,0.0,0.0,0.0,0.0,0.0,0.0,0.0,0.0,0.0,0.0,0.0,0.0,0.0,0.0,0.0,0.0,0.0,0.0,0.0,0.0,0.0,0.0,0.0,0.0,0.0,0.0,0.0,0.0,0.0,0.0,0.0,0.0,-1.9225,-1.8277,-2.1172,-2.1046,-1.7499,-1.5337,-1.383,0.0,0.0,0.0,0.0,0.0,0.0,0.0,0.0,0.0,0.0,0.0,0.0,0.0,0.0,0.0,0.0,0.0,0.0,0.0,0.0,0.0,0.0,0.0,0.0,0.0,0.0,0.0,0.0,0.0,0.0,0.0,0.0,0.0,0.0,0.0,0.0,0.0,0.0,0.0,0.0,0.0,0.0,0.0,0.0,0.0,0.0,0.0,0.0,0.0,0.0,0.0,0.0,0.0,0.0,0.0,0.0,0.0,0.0,0.0,0.0,0.0,0.0,0.0,0.0,0.0,0.0,0.0,0.0,0.0,0.0,0.0,0.0,0.0,0.0,0.0,0.0,0.0,0.0,0.0,0.0,0.0,0.0,0.0,0.0,0.0,0.0,0.0,0.0,0.0,0.0,0.0,0.0,0.0,0.0,0.0,0.0,0.0,0.0,0.0,0.0,0.0,0.0,0.0,0.0,0.0,0.0,0.0,0.0,-2.0741,-1.9746,-2.2339,-2.2352,-1.9258,-1.7298,-1.5177,0.0,0.0,0.0,0.0,0.0,0.0,0.0,0.0,0.0,0.0,0.0,0.0,0.0,0.0,0.0,0.0,0.0,0.0,0.0,0.0,0.0,0.0,0.0,0.0,0.0,0.0,0.0,0.0,0.0,0.0,0.0,0.0,0.0,0.0,0.0,0.0,0.0,0.0,0.0,0.0,0.0,0.0,0.0,0.0,0.0,0.0,0.0,0.0,0.0,0.0,0.0,0.0,0.0,0.0,0.0,0.0,0.0,0.0,0.0,0.0,0.0,0.0,0.0,0.0,0.0,0.0,0.0,0.0,0.0,0.0,0.0,0.0,0.0,0.0,0.0,0.0,0.0,0.0,0.0,0.0,0.0,0.0,0.0,0.0,0.0,0.0,0.0,0.0,0.0,0.0,0.0,0.0,0.0,0.0,0.0,0.0,0.0,0.0,0.0,0.0,0.0,0.0,0.0,0.0,0.0,0.0,0.0,0.0,-2.1832,-2.2031,-2.3241,-2.2895,-2.1028,-1.7687,-1.5257,0.0,0.0,0.0,0.0,0.0,0.0,0.0,0.0,0.0,0.0,0.0,0.0,0.0,0.0,0.0,0.0,0.0,0.0,0.0,0.0,0.0,0.0,0.0,0.0,0.0,0.0,0.0,0.0,0.0,0.0,0.0,0.0,0.0,0.0,0.0,0.0,0.0,0.0,0.0,0.0,0.0,0.0,0.0,0.0,0.0,0.0,0.0,0.0,-2.1367,0.0,0.0,0.0,0.0,0.0,0.0,0.0,0.0,0.0,0.0,0.0,0.0,0.0,0.0,0.0,0.0,0.0,0.0,0.0,0.0,0.0,0.0,0.0,0.0,0.0,0.0,0.0,0.0,0.0,0.0,0.0,0.0,0.0,0.0,0.0,0.0,0.0,0.0,0.0,0.0,0.0,0.0,0.0,0.0,0.0,0.0,0.0,0.0,0.0,0.0,0.0,0.0,0.0,0.0,0.0,0.0,0.0,0.0,0.0,-2.2763,-2.3394,-2.3708,-2.3151,-2.1624,-1.8562,-1.6126,0.0,0.0,0.0,0.0,0.0,0.0,0.0,0.0,0.0,0.0,0.0,0.0,0.0,0.0,0.0,0.0,0.0,0.0,0.0,0.0,0.0,0.0,0.0,0.0,0.0,0.0,0.0,0.0,0.0,0.0,0.0,0.0,0.0,0.0,0.0,0.0,0.0,0.0,0.0,0.0,0.0,0.0,0.0,0.0,0.0,0.0,0.0,0.0,0.0,0.0,0.0,0.0,0.0,0.0,0.0,0.0,0.0,0.0,0.0,0.0,0.0,0.0,0.0,0.0,0.0,0.0,0.0,0.0,0.0,0.0,0.0,0.0,0.0,0.0,0.0,0.0,0.0,0.0,0.0,0.0,0.0,0.0,0.0,0.0,0.0,0.0,0.0,0.0,0.0,0.0,0.0,0.0,0.0,0.0,0.0,0.0,0.0,0.0,0.0,0.0,0.0,0.0,0.0,0.0,0.0,0.0,0.0,-2.1699,-2.348,-2.4681,-2.4105,-2.3151,-2.1911,-1.9402,-1.7114,-1.5044,0.0,0.0,0.0,0.0,0.0,0.0,0.0,0.0,0.0,0.0,0.0,0.0,0.0,0.0,0.0,0.0,0.0,0.0,0.0,0.0,0.0,0.0,0.0,0.0,0.0,0.0,0.0,0.0,0.0,0.0,0.0,0.0,0.0,0.0,0.0,0.0,0.0,0.0,-2.2275,-2.2142,0.0,0.0,0.0,0.0,0.0,0.0,0.0,0.0,-2.248,0.0,0.0,0.0,0.0,0.0,0.0,0.0,0.0,0.0,0.0,0.0,0.0,0.0,0.0,0.0,0.0,0.0,0.0,0.0,0.0,0.0,0.0,0.0,0.0,0.0,0.0,0.0,0.0,0.0,0.0,0.0,0.0,0.0,0.0,0.0,0.0,0.0,0.0,0.0,0.0,0.0,0.0,0.0,0.0,0.0,0.0,0.0,0.0,0.0,0.0,0.0,0.0,0.0,0.0,0.0,0.0,-2.1797,-2.2031,-2.3894,-2.741,-2.5064,-2.371,-2.3359,-2.0154,-1.7328,-1.507,0.0,0.0,0.0,0.0,0.0,0.0,0.0,0.0,0.0,0.0,0.0,0.0,0.0,0.0,0.0,0.0,0.0,0.0,0.0,0.0,0.0,0.0,0.0,0.0,0.0,0.0,0.0,0.0,0.0,0.0,0.0,0.0,0.0,0.0,0.0,0.0,0.0,0.0,0.0,-2.3418,-2.3144,0.0,0.0,0.0,0.0,0.0,0.0,0.0,0.0,-2.3477,0.0,0.0,0.0,0.0,0.0,0.0,0.0,0.0,0.0,0.0,0.0,0.0,0.0,0.0,0.0,0.0,0.0,0.0,0.0,0.0,0.0,0.0,0.0,0.0,0.0,0.0,0.0,0.0,0.0,0.0,0.0,0.0,0.0,0.0,0.0,0.0,0.0,0.0,0.0,0.0,0.0,0.0,0.0,0.0,0.0,0.0,0.0,0.0,0.0,0.0,0.0,0.0,0.0,0.0,0.0,-2.1367,-2.3066,-2.5312,-2.8058,-2.5388,-2.3822,-2.3677,-1.9764,-1.6673,0.0,0.0,0.0,0.0,0.0,0.0,0.0,0.0,0.0,0.0,0.0,0.0,0.0,0.0,0.0,0.0,0.0,0.0,0.0,0.0,0.0,0.0,0.0,0.0,0.0,0.0,0.0,0.0,0.0,0.0,0.0,0.0,0.0,0.0,0.0,0.0,0.0,0.0,0.0,0.0,-2.4445,-2.4121,-2.5,0.0,0.0,0.0,0.0,0.0,0.0,-2.4219,-2.4082,0.0,0.0,0.0,0.0,0.0,0.0,0.0,0.0,0.0,0.0,0.0,0.0,0.0,0.0,0.0,0.0,0.0,0.0,0.0,0.0,0.0,0.0,0.0,0.0,0.0,0.0,0.0,0.0,0.0,0.0,0.0,0.0,0.0,0.0,0.0,0.0,0.0,0.0,0.0,0.0,0.0,0.0,0.0,0.0,0.0,0.0,0.0,0.0,0.0,0.0,0.0,0.0,0.0,0.0,0.0,-2.0586,-2.373,-2.619,-2.7611,-2.5168,-2.3599,-2.3343,-1.9121,-1.6072,0.0,0.0,0.0,0.0,0.0,0.0,0.0,0.0,0.0,0.0,0.0,0.0,0.0,0.0,0.0,0.0,0.0,0.0,0.0,0.0,0.0,0.0,0.0,0.0,0.0,0.0,0.0,0.0,0.0,0.0,0.0,0.0,0.0,0.0,0.0,0.0,0.0,0.0,0.0,0.0,0.0,-2.5195,-2.623,-2.5488,0.0,0.0,0.0,0.0,-2.4844,-2.5332,0.0,0.0,0.0,0.0,0.0,0.0,0.0,0.0,0.0,0.0,0.0,0.0,0.0,0.0,0.0,0.0,0.0,0.0,0.0,0.0,0.0,0.0,0.0,0.0,0.0,0.0,0.0,0.0,0.0,0.0,0.0,0.0,0.0,0.0,0.0,0.0,0.0,0.0,0.0,0.0,0.0,0.0,0.0,0.0,0.0,0.0,0.0,0.0,0.0,0.0,0.0,0.0,0.0,0.0,0.0,0.0,-2.0527,-2.2832,-2.4794,-2.6226,-2.471,-2.3151,-2.1896,-1.8823,-1.6286,0.0,0.0,0.0,0.0,0.0,0.0,0.0,0.0,0.0,0.0,0.0,0.0,0.0,0.0,0.0,0.0,0.0,0.0,0.0,0.0,0.0,0.0,0.0,0.0,0.0,0.0,0.0,0.0,0.0,0.0,0.0,0.0,0.0,0.0,0.0,0.0,0.0,0.0,0.0,0.0,0.0,-2.6211,-2.6367,-2.6269,-2.6172,0.0,0.0,-2.7539,-2.8203,-2.9355,0.0,0.0,0.0,0.0,0.0,0.0,0.0,0.0,0.0,0.0,0.0,0.0,0.0,0.0,0.0,0.0,0.0,0.0,0.0,0.0,0.0,0.0,0.0,0.0,0.0,0.0,0.0,0.0,0.0,0.0,0.0,0.0,0.0,0.0,0.0,0.0,0.0,0.0,0.0,0.0,0.0,0.0,0.0,0.0,0.0,0.0,0.0,0.0,0.0,0.0,0.0,0.0,0.0,0.0,0.0,-1.8535,-2.0605,-2.3906,-2.5743,-2.6082,-2.4599,-2.3039,-2.1586,-1.8072,-1.5565,0.0,0.0,0.0,0.0,0.0,0.0,0.0,0.0,0.0,0.0,0.0,0.0,0.0,0.0,0.0,0.0,0.0,0.0,0.0,0.0,0.0,0.0,0.0,0.0,0.0,0.0,0.0,0.0,0.0,0.0,0.0,0.0,0.0,0.0,0.0,0.0,0.0,0.0,0.0,0.0,0.0,0.0,-2.7441,-2.748,0.0,0.0,0.0,-2.8418,-2.8535,0.0,0.0,0.0,0.0,0.0,0.0,0.0,0.0,0.0,0.0,0.0,0.0,0.0,0.0,0.0,0.0,0.0,0.0,0.0,0.0,0.0,0.0,0.0,0.0,0.0,0.0,0.0,0.0,0.0,0.0,0.0,0.0,0.0,0.0,0.0,0.0,0.0,0.0,0.0,0.0,0.0,0.0,0.0,0.0,0.0,0.0,0.0,0.0,0.0,0.0,0.0,0.0,0.0,0.0,0.0,0.0,0.0,-2.0683,-2.4824,-2.6551,-2.5572,-2.4378,-2.2927,-2.1101,-1.7728,0.0,0.0,0.0,0.0,0.0,0.0,0.0,0.0,0.0,0.0,0.0,0.0,0.0,0.0,0.0,0.0,0.0,0.0,0.0,0.0,0.0,0.0,0.0,0.0,0.0,0.0,0.0,-1.3437,0.0,0.0,0.0,0.0,0.0,0.0,0.0,0.0,0.0,0.0,0.0,0.0,0.0,0.0,-2.8144,-2.8555,-2.8887,-2.9414,0.0,0.0,-2.9668,-2.9453,-3.0586,-3.043,0.0,0.0,0.0,0.0,0.0,0.0,0.0,0.0,0.0,0.0,0.0,0.0,0.0,0.0,0.0,0.0,0.0,0.0,0.0,0.0,0.0,0.0,0.0,0.0,0.0,0.0,0.0,0.0,0.0,0.0,0.0,0.0,0.0,0.0,0.0,0.0,0.0,0.0,0.0,0.0,0.0,0.0,0.0,0.0,0.0,0.0,0.0,0.0,0.0,0.0,0.0,0.0,0.0,0.0,0.0,-2.0664,-2.4824,-2.6027,-2.4011,-2.3822,-2.2492,-1.9679,-1.8211,-1.6366,0.0,0.0,0.0,0.0,0.0,0.0,0.0,0.0,0.0,0.0,0.0,0.0,0.0,0.0,0.0,0.0,0.0,0.0,0.0,0.0,0.0,0.0,0.0,0.0,0.0,0.0,0.0,0.0,0.0,0.0,0.0,0.0,0.0,0.0,0.0,0.0,0.0,0.0,0.0,0.0,0.0,-2.8984,-2.9434,-3.0527,-3.1601,0.0,0.0,-3.207,-3.2422,-3.3906,-3.3476,-2.8906,0.0,0.0,0.0,0.0,0.0,0.0,0.0,0.0,0.0,0.0,0.0,0.0,0.0,0.0,0.0,0.0,0.0,0.0,0.0,0.0,0.0,0.0,0.0,0.0,0.0,0.0,0.0,0.0,0.0,0.0,0.0,0.0,0.0,0.0,0.0,0.0,0.0,0.0,0.0,0.0,0.0,0.0,0.0,0.0,0.0,0.0,0.0,0.0,0.0,0.0,0.0,0.0,0.0,-1.9277,-2.0586,-2.4824,-2.6446,-2.5226,-2.4267,-2.283,-2.0802,-1.8727,-1.6567,0.0,0.0,0.0,0.0,0.0,0.0,0.0,0.0,0.0,0.0,0.0,0.0,0.0,0.0,0.0,0.0,0.0,0.0,0.0,0.0,0.0,0.0,0.0,0.0,0.0,0.0,0.0,0.0,-1.6875,-1.7227,-1.7148,0.0,0.0,0.0,0.0,0.0,0.0,0.0,0.0,0.0,0.0,-2.9766,-3.0996,-3.1816,0.0,0.0,-3.3223,-3.2988,-3.3164,-3.3301,-3.2344,-2.9199,-2.7812,0.0,0.0,0.0,0.0,0.0,0.0,0.0,0.0,0.0,0.0,0.0,0.0,0.0,0.0,0.0,0.0,0.0,0.0,0.0,0.0,0.0,0.0,0.0,0.0,0.0,0.0,0.0,0.0,0.0,0.0,0.0,0.0,0.0,0.0,0.0,0.0,0.0,0.0,0.0,0.0,0.0,0.0,0.0,0.0,0.0,0.0,0.0,0.0,0.0,0.0,0.0,0.0,-1.9336,-2.0762,-2.4902,-2.6446,-2.5463,-2.4378,-2.2927,-2.1001,-1.9002,-1.7061,0.0,0.0,0.0,0.0,0.0,0.0,0.0,0.0,0.0,0.0,0.0,0.0,0.0,0.0,0.0,0.0,0.0,0.0,0.0,0.0,0.0,0.0,0.0,0.0,0.0,0.0,0.0,0.0,-1.7519,-1.7754,-1.7598,0.0,0.0,0.0,0.0,0.0,0.0,0.0,0.0,0.0,0.0,-3.0976,-3.2187,-3.2715,-3.3203,-3.3789,-3.3301,-3.291,-3.3027,-3.2559,-3.1504,-2.9609,0.0,0.0,0.0,0.0,0.0,0.0,0.0,0.0,0.0,0.0,0.0,0.0,0.0,0.0,0.0,0.0,0.0,0.0,0.0,0.0,0.0,0.0,0.0,0.0,0.0,0.0,0.0,0.0,0.0,0.0,-0.7961,0.0,0.0,0.0,0.0,0.0,0.0,0.0,0.0,0.0,0.0,0.0,0.0,0.0,0.0,0.0,0.0,0.0,0.0,0.0,0.0,0.0,0.0,-1.9418,-2.123,-2.5059,-2.6027,-2.4028,-2.3822,-2.2492,-1.9693,-1.9052,-1.805,-1.6246,0.0,0.0,0.0,0.0,0.0,0.0,0.0,0.0,0.0,0.0,0.0,0.0,0.0,0.0,0.0,0.0,0.0,0.0,0.0,0.0,0.0,0.0,0.0,0.0,0.0,0.0,-1.5019,-1.6387,-1.7559,0.0,0.0,0.0,0.0,0.0,0.0,0.0,0.0,0.0,0.0,-3.0566,-3.2715,-3.2754,-3.3125,-3.3418,-3.3457,-3.2422,-3.1758,-3.2187,-3.2168,-3.1719,0.0,0.0,0.0,0.0,0.0,0.0,0.0,0.0,0.0,0.0,0.0,0.0,0.0,0.0,0.0,0.0,0.0,0.0,0.0,0.0,0.0,0.0,0.0,0.0,0.0,0.0,0.0,-0.8925,-0.8657,0.0,0.0,0.0,0.0,0.0,0.0,0.0,0.0,0.0,0.0,0.0,-1.757,-1.9144,0.0,0.0,0.0,0.0,0.0,0.0,0.0,0.0,0.0,0.0,0.0,0.0,-1.9583,-2.1286,-2.5332,-2.6729,-2.5353,-2.4378,-2.2814,-2.0916,-1.9635,-1.7996,-1.6032,0.0,0.0,0.0,0.0,0.0,0.0,0.0,0.0,0.0,0.0,0.0,0.0,0.0,0.0,0.0,0.0,0.0,0.0,0.0,0.0,0.0,0.0,0.0,0.0,0.0,-1.623,0.0,0.0,0.0,0.0,0.0,0.0,0.0,0.0,0.0,0.0,0.0,-2.7109,-2.9082,-3.0605,-3.1738,-3.2305,-3.2988,-3.3613,0.0,0.0,0.0,0.0,0.0,0.0,0.0,0.0,0.0,0.0,0.0,0.0,0.0,0.0,-3.5312,-3.303,-3.381,-3.4992,-3.5313,0.0,0.0,0.0,0.0,0.0,0.0,0.0,0.0,0.0,0.0,0.0,0.0,0.0,0.0,-1.0394,0.0,-1.0026,0.0,0.0,0.0,0.0,0.0,0.0,0.0,0.0,-1.8501,-1.9787,-2.0191,-2.1757,-2.1733,0.0,-2.0298,-1.7952,0.0,0.0,0.0,0.0,0.0,0.0,0.0,0.0,-1.9995,-2.1221,-2.5489,-2.6986,-2.5353,-2.4267,-2.3151,-2.1571,-1.9849,-1.8196,-1.6647,-1.5204,-1.3881,0.0,0.0,0.0,0.0,0.0,0.0,0.0,0.0,0.0,0.0,0.0,0.0,0.0,0.0,0.0,0.0,0.0,0.0,0.0,0.0,0.0,0.0,0.0,-1.7305,0.0,0.0,0.0,0.0,0.0,0.0,0.0,0.0,0.0,-2.5723,-2.7402,-2.9199,-3.0879,-3.1738,-3.2266,-3.2363,0.0,0.0,0.0,0.0,0.0,0.0,0.0,-3.1309,-3.1894,-3.1914,-3.2588,-3.4886,-3.7092,-3.8563,-3.9061,0.0,0.0,-3.701,-3.7723,-3.9226,-4.019,-4.2086,-4.354,-4.3424,-4.4344,-4.5121,0.0,0.0,0.0,0.0,0.0,0.0,0.0,0.0,-1.2104,-1.2131,0.0,-1.1784,0.0,0.0,0.0,0.0,0.0,-1.6272,0.0,0.0,-2.4166,-2.5684,-2.4609,-2.5391,-2.5082,-2.3814,-2.3238,-2.176,-1.9589,-1.8115,0.0,0.0,0.0,0.0,0.0,0.0,-2.0794,-2.1195,-2.5438,-2.6454,-2.3917,-2.3822,-2.3039,-2.1586,-1.9863,-1.8664,-1.8076,-1.7194,-1.6206,-1.5044,-1.308,0.0,0.0,0.0,0.0,0.0,0.0,0.0,0.0,0.0,0.0,0.0,0.0,0.0,0.0,0.0,0.0,0.0,0.0,0.0,0.0,-1.7305,0.0,0.0,0.0,0.0,0.0,0.0,0.0,0.0,0.0,0.0,-2.7305,-2.9648,-3.1797,-3.2598,0.0,0.0,0.0,0.0,-3.2988,-3.1855,-3.1289,-3.1211,-3.166,-3.2363,-3.3418,-3.5078,0.0,0.0,-4.0654,-4.1461,-4.2031,-4.3353,-4.5012,-4.5711,-4.26,-4.1186,-4.1415,-4.3959,-4.4924,-4.517,-4.5966,-4.7725,-4.851,-1.4255,0.0,0.0,0.0,0.0,-1.3106,-1.3574,-1.4496,-1.4202,-1.4001,-1.3868,-1.3707,0.0,0.0,0.0,0.0,0.0,0.0,-1.8959,-2.0483,-2.3335,-2.5388,-2.6758,-2.7305,-2.7376,-2.6929,-2.6538,-2.5432,-2.3781,-2.2673,-1.9239,-1.3696,0.0,0.0,0.0,0.0,-2.2082,-2.3954,-2.6672,-2.6714,-2.3822,-2.3822,-2.2589,-2.0026,-1.951,-1.9065,-1.8677,-1.8223,-1.7435,-1.6246,-1.5044,0.0,0.0,0.0,0.0,0.0,0.0,0.0,0.0,0.0,0.0,0.0,0.0,0.0,0.0,0.0,0.0,0.0,0.0,0.0,-1.7773,-1.8516,-1.9141,0.0,0.0,0.0,0.0,0.0,0.0,0.0,0.0,0.0,-3.0625,-3.0898,-3.1269,0.0,0.0,-3.1855,-3.1484,-3.2305,-3.3164,-3.3711,-3.3691,0.0,-3.4629,-3.4414,-3.4531,-3.5664,-3.793,-3.9876,-4.1043,-4.2501,-4.3719,-4.4167,-4.4943,-4.6099,-4.8277,-4.8452,-4.8655,-4.9911,-5.1625,-5.2998,-5.3669,-5.4427,-5.4963,-1.6326,-1.4897,-1.4322,-1.4349,-1.475,-1.4589,-1.5044,-1.5899,-1.5605,-1.5511,-1.5551,-1.5324,-1.479,-1.4055,-1.3707,0.0,0.0,0.0,-1.9216,-2.0992,-2.3233,-2.5237,-2.6759,-2.7873,-2.8301,-2.8281,-2.7477,-2.6899,-2.6648,-2.4473,-2.1326,-1.7203,0.0,0.0,-1.7412,-2.0425,-2.2871,-2.4673,-2.7052,-2.6844,-2.3822,-2.3263,-2.1813,-1.9475,-1.9372,-1.9279,-1.9105,-1.8931,-1.845,-1.7609,-1.662,-1.5311,0.0,0.0,0.0,0.0,0.0,0.0,0.0,0.0,0.0,0.0,0.0,-1.625,0.0,0.0,0.0,0.0,-1.7519,-1.8809,-2.0527,-2.1074,0.0,0.0,0.0,0.0,0.0,0.0,0.0,-2.8457,-3.0527,-3.209,-3.2598,-3.2363,-3.2441,-3.3203,-3.293,-3.2676,-3.2676,0.0,-3.4297,-3.4883,-3.498,-3.5273,-3.6133,-3.6113,-3.6445,-3.7851,-3.9805,-4.166,-4.3094,-4.4422,-4.5737,-4.6763,-4.7937,-4.9686,-5.2241,-5.3447,-5.4253,-5.4595,-5.5856,-5.6972,-5.7323,-5.765,-5.7901,-1.7929,-1.7502,-1.6166,-1.5752,-1.5965,-1.5965,-1.6273,-1.674,-1.6486,-1.6673,-1.723,-1.6607,-1.6072,-1.5524,-1.4811,0.0,-1.7323,-1.8218,-1.961,-2.1587,-2.3843,-2.5126,-2.5504,-2.7321,-2.8174,-2.8067,-2.6825,-2.6952,-2.7902,-2.4561,-2.2495,-2.1824,-2.028,-1.9633,-1.9887,-2.1925,-2.3404,-2.4212,-2.6807,-2.6769,-2.3822,-2.2251,-2.0816,-1.9475,-1.9372,-1.9372,-1.9372,-1.9372,-1.9239,-1.8945,-1.7876,-1.6727,-1.5511,0.0,0.0,0.0,0.0,0.0,0.0,0.0,0.0,0.0,0.0,0.0,0.0,0.0,0.0,0.0,-2.0742,0.0,-2.3945,-2.4453,0.0,0.0,0.0,-2.7012,-2.793,-2.9844,-3.1094,-3.1094,0.0,0.0,-3.3633,-3.3984,-3.4707,-3.5996,-3.5684,-3.5351,-3.5391,-3.5703,-3.5937,-3.5625,-3.5664,-3.5996,-3.6894,-3.7598,-3.8711,-4.0527,-4.1836,-4.3022,-4.5016,-4.6093,-4.7538,-4.9293,-5.2172,-5.3849,-5.432,-5.5588,-5.7371,-5.7674,-5.7951,-5.7951,-5.8052,-5.8102,-5.8127,-1.841,-1.7903,-1.7555,-1.7328,-1.7168,-1.7168,-1.7248,-1.7368,-1.7301,-1.7355,-1.7462,-1.7328,-1.7194,-1.715,-1.7925,-1.8081,-1.7929,-2.0302,-2.1306,-2.1263,-2.2971,-2.4538,-2.5901,-2.6444,-2.6608,-2.6717,-2.7384,-2.7384,-2.659,-2.5739,-2.4881,-2.3944,-2.2498,-2.1262,-2.0348,-2.3109,-2.4553,-2.4607,-2.6408,-2.6212,-2.3805,-2.1259,-1.9707,-1.9372,-1.9372,-1.9372,-1.9372,-1.9372,-1.9332,-1.9252,-1.8571,-1.7635,-1.6433,-1.4322,0.0,0.0,0.0,0.0,0.0,0.0,0.0,0.0,0.0,-1.9375,-1.5996,0.0,-2.0547,0.0,-2.3144,-2.5234,-2.6602,-2.6836,0.0,0.0,-2.8945,-2.9414,-3.0937,-3.2129,-3.2832,-3.2832,-3.4062,-3.5039,-3.5371,-3.5488,-3.6035,-3.7246,-3.5957,-3.5,-3.5351,-3.6035,-3.6601,-3.6855,-3.7617,-3.8359,-3.8574,-3.9336,-4.0156,-4.1035,-4.1621,-4.2229,-4.3121,-4.4295,-4.5337,-4.6259,-4.7284,-4.9386,-5.2726,-5.2399,-5.3703,-5.777,-5.8805,-5.8654,-5.9031,-5.9106,-5.9106,-1.9052,-1.8624,-1.849,-1.8263,-1.7969,-1.7702,-1.7582,-1.7582,-1.7582,-1.7582,-1.7582,-1.7582,-1.7582,-1.7687,-1.8408,-1.8401,-1.7929,-1.9491,-2.0163,-2.0111,-2.218,-2.3545,-2.4139,-2.548,-2.6155,-2.6155,-2.6933,-2.6933,-2.6155,-2.6155,-2.5486,-2.4416,-2.4201,-2.3182,-2.1379,-2.3304,-2.4393,-2.4434,-2.4796,-2.4277,-2.2783,-2.0601,-1.9172,-1.8798,-1.8905,-1.8731,-1.8196,-1.8317,-1.8263,-1.7996,-1.7796,-1.7275,-1.6339,-1.5389,-1.4156,0.0,0.0,0.0,0.0,0.0,0.0,0.0,0.0,0.0,0.0,0.0,-2.291,-2.3496,-2.5918,-2.7891,-2.9004,-2.9434,-3.0195,-3.1504,-3.1758,-3.2383,-3.375,-3.4473,-3.4941,-3.5137,-3.5801,-3.6406,-3.6797,-3.6875,-3.7187,-3.8086,-3.7168,-3.6523,-3.6777,-3.7246,-3.7617,-3.7871,-3.8633,-3.9375,-3.9707,-4.0351,-4.0879,-4.1133,-4.1367,-4.1719,-4.2324,-4.3183,-4.4062,-4.4863,-4.6385,-4.8237,-5.0903,-5.226,-5.3743,-5.5503,-5.7133,-5.7974,-5.8977,-5.9332,-5.9458,-1.9693,-1.9399,-1.9145,-1.8851,-1.8504,-1.8023,-1.7702,-1.7528,-1.7488,-1.7488,-1.7528,-1.7569,-1.7582,-1.7582,-1.7582,-1.7609,-1.7649,-1.7649,-1.7969,-1.8642,-2.1217,-2.2088,-2.1684,-2.4539,-2.5789,-2.5569,-2.6062,-2.608,-2.597,-2.597,-2.5221,-2.4089,-2.53,-2.468,-2.2299,-2.3216,-2.3683,-2.3601,-2.2595,-2.1869,-2.1436,-1.9946,-1.8771,-1.8036,-1.8196,-1.7836,-1.682,-1.7021,-1.6914,-1.6433,-1.6633,-1.6567,-1.6112,-1.6159,-1.5763,0.0,-1.4487,0.0,0.0,0.0,0.0,0.0,0.0,0.0,0.0,-2.4687,-2.5644,-2.6777,-2.8809,-3.043,-3.1289,-3.2109,-3.291,-3.3672,-3.4414,-3.5195,-3.5996,-3.6445,-3.6855,-3.7324,-3.7383,-3.7539,-3.791,-3.8008,-3.8164,-3.8476,-3.8535,-3.8457,-3.8613,-3.8574,-3.8613,-3.873,-3.9101,-3.9726,-4.041,-4.0898,-4.1152,-4.1172,-4.1269,-4.1523,-4.2305,-4.2871,-4.3594,-4.4895,-4.6804,-4.8503,-4.9279,-5.2314,-5.414,-5.3792,-5.4812,-5.6232,-5.79,-5.8564,-5.9023,-1.9987,-1.972,-1.9653,-1.9332,-1.8851,-1.8971,-1.8343,-1.7221,-1.6981,-1.7007,-1.7248,-1.7475,-1.7582,-1.7582,-1.7582,-1.7716,-1.7956,-1.7956,-1.8277,-1.8851,-1.9387,-2.0344,-2.1699,-2.378,-2.4137,-2.3012,-2.5594,-2.632,-2.5158,-2.5043,-2.5042,-2.5147,-2.5237,-2.361,-2.0373,0.0,0.0,0.0,-2.0285,-1.9828,-2.0764,-1.8902,-1.7836,-1.7675,-1.7488,0.0,-1.7088,-1.7128,-1.7101,-1.6994,-1.7034,0.0,0.0,0.0,0.0,0.0,0.0,0.0,0.0,0.0,0.0,0.0,-2.5006,-2.5156,-2.4941,-2.7461,-2.9238,-2.9512,-3.1426,-3.3047,-3.3887,-3.4453,-3.498,-3.5469,-3.5684,-3.5976,-3.6484,-3.6621,-3.6953,-3.7715,-3.7812,-3.7969,-3.8359,-3.8457,-3.8476,-3.8594,-3.8867,-3.9062,-3.9101,-3.9101,-3.9238,-3.959,-3.9961,-4.043,-4.0976,-4.1113,-4.1172,-4.1211,-4.1484,-4.1855,-4.2363,-4.3066,-4.3867,-4.4844,-4.5418,-4.6595,-4.8651,-4.8417,-4.9552,-5.4094,-5.428,-5.4209,-5.6279,-5.6804,-5.7473,-2.0588,0.0,-2.0294,-1.9973,0.0,-1.9426,-1.8851,-1.8009,-1.7862,-1.7809,-1.7822,-1.7969,-1.8036,-1.8023,-1.7876,-1.7903,-1.8036,-1.7889,-1.821,-1.8918,-1.9682,-2.033,-2.0939,-2.2711,-2.3022,-2.2333,-2.4013,-2.4444,-2.3756,-2.4327,-2.44,-2.399,-2.4631,-2.3582,-2.1107,-2.2292,-2.2781,-2.2363,-2.151,-2.0823,-2.043,-1.9343,-1.8464,-1.805,-1.7889,0.0,0.0,0.0,0.0,0.0,0.0,0.0,0.0,0.0,0.0,-1.9391,-1.9618,-2.0682,-2.309,-2.3852,-2.5274,-2.7644,-2.9153,-2.9316,-2.8047,-3.0312,-3.1992,-3.2402,-3.3633,-3.4648,-3.5273,-3.5566,-3.5781,-3.5996,-3.6211,-3.6504,-3.6914,-3.7168,-3.7539,-3.8105,-3.8242,-3.834,-3.8555,-3.8769,-3.8887,-3.8906,-3.9258,-3.9609,-3.9785,-3.9668,-3.9707,-4.0137,-4.0351,-4.0684,-4.1074,-4.1172,-4.1172,-4.1211,-4.1523,-4.1953,-4.2363,-4.2969,-4.3691,-4.4492,-4.4707,-4.5331,-4.6534,-4.6993,-4.8108,-5.0916,-5.1586,-5.2072,-5.4092,-5.6405,-5.8155,-2.1109,-2.1082,-2.0855,-2.0575,-2.0281,-1.9853,-1.9506,-1.9212,0.0,0.0,0.0,-1.849,-1.849,-1.8477,-1.8237,-1.813,-1.8116,-1.7969,-1.8303,-1.8998,-2.0316,-2.0656,-2.0335,-2.1824,-2.2453,-2.2213,-2.2512,-2.2647,-2.2767,-2.3691,-2.3541,-2.2796,-2.385,-2.3921,-2.2825,-2.1463,-2.1464,-2.2847,-2.2895,-2.197,-2.0174,-1.9746,-1.9225,-1.8504,-1.8437,-1.7943,-1.6994,-1.7181,-1.7088,-1.662,-1.686,-1.7074,-1.7181,-1.8555,-1.9847,-2.0863,-2.2055,-2.3964,-2.6664,-2.7194,-2.8536,-3.1132,-3.2695,-3.291,-3.1445,-3.2832,-3.4062,-3.4766,-3.5234,-3.5644,-3.5996,-3.6016,-3.6055,-3.6133,-3.6465,-3.6855,-3.7344,-3.7695,-3.8066,-3.8476,-3.8555,-3.8574,-3.8574,-3.8926,-3.9199,-3.9258,-3.9648,-4.0156,-4.0488,-4.0351,-4.0273,-4.0586,-4.0684,-4.082,-4.1172,-4.1308,-4.1308,-4.1465,-4.1797,-4.2129,-4.25,-4.291,-4.3476,-4.4277,-4.4355,-4.4453,-4.4954,-4.6212,-4.7651,-4.794,-4.8777,-4.9913,-5.1927,-5.5788,-5.8361,-2.1109,-2.1109,-2.1069,-2.0882,-2.0628,-2.0788,-2.0695,-2.0321,-1.9105,-1.8531,-1.849,-1.849,-1.849,-1.849,-1.845,-1.8424,-1.8464,-1.8905,-1.9185,-1.9332,-2.005,-2.0227,-2.0362,-2.2161,-2.2291,-2.1122,-2.269,-2.3439,-2.3316,-2.2199,-2.2072,-2.2914,-2.3127,-2.3577,-2.4258,-2.3217,-2.2825,-2.2902,-2.0985,-1.9863,-1.9479,-1.8958,-1.8624,-1.849,-1.825,-1.8023,-1.7876,-1.7903,-1.7889,-1.7809,-1.809,-1.8464,-1.8958,-1.928,-2.027,-2.2096,-2.2676,-2.4444,-2.7812,-2.8462,-2.9952,-3.268,-3.3633,-3.3711,-3.3184,-3.4316,-3.5176,-3.5312,-3.5684,-3.5957,-3.6016,-3.6035,-3.6191,-3.6504,-3.6641,-3.6973,-3.7715,-3.7891,-3.8105,-3.8516,-3.8574,-3.8574,-3.8652,-3.8965,-3.9258,-3.9355,-3.9961,-4.0586,-4.0898,-4.1035,-4.1016,-4.1074,-4.1094,-4.1269,-4.1504,-4.1699,-4.1777,-4.2207,-4.2539,-4.2773,-4.291,-4.3281,-4.373,-4.4297,-4.4082,-4.4043,-4.4394,-4.464,-4.5936,-4.7215,-4.8189,-4.8756,-5.0102,-5.2825,-5.5597,-2.1109,-2.1109,-2.1109,-2.1029,-2.0922,-2.1056,-2.1029,-2.0842,-2.004,-1.9492,-1.9212,-1.9199,-1.9118,-1.8958,-1.8798,-1.8718,-1.8744,-1.9011,-1.9292,-1.9626,-2.004,-2.0401,-2.0708,-2.1576,-2.1645,-2.1047,-2.1783,-2.2215,-2.2215,-2.1475,-2.1407,-2.2018,-2.188,-2.2181,-2.2652,-2.2291,-2.2004,-2.1866,-2.1718,-2.1264,-2.0307,-1.9893,-1.9679,-1.9666,-1.9386,-1.9225,-1.9239,-1.9225,-1.9239,-1.9239,-1.9359,-1.9559,-1.9826,-1.9987,-2.0981,-2.2974,-2.3301,-2.5107,-2.8778,-3.0519,-3.1998,-3.3583,-3.4414,-3.4707,-3.4512,-3.5039,-3.5488,-3.5703,-3.5918,-3.6035,-3.6035,-3.623,-3.6445,-3.6641,-3.7051,-3.75,-3.7871,-3.8144,-3.8359,-3.8555,-3.8574,-3.8672,-3.8887,-3.9297,-3.9687,-3.9902,-4.0488,-4.0957,-4.1152,-4.1172,-4.1172,-4.1172,-4.1172,-4.125,-4.1445,-4.1465,-4.1641,-4.2012,-4.2441,-4.2793,-4.3027,-4.3437,-4.375,-4.3965,-4.3828,-4.3808,-4.4023,-4.4023,-4.5058,-4.6968,-4.7028,-4.7555,-4.9172,-5.1824,-5.5031,-2.1109,-2.1109,-2.1109,-2.1109,-2.1109,-2.1109,-2.1109,-2.1082,-2.0855,-2.0441,-1.9933,-1.9826,-1.9679,-1.9439,-1.9158,-1.9025,-1.9038,-1.9158,-1.9466,-1.9907,-2.0267,-2.0681,-2.1069,-2.1109,-2.1109,-2.1109,-2.1109,-2.1109,-2.1109,-2.1109,-2.1109,-2.1109,-2.1109,-2.1109,-2.1109,-2.1109,-2.1109,-2.1222,-2.2341,-2.2341,-2.1096,-2.0895,-2.0775,-2.0762,-2.0548,-2.0428,-2.0428,-2.0428,-2.0468,-2.0521,-2.0535,-2.0561,-2.0628,-2.0842,-2.1685,-2.3044,-2.3476,-2.5339,-2.9077,-3.1612,-3.3405,-3.4336,-3.5,-3.543,-3.5527,-3.5527,-3.5664,-3.5957,-3.6016,-3.6035,-3.6074,-3.6406,-3.6719,-3.6836,-3.7461,-3.793,-3.8086,-3.8379,-3.8574,-3.8574,-3.8574,-3.873,-3.916,-3.9609,-4.0059,-4.0566,-4.0957,-4.1152,-4.1172,-4.1172,-4.1172,-4.1172,-4.1172,-4.125,-4.1289,-4.1348,-4.1582,-4.1973,-4.2383,-4.2812,-4.3164,-4.3516,-4.3672,-4.373,-4.373,-4.3711,-4.3711,-4.3711,-4.4548,-4.6044,-4.5884,-4.5956,-4.7964,-5.0291,-5.3808,-2.1122,-2.1109,-2.1122,-2.1109,-2.1109,-2.1109,-2.1122,-2.1096,-2.1082,-2.0748,-2.0214,-1.992,-1.9786,-1.972,-1.9439,-1.9332,-1.9372,-1.988,-2.0134,-2.0254,-2.0775,-2.1056,-2.1109,-2.1109,-2.1109,-2.1109,-2.1109,-2.1109,-2.1109,-2.1109,-2.1109,-2.1109,-2.1109,-2.1109,-2.1109,-2.1109,-2.1109,-2.1109,-2.1235,-2.1235,-2.1109,-2.1082,-2.1069,-2.1069,-2.1042,-2.1029,-2.1015,-2.1029,-2.1162,-2.1403,-2.1416,-2.1537,-2.1764,-2.1844,-2.2002,-2.2291,-2.2563,-2.4419,-2.8444,-3.0487,-3.2749,-3.5023,-3.5332,-3.5566,-3.5898,-3.5957,-3.5957,-3.6016,-3.6035,-3.6035,-3.6055,-3.6426,-3.6836,-3.7168,-3.7656,-3.8066,-3.8418,-3.8555,-3.8574,-3.8574,-3.8594,-3.875,-3.9199,-3.9687,-4.0254,-4.0957,-4.1094,-4.1172,-4.1172,-4.1172,-4.1172,-4.1172,-4.1172,-4.1328,-4.1582,-4.1738,-4.1992,-4.2676,-4.2949,-4.3164,-4.3457,-4.3633,-4.3691,-4.3691,-4.3691,-4.3691,-4.3691,-4.3711,-4.3867,-4.4818,-4.4789,-4.4562,-4.5792,-4.7414,-5.0297,-2.163,-2.163,-2.163,-2.1523,-2.1376,-2.1376,-2.1269,-2.1109,-2.1109,-2.0962,-2.0708,-2.0254,-1.9867,-1.9559,-1.9599,-1.9626,-1.9666,-2.0227,-2.0494,-2.0535,-2.0922,-2.1109,-2.1109,-2.1109,-2.1109,-2.1109,-2.1109,-2.1109,-2.1109,-2.1109,-2.1109,-2.1109,-2.1109,-2.1109,-2.1109,-2.1109,-2.1109,-2.1109,-2.1109,-2.1109,-2.1109,-2.1109,-2.1109,-2.1122,-2.1269,-2.1363,-2.139,-2.1537,-2.1683,-2.1804,-2.1817,-2.1871,-2.1977,-2.1991,-2.2572,-2.3808,-2.637,-2.8511,-3.0293,-3.2501,-3.4184,-3.5391,-3.5625,-3.5859,-3.5996,-3.6035,-3.6035,-3.6035,-3.6035,-3.6035,-3.6074,-3.6641,-3.7109,-3.7363,-3.7891,-3.8379,-3.8555,-3.8574,-3.8574,-3.8594,-3.8809,-3.9121,-3.9609,-4.0215,-4.0742,-4.1113,-4.1172,-4.1172,-4.1172,-4.1172,-4.1172,-4.1211,-4.1367,-4.1465,-4.1504,-4.166,-4.207,-4.2558,-4.291,-4.3223,-4.3574,-4.3691,-4.3691,-4.3691,-4.3691,-4.3691,-4.3691,-4.375,-4.3887,-4.4433,-4.5385,-4.5772,-4.7622,-4.8311,-5.0334,-2.1991,-2.1991,-2.1991,-2.1871,-2.1683,-2.167,-2.155,-2.1349,-2.1269,-2.1189,-2.1056,-2.0494,-2.0013,-1.9666,-1.9746,-1.984,-1.9973,-2.0441,-2.0668,-2.0708,-2.0975,-2.1109,-2.1109,-2.1109,-2.1109,-2.1109,-2.1109,-2.1109,-2.1109,-2.1109,-2.1109,-2.1109,-2.1109,-2.1109,-2.1122,-2.1176,-2.1229,-2.1243,-2.1296,-2.1349,-2.1363,-2.1349,-2.1309,-2.1269,-2.1523,-2.167,-2.167,-2.1871,-2.2031,-2.2098,-2.2098,-2.2138,-2.2218,-2.2231,-2.3006,-2.464,-2.7995,-3.0281,-3.0874,-3.323,-3.4874,-3.5432,-3.5859,-3.6035,-3.6035,-3.6035,-3.6035,-3.6035,-3.6035,-3.6055,-3.6269,-3.6855,-3.7305,-3.748,-3.8164,-3.8574,-3.8574,-3.8574,-3.8574,-3.8613,-3.8926,-3.9434,-4.0019,-4.0664,-4.1133,-4.1152,-4.1172,-4.1172,-4.1172,-4.1172,-4.1211,-4.1328,-4.1621,-4.166,-4.1426,-4.1738,-4.2109,-4.25,-4.293,-4.3223,-4.3613,-4.3691,-4.3691,-4.3691,-4.3691,-4.3691,-4.3691,-4.375,-4.3945,-4.4746,-4.5547,-4.6615,-4.7511,-4.836,-5.0082,-2.1991,-2.2004,-2.1991,-2.2004,-2.1964,-2.1964,-2.1951,-2.1871,-2.163,-2.1376,-2.1069,-2.0508,-2.0227,-2.0201,-2.0,-1.996,-2.0227,-2.0548,-2.0708,-2.0735,-2.1002,-2.1109,-2.1109,-2.1109,-2.1122,-2.1189,-2.1189,-2.1162,-2.1136,-2.1122,-2.1109,-2.1122,-2.1136,-2.1122,-2.1189,-2.1416,-2.1537,-2.155,-2.1764,-2.1911,-2.1924,-2.1924,-2.1804,-2.1617,-2.1817,-2.1964,-2.1964,-2.1977,-2.2124,-2.2392,-2.2405,-2.2525,-2.2902,-2.3079,-2.3338,-2.3901,-2.5599,-2.7794,-3.0136,-3.2129,-3.3867,-3.5607,-3.5996,-3.6035,-3.6035,-3.6035,-3.6035,-3.6035,-3.6035,-3.6172,-3.6621,-3.7031,-3.7461,-3.7832,-3.8281,-3.8555,-3.8574,-3.8574,-3.8574,-3.8672,-3.9043,-3.9648,-4.041,-4.0879,-4.1133,-4.1172,-4.1172,-4.1172,-4.1172,-4.1172,-4.1308,-4.1582,-4.1758,-4.1797,-4.1816,-4.2129,-4.2558,-4.2851,-4.3047,-4.3242,-4.3496,-4.3691,-4.3691,-4.3691,-4.3691,-4.3691,-4.3691,-4.3828,-4.4062,-4.4707,-4.5625,-4.6576,-4.7703,-4.6655,-4.8311,-2.2552,-2.2552,-2.2552,-2.2445,-2.2271,-2.2258,-2.2164,-2.1964,-2.1683,-2.1496,-2.1309,-2.0775,-2.0722,-2.1056,-2.0775,-2.0588,-2.0561,-2.0828,-2.0949,-2.0989,-2.1256,-2.139,-2.1416,-2.1577,-2.167,-2.167,-2.167,-2.1577,-2.1403,-2.139,-2.139,-2.139,-2.139,-2.1483,-2.1657,-2.1777,-2.183,-2.1844,-2.1937,-2.1991,-2.2017,-2.2164,-2.2205,-2.2124,-2.2205,-2.2271,-2.2258,-2.2445,-2.2592,-2.2699,-2.2699,-2.327,-2.4588,-2.691,-2.8525,-2.9022,-3.092,-3.2421,-3.3391,-3.4233,-3.5141,-3.584,-3.6035,-3.6035,-3.6035,-3.6035,-3.6035,-3.6035,-3.6035,-3.6309,-3.6914,-3.7207,-3.7461,-3.7891,-3.8301,-3.8574,-3.8574,-3.8574,-3.8672,-3.9004,-3.957,-4.0293,-4.0742,-4.1074,-4.1172,-4.1172,-4.1172,-4.1172,-4.1172,-4.1172,-4.125,-4.1445,-4.1855,-4.2187,-4.2207,-4.2558,-4.293,-4.3086,-4.3262,-4.3457,-4.3672,-4.3691,-4.3691,-4.3691,-4.3691,-4.3691,-4.3711,-4.416,-4.4355,-4.4766,-4.5683,-4.6556,-4.7935,-4.7215,-4.8764,-2.2859,-2.2859,-2.2859,-2.2752,-2.2565,-2.2565,-2.2458,-2.2231,-2.1857,-2.1697,-2.159,-2.1082,-2.1096,-2.147,-2.1349,-2.1216,-2.1122,-2.1309,-2.139,-2.1416,-2.1603,-2.1697,-2.1724,-2.1897,-2.1991,-2.1977,-2.1991,-2.1884,-2.1724,-2.1697,-2.1697,-2.1697,-2.1697,-2.179,-2.1964,-2.2071,-2.2124,-2.2138,-2.2218,-2.2538,-2.2937,-2.2727,-2.2822,-2.3213,-2.2822,-2.2565,-2.2565,-2.2752,-2.3256,-2.3665,-2.3788,-2.4645,-2.661,-2.9211,-3.0944,-3.1584,-3.3262,-3.4623,-3.4757,-3.5452,-3.6016,-3.6035,-3.6035,-3.6035,-3.6035,-3.6035,-3.6035,-3.6035,-3.6191,-3.6543,-3.7109,-3.7422,-3.7676,-3.8066,-3.8398,-3.8574,-3.8574,-3.8574,-3.8848,-3.9375,-4.0019,-4.0644,-4.1074,-4.1152,-4.1172,-4.1172,-4.1172,-4.1172,-4.1172,-4.1172,-4.125,-4.1387,-4.1836,-4.2285,-4.2519,-4.2851,-4.3144,-4.332,-4.3398,-4.3613,-4.3691,-4.3691,-4.3691,-4.3691,-4.3691,-4.3691,-4.3945,-4.4394,-4.4726,-4.5,-4.5488,-4.6284,-4.7247,-4.7946,-4.9786,-2.2859,-2.2859,-2.2859,-2.2846,-2.2819,-2.2819,-2.2846,-2.2699,-2.2231,-2.1977,-2.1857,-2.1363,-2.1323,-2.1537,-2.1603,-2.1724,-2.1924,-2.1977,-2.1951,-2.1911,-2.1964,-2.1991,-2.1991,-2.2058,-2.2084,-2.2084,-2.2031,-2.2017,-2.1991,-2.1991,-2.1991,-2.1991,-2.1991,-2.2017,-2.2017,-2.2298,-2.2418,-2.2458,-2.2781,-2.3718,-2.5113,-2.3882,-2.3746,-2.4949,-2.3882,-2.3092,-2.2969,-2.2983,-2.3788,-2.5113,-2.5532,-2.661,-2.859,-2.9733,-2.9951,-3.0823,-3.2028,-3.2929,-3.3513,-3.5139,-3.6035,-3.6035,-3.6035,-3.6035,-3.6035,-3.6035,-3.6035,-3.6074,-3.6387,-3.6836,-3.7246,-3.7637,-3.8027,-3.8476,-3.8574,-3.8574,-3.8574,-3.8613,-3.8926,-3.9746,-4.0312,-4.0703,-4.1035,-4.1172,-4.1172,-4.1172,-4.1172,-4.1172,-4.1172,-4.1172,-4.1348,-4.1601,-4.1836,-4.2129,-4.2617,-4.3086,-4.334,-4.3555,-4.3594,-4.3691,-4.3691,-4.3691,-4.3691,-4.3691,-4.3691,-4.3711,-4.3769,-4.4219,-4.4551,-4.4883,-4.5391,-4.6146,-4.7319,-4.8469,-5.042,-2.2859,-2.2859,-2.2859,-2.2859,-2.2859,-2.2859,-2.2859,-2.2819,-2.2445,-2.2178,-2.1977,-2.179,-2.1764,-2.1884,-2.2058,-2.2311,-2.2579,-2.2579,-2.2378,-2.2084,-2.2191,-2.2285,-2.2325,-2.2485,-2.2592,-2.2592,-2.2592,-2.2472,-2.2311,-2.2285,-2.2285,-2.2285,-2.2285,-2.2392,-2.2565,-2.2686,-2.2726,-2.2875,-2.4003,-2.4979,-2.5383,-2.4979,-2.4979,-2.5383,-2.4993,-2.4723,-2.4723,-2.4723,-2.4979,-2.5651,-2.6925,-2.8942,-3.1108,-3.2746,-3.3699,-3.4053,-3.4539,-3.5005,-3.512,-3.5587,-3.6035,-3.6035,-3.6035,-3.6035,-3.6035,-3.6035,-3.6035,-3.6074,-3.6406,-3.6836,-3.7266,-3.7676,-3.8105,-3.8516,-3.8574,-3.8594,-3.8672,-3.9101,-3.9687,-4.0234,-4.0703,-4.1016,-4.1113,-4.1172,-4.1172,-4.1172,-4.1172,-4.1172,-4.1172,-4.1172,-4.1191,-4.1367,-4.1621,-4.1973,-4.248,-4.2969,-4.3301,-4.3535,-4.3672,-4.3691,-4.3691,-4.3691,-4.3691,-4.3691,-4.3691,-4.373,-4.3789,-4.4043,-4.4433,-4.4954,-4.5405,-4.6556,-4.78,-4.9828,-5.2028,-2.2859,-2.2859,-2.2859,-2.2859,-2.2859,-2.2859,-2.2859,-2.2792,-2.2432,-2.2151,-2.1991,-2.1857,-2.1884,-2.2031,-2.2285,-2.2579,-2.2846,-2.2859,-2.2659,-2.2365,-2.2472,-2.2579,-2.2605,-2.2766,-2.2859,-2.2859,-2.2859,-2.2766,-2.2592,-2.2579,-2.2592,-2.2579,-2.2579,-2.2659,-2.2846,-2.2859,-2.3133,-2.3924,-2.4979,-2.6172,-2.6956,-2.6172,-2.6172,-2.7105,-2.6429,-2.6087,-2.6641,-2.7407,-2.7825,-2.8077,-2.9915,-3.2088,-3.3662,-3.4835,-3.5762,-3.5957,-3.6016,-3.6016,-3.6035,-3.6016,-3.6035,-3.6035,-3.6035,-3.6035,-3.6035,-3.6035,-3.6055,-3.6289,-3.666,-3.707,-3.75,-3.793,-3.8281,-3.8535,-3.8574,-3.8652,-3.8848,-3.9453,-4.0019,-4.0449,-4.0879,-4.1113,-4.1172,-4.1172,-4.1172,-4.1172,-4.1172,-4.1172,-4.1172,-4.1172,-4.1172,-4.1269,-4.1562,-4.1953,-4.2363,-4.2812,-4.3242,-4.3476,-4.3691,-4.3691,-4.3691,-4.3691,-4.3691,-4.3691,-4.3691,-4.3691,-4.3769,-4.4121,-4.4473,-4.4993,-4.5687,-4.7406,-4.9091,-5.1586,-5.3743,-2.2859,-2.2859,-2.2859,-2.2859,-2.2859,-2.2859,-2.2859,-2.2779,-2.2338,-2.2098,-2.1991,-2.1884,-2.1844,-2.2058,-2.2365,-2.2632,-2.2819,-2.2859,-2.2846,-2.2792,-2.2819,-2.2819,-2.2819,-2.2846,-2.2859,-2.2859,-2.2859,-2.2859,-2.2806,-2.2819,-2.2859,-2.2819,-2.3079,-2.2983,-2.2996,-2.2996,-2.3788,-2.4723,-2.5517,-2.7354,-2.9847,-2.7751,-2.7387,-3.0325,-2.8227,-2.7462,-2.9027,-3.081,-3.1817,-3.1884,-3.3671,-3.4892,-3.5354,-3.5801,-3.5996,-3.6035,-3.6035,-3.6035,-3.6035,-3.6035,-3.6035,-3.6035,-3.6035,-3.6035,-3.6035,-3.6113,-3.6269,-3.6582,-3.7051,-3.748,-3.7871,-3.8262,-3.8535,-3.8613,-3.8691,-3.8828,-3.9199,-3.9687,-4.0156,-4.0547,-4.0918,-4.1172,-4.1172,-4.1172,-4.1172,-4.1172,-4.1172,-4.1172,-4.1172,-4.1172,-4.1172,-4.1328,-4.1543,-4.1953,-4.2363,-4.2793,-4.3223,-4.3535,-4.3691,-4.3691,-4.3691,-4.3691,-4.3691,-4.3691,-4.3691,-4.3691,-4.3867,-4.4219,-4.457,-4.4902,-4.6296,-4.8396,-5.0644,-5.307,-5.5228,-2.2859,-2.2859,-2.2859,-2.2859,-2.2859,-2.2859,-2.2859,-2.2846,-2.2699,-2.2458,-2.2352,-2.2458,-2.2365,-2.2338,-2.2592,-2.2792,-2.2846,-2.2859,-2.2859,-2.2859,-2.2859,-2.2859,-2.2859,-2.2859,-2.2859,-2.2859,-2.2859,-2.2859,-2.2859,-2.2859,-2.2859,-2.2996,-2.406,-2.406,-2.327,-2.4196,-2.4196,-2.4196,-2.6321,-2.7768,-2.8821,-2.9474,-3.0005,-3.0829,-3.0408,-3.0351,-3.1283,-3.3326,-3.449,-3.4394,-3.4968,-3.5547,-3.5801,-3.5957,-3.6035,-3.6035,-3.6035,-3.6035,-3.6035,-3.6035,-3.6035,-3.6035,-3.6035,-3.6035,-3.6035,-3.6328,-3.6523,-3.6797,-3.7305,-3.7793,-3.7969,-3.832,-3.8672,-3.8984,-3.9023,-3.9219,-3.9668,-4.0098,-4.0527,-4.0937,-4.1094,-4.1152,-4.1172,-4.1172,-4.1172,-4.1172,-4.1172,-4.1172,-4.1172,-4.1172,-4.1172,-4.1308,-4.1543,-4.1953,-4.2363,-4.2793,-4.3203,-4.3555,-4.3691,-4.3691,-4.3691,-4.3691,-4.3691,-4.3691,-4.3691,-4.3691,-4.4023,-4.4375,-4.4687,-4.5189,-4.7392,-4.9658,-5.1839,-5.4073,-5.6279,-2.2859,-2.2859,-2.2859,-2.2859,-2.2859,-2.2859,-2.2859,-2.2832,-2.2726,-2.2592,-2.2458,-2.2458,-2.2472,-2.2445,-2.2592,-2.2752,-2.2846,-2.2859,-2.2859,-2.2859,-2.2859,-2.2859,-2.2859,-2.2859,-2.2859,-2.2859,-2.2859,-2.2859,-2.2859,-2.2859,-2.2859,-2.327,-2.4588,-2.4858,-2.4196,-2.4844,-2.5905,-2.6306,-2.7768,-2.8689,-3.0401,-3.0822,-3.1541,-3.2114,-3.2221,-3.2356,-3.3704,-3.497,-3.5586,-3.5469,-3.5566,-3.5762,-3.5976,-3.6035,-3.6035,-3.6035,-3.6035,-3.6035,-3.6035,-3.6035,-3.6035,-3.6035,-3.6035,-3.6133,-3.6289,-3.6562,-3.6738,-3.7246,-3.7676,-3.7969,-3.8203,-3.8437,-3.8769,-3.9121,-3.9375,-3.9668,-4.0117,-4.0351,-4.0703,-4.1016,-4.1172,-4.1172,-4.1172,-4.1172,-4.1172,-4.1172,-4.1172,-4.1172,-4.1172,-4.1191,-4.1289,-4.1484,-4.1777,-4.2246,-4.2656,-4.3066,-4.3301,-4.3633,-4.3691,-4.3691,-4.3691,-4.3691,-4.3691,-4.3691,-4.3691,-4.3828,-4.4219,-4.4739,-4.5748,-4.6744,-4.8924,-5.1157,-5.3401,-5.5221,-5.7594,-2.2859,-2.2859,-2.2859,-2.2859,-2.2859,-2.2859,-2.2859,-2.2806,-2.2632,-2.2512,-2.2458,-2.2205,-2.2352,-2.2458,-2.2565,-2.2632,-2.2859,-2.2859,-2.2859,-2.2859,-2.2859,-2.2859,-2.2859,-2.2859,-2.2859,-2.2859,-2.2859,-2.3133,-2.327,-2.3133,-2.327,-2.406,-2.5383,-2.5816,-2.6011,-2.6264,-2.7833,-2.927,-2.9189,-3.0276,-3.2042,-3.2246,-3.273,-3.3762,-3.365,-3.4082,-3.5239,-3.5976,-3.584,-3.5488,-3.582,-3.5976,-3.6035,-3.6035,-3.6035,-3.6035,-3.6035,-3.6035,-3.6035,-3.6035,-3.6035,-3.6035,-3.6074,-3.625,-3.6582,-3.6797,-3.7187,-3.7734,-3.7949,-3.8203,-3.8437,-3.8574,-3.8848,-3.9258,-3.9668,-4.0059,-4.0469,-4.0586,-4.0742,-4.1094,-4.1172,-4.1191,-4.123,-4.125,-4.1269,-4.1641,-4.1582,-4.1601,-4.1601,-4.1621,-4.1719,-4.1855,-4.2207,-4.2598,-4.3008,-4.3379,-4.3516,-4.3691,-4.3691,-4.3691,-4.3691,-4.3691,-4.3691,-4.373,-4.3848,-4.4101,-4.4473,-4.5312,-4.6494,-4.8525,-5.0725,-5.3234,-5.5664,-5.7073,-5.9173,-2.2859,-2.2859,-2.2859,-2.2859,-2.2859,-2.2859,-2.2859,-2.2859,-2.2792,-2.2739,-2.2739,-2.2686,-2.2686,-2.2752,-2.2739,-2.2806,-2.2859,-2.2859,-2.2859,-2.2859,-2.2859,-2.2859,-2.2859,-2.2859,-2.2859,-2.2859,-2.2859,-2.3665,-2.4317,-2.3802,-2.4331,-2.6737,-2.7035,-2.7781,-2.8142,-2.9127,-2.9813,-3.0018,-3.0606,-3.1522,-3.2467,-3.3538,-3.4181,-3.5059,-3.5143,-3.5433,-3.584,-3.6035,-3.5976,-3.5937,-3.5957,-3.6035,-3.6035,-3.6035,-3.6035,-3.6035,-3.6035,-3.6035,-3.6035,-3.6035,-3.6035,-3.6094,-3.6328,-3.6582,-3.668,-3.7285,-3.7656,-3.7988,-3.8223,-3.8437,-3.8555,-3.8574,-3.8965,-3.9512,-3.9844,-4.0215,-4.082,-4.1016,-4.1055,-4.1133,-4.1191,-4.1289,-4.1601,-4.1621,-4.1738,-4.2031,-4.2129,-4.2148,-4.209,-4.2031,-4.2148,-4.2246,-4.2519,-4.2891,-4.3164,-4.3476,-4.3613,-4.3691,-4.3691,-4.3691,-4.3691,-4.3691,-4.3691,-4.3848,-4.4062,-4.4523,-4.5173,-4.6791,-4.8337,-5.0515,-5.2645,-5.4673,-5.6852,-5.8525,-5.9508,-2.2859,-2.2859,-2.2859,-2.2859,-2.2859,-2.2859,-2.2859,-2.2859,-2.2859,-2.2859,-2.2859,-2.2859,-2.2859,-2.2859,-2.2859,-2.2859,-2.2859,-2.2859,-2.2859,-2.2859,-2.2859,-2.2859,-2.2859,-2.2859,-2.2859,-2.2873,-2.2859,-2.3924,-2.4588,-2.4224,-2.481,-2.8145,-2.8561,-2.9177,-3.0252,-3.1256,-3.1745,-3.1889,-3.198,-3.2399,-3.335,-3.4393,-3.5234,-3.5605,-3.5898,-3.6035,-3.6035,-3.6035,-3.6035,-3.6035,-3.6035,-3.6035,-3.6035,-3.6035,-3.6035,-3.6035,-3.6035,-3.6035,-3.6035,-3.6035,-3.6113,-3.6309,-3.6562,-3.6894,-3.7168,-3.7715,-3.8008,-3.8223,-3.8418,-3.8574,-3.8594,-3.8809,-3.9219,-3.9726,-4.0078,-4.0469,-4.0996,-4.1172,-4.1172,-4.1172,-4.1172,-4.1406,-4.1621,-4.1816,-4.2051,-4.2266,-4.2324,-4.2344,-4.2305,-4.2285,-4.25,-4.2656,-4.2871,-4.3125,-4.3359,-4.3555,-4.3652,-4.3691,-4.3691,-4.3691,-4.3691,-4.3691,-4.3691,-4.3887,-4.4248,-4.5477,-4.6487,-4.8129,-5.0407,-5.3003,-5.502,-5.6375,-5.7534,-5.8993,-5.9508,-2.2859,-2.2859,-2.2859,-2.2859,-2.2859,-2.2859,-2.2859,-2.2859,-2.2859,-2.2859,-2.2859,-2.2859,-2.2859,-2.2859,-2.2859,-2.2859,-2.2859,-2.2859,-2.2859,-2.2859,-2.2859,-2.2859,-2.2873,-2.2926,-2.2979,-2.2939,-2.2966,-2.4036,-2.5231,-2.4732,-2.6284,-2.9144,-2.9446,-3.074,-3.2132,-3.2643,-3.3252,-3.4184,-3.3554,-3.3535,-3.4622,-3.5332,-3.5664,-3.5898,-3.5996,-3.6035,-3.6035,-3.6035,-3.6035,-3.6035,-3.6035,-3.6035,-3.6035,-3.6035,-3.6035,-3.6035,-3.6035,-3.6094,-3.6191,-3.6191,-3.6328,-3.6719,-3.6875,-3.7187,-3.7715,-3.7988,-3.8223,-3.8437,-3.8633,-3.873,-3.8711,-3.9062,-3.9492,-3.9941,-4.0332,-4.0703,-4.1055,-4.1172,-4.1172,-4.1172,-4.1211,-4.1387,-4.1738,-4.2012,-4.2246,-4.248,-4.2539,-4.2598,-4.2578,-4.2637,-4.2891,-4.3047,-4.3242,-4.332,-4.3516,-4.3574,-4.3691,-4.3691,-4.3691,-4.3691,-4.3691,-4.3691,-4.373,-4.4013,-4.4766,-4.6183,-4.8128,-5.027,-5.2659,-5.5433,-5.6876,-5.7849,-5.8656,-5.9328,-5.9508,-2.2859,-2.2859,-2.2859,-2.2859,-2.2859,-2.2859,-2.2859,-2.2859,-2.2859,-2.2859,-2.2859,-2.2859,-2.2859,-2.2859,-2.2859,-2.2859,-2.2859,-2.2859,-2.2859,-2.2859,-2.2873,-2.2873,-2.2953,-2.31,-2.322,-2.326,-2.3539,-2.5172,-2.7087,-2.7137,-2.8581,-3.2235,-3.2005,-3.2509,-3.405,-3.4873,-3.4874,-3.5451,-3.5104,-3.524,-3.5568,-3.5781,-3.5879,-3.6035,-3.6035,-3.6035,-3.6035,-3.6035,-3.6035,-3.6035,-3.6035,-3.6035,-3.6035,-3.6035,-3.6035,-3.6035,-3.6035,-3.6133,-3.6426,-3.6543,-3.6777,-3.7148,-3.7441,-3.7656,-3.7969,-3.8242,-3.8418,-3.8594,-3.8867,-3.9082,-3.9121,-3.9492,-3.9922,-4.0293,-4.0508,-4.0723,-4.1055,-4.1172,-4.1211,-4.125,-4.1289,-4.1426,-4.1875,-4.2285,-4.2578,-4.2891,-4.3125,-4.3183,-4.3203,-4.3262,-4.3418,-4.3535,-4.3613,-4.3633,-4.3672,-4.3672,-4.3691,-4.3691,-4.3691,-4.3691,-4.3691,-4.3691,-4.3935,-4.4753,-4.6044,-4.765,-4.9782,-5.2064,-5.4211,-5.6486,-5.7824,-5.8993,-5.9173,-5.9508,-5.9508,-2.2859,-2.2859,-2.2859,-2.2859,-2.2859,-2.2859,-2.2859,-2.2859,-2.2859,-2.2859,-2.2859,-2.2859,-2.2859,-2.2859,-2.2859,-2.2859,-2.2859,-2.2859,-2.2859,-2.2859,-2.2873,-2.2966,-2.3086,-2.3273,-2.342,-2.3836,-2.4778,-2.6399,-2.8734,-2.8438,-3.0718,-3.3498,-3.3267,-3.3606,-3.5201,-3.5588,-3.582,-3.6016,-3.6035,-3.6035,-3.6035,-3.6035,-3.6035,-3.6035,-3.6035,-3.6035,-3.6035,-3.6035,-3.6035,-3.6035,-3.6035,-3.6035,-3.6035,-3.6035,-3.6035,-3.6035,-3.6035,-3.6211,-3.6582,-3.6699,-3.6953,-3.7539,-3.7832,-3.8047,-3.8223,-3.8457,-3.8574,-3.8672,-3.8945,-3.9199,-3.9199,-3.9824,-4.0254,-4.0488,-4.0703,-4.0937,-4.1094,-4.1152,-4.1289,-4.1406,-4.1367,-4.1601,-4.2168,-4.2558,-4.2891,-4.3262,-4.3633,-4.3691,-4.3691,-4.3691,-4.3691,-4.3691,-4.3691,-4.3691,-4.3691,-4.3691,-4.3691,-4.3691,-4.4021,-4.4021,-4.41,-4.4304,-4.5062,-4.6025,-4.7564,-4.9252,-5.1779,-5.4344,-5.6017,-5.7461,-5.8476,-5.9328,-5.9328,-5.9508,-5.9508,-2.2859,-2.2859,-2.2859,-2.2859,-2.2859,-2.2859,-2.2859,-2.2859,-2.2859,-2.2859,-2.2859,-2.2859,-2.2859,-2.2859,-2.2859,-2.2859,-2.2859,-2.2859,-2.2899,-2.2993,-2.2993,-2.3126,-2.3354,-2.3909,-2.42,-2.429,-2.7458,-2.8567,-2.928,-3.0035,-3.2295,-3.4296,-3.3966,-3.4097,-3.5646,-3.5957,-3.6016,-3.6035,-3.6035,-3.6035,-3.6035,-3.6035,-3.6035,-3.6035,-3.6035,-3.6035,-3.6035,-3.6035,-3.6035,-3.6035,-3.6035,-3.6035,-3.6035,-3.6035,-3.6035,-3.6035,-3.6094,-3.6367,-3.6699,-3.6973,-3.7363,-3.7988,-3.8047,-3.8262,-3.8418,-3.8555,-3.8613,-3.873,-3.9101,-3.9453,-3.9668,-4.0195,-4.0586,-4.0723,-4.0957,-4.1172,-4.1191,-4.1289,-4.1504,-4.1543,-4.1465,-4.1855,-4.25,-4.2715,-4.3047,-4.334,-4.3691,-4.3691,-4.3691,-4.3691,-4.3691,-4.3691,-4.3691,-4.3691,-4.3691,-4.3691,-4.3691,-4.3691,-4.433,-4.4802,-4.4982,-4.5143,-4.6414,-4.8209,-4.965,-5.149,-5.4059,-5.6059,-5.7287,-5.8179,-5.9048,-5.9483,-5.9483,-5.9508,-5.9508,-2.2859,-2.2859,-2.2859,-2.2859,-2.2859,-2.2859,-2.2859,-2.2859,-2.2859,-2.2859,-2.2859,-2.2859,-2.2859,-2.2859,-2.2859,-2.2859,-2.2873,-2.2913,-2.3033,-2.3193,-2.326,-2.3434,-2.3998,-2.5783,-2.527,-2.5569,-2.9639,-3.1009,-3.096,-3.1808,-3.3679,-3.5316,-3.5588,-3.5685,-3.586,-3.6035,-3.6035,-3.6035,-3.6035,-3.6035,-3.6035,-3.6035,-3.6035,-3.6035,-3.6035,-3.6035,-3.6035,-3.6035,-3.6035,-3.6035,-3.6035,-3.6035,-3.6035,-3.6035,-3.6035,-3.6133,-3.6367,-3.6777,-3.7148,-3.7441,-3.7812,-3.8281,-3.8437,-3.8516,-3.8574,-3.8652,-3.8769,-3.9121,-3.9531,-3.9902,-4.0215,-4.0742,-4.1016,-4.1055,-4.1094,-4.1191,-4.123,-4.1465,-4.168,-4.2031,-4.2051,-4.2422,-4.2949,-4.3047,-4.3164,-4.3476,-4.3691,-4.3691,-4.3691,-4.3691,-4.3691,-4.3691,-4.3691,-4.3691,-4.3691,-4.3691,-4.4186,-4.4021,-4.4802,-4.5779,-4.643,-4.7124,-4.9307,-5.0925,-5.2194,-5.3278,-5.5291,-5.6895,-5.8067,-5.8827,-5.9332,-5.9458,-5.9508,-5.9508,-5.9508,-2.318,-2.2859,-2.2859,-2.2859,-2.2859,-2.2859,-2.2859,-2.2859,-2.2859,-2.2859,-2.2859,-2.2859,-2.2859,-2.2859,-2.2859,-2.2859,-2.2899,-2.3033,-2.318,-2.338,-2.3514,-2.3741,-2.4385,-2.5941,-2.6343,-2.7425,-3.0368,-3.2506,-3.2574,-3.3596,-3.5314,-3.5743,-3.6035,-3.586,-3.6035,-3.6035,-3.6035,-3.6035,-3.6035,-3.6035,-3.6035,-3.6035,-3.6035,-3.6035,-3.6035,-3.6035,-3.6035,-3.6035,-3.6035,-3.6035,-3.6035,-3.6035,-3.6035,-3.6055,-3.6094,-3.6445,-3.6797,-3.709,-3.7305,-3.7695,-3.8125,-3.8437,-3.8574,-3.8574,-3.8613,-3.8789,-3.8965,-3.918,-3.9863,-4.0293,-4.0547,-4.0918,-4.1094,-4.1172,-4.1211,-4.1367,-4.1465,-4.1641,-4.1894,-4.2285,-4.2676,-4.2988,-4.3203,-4.3203,-4.3281,-4.3535,-4.3691,-4.3691,-4.3691,-4.3691,-4.3691,-4.3691,-4.3691,-4.3691,-4.3691,-4.3691,-4.5128,-4.5454,-4.592,-4.6909,-4.8157,-4.9553,-5.1605,-5.301,-5.3896,-5.5135,-5.6545,-5.7512,-5.8449,-5.8902,-5.9357,-5.9433,-5.9508,-5.9508,-5.9508,-2.3567,-2.3086,-2.3006,-2.2979,-2.2966,-2.2899,-2.2859,-2.2859,-2.2859,-2.2859,-2.2859,-2.2859,-2.2859,-2.2859,-2.2873,-2.2913,-2.3006,-2.3233,-2.342,-2.3581,-2.3781,-2.4035,-2.5077,-2.6445,-2.7809,-2.765,-3.2018,-3.343,-3.3725,-3.4746,-3.5879,-3.6035,-3.6035,-3.6035,-3.6035,-3.6035,-3.6035,-3.6035,-3.6035,-3.6035,-3.6035,-3.6035,-3.6035,-3.6035,-3.6035,-3.6035,-3.6035,-3.6035,-3.6035,-3.6035,-3.6035,-3.6035,-3.6035,-3.6035,-3.623,-3.6582,-3.6992,-3.7324,-3.7559,-3.7891,-3.8223,-3.8457,-3.8574,-3.8574,-3.8633,-3.8945,-3.9316,-3.9414,-4.0039,-4.0469,-4.0723,-4.1016,-4.1113,-4.123,-4.1289,-4.1523,-4.1777,-4.2051,-4.2305,-4.2656,-4.3008,-4.3301,-4.3437,-4.334,-4.3418,-4.3633,-4.3691,-4.3691,-4.3691,-4.3691,-4.3856,-4.3856,-4.4638,-4.4802,-4.4965,-4.5128,-4.6082,-4.7027,-4.7645,-4.8302,-4.9516,-5.1308,-5.3576,-5.467,-5.5434,-5.6731,-5.7987,-5.8474,-5.883,-5.9006,-5.9182,-5.9408,-5.9508,-5.9508,-5.9508,-2.3995,-2.3688,-2.3407,-2.3287,-2.326,-2.2979,-2.2873,-2.2859,-2.2859,-2.2873,-2.2913,-2.2886,-2.2913,-2.2886,-2.2939,-2.3046,-2.3273,-2.3313,-2.3647,-2.3968,-2.4182,-2.4329,-2.5458,-2.7386,-2.9266,-2.89,-3.2735,-3.4314,-3.402,-3.5158,-3.5879,-3.6035,-3.6035,-3.6035,-3.6035,-3.6035,-3.6035,-3.6035,-3.6035,-3.6035,-3.6035,-3.6035,-3.6035,-3.6035,-3.6035,-3.6035,-3.6035,-3.6035,-3.6035,-3.6035,-3.6035,-3.6035,-3.6035,-3.6113,-3.6348,-3.6758,-3.7168,-3.7539,-3.7871,-3.8184,-3.8457,-3.8574,-3.8574,-3.8613,-3.8711,-3.9004,-3.9375,-3.9824,-4.0351,-4.0703,-4.0957,-4.1152,-4.1172,-4.125,-4.1406,-4.1699,-4.207,-4.2578,-4.2832,-4.3086,-4.332,-4.3535,-4.3613,-4.3516,-4.3496,-4.3672,-4.3691,-4.3691,-4.3691,-4.3691,-4.4021,-4.433,-4.5758,-4.6384,-4.6867,-4.7486,-4.828,-4.9361,-5.0297,-5.0452,-5.0807,-5.2881,-5.5315,-5.58,-5.6545,-5.8012,-5.9053,-5.9106,-5.9006,-5.893,-5.9056,-5.9357,-5.9508,-5.9508,-5.9508,-2.4409,-2.4262,-2.3808,-2.35,-2.3313,-2.3193,-2.3046,-2.2886,-2.2859,-2.2979,-2.3153,-2.3153,-2.3153,-2.3153,-2.3153,-2.3207,-2.338,-2.3741,-2.3981,-2.4195,-2.4369,-2.4516,-2.5904,-2.8038,-2.9884,-3.0326,-3.3725,-3.5879,-3.5295,-3.5743,-3.5879,-3.6035,-3.6035,-3.6035,-3.6035,-3.6035,-3.6035,-3.6035,-3.6035,-3.6035,-3.6035,-3.6035,-3.6035,-3.6035,-3.6035,-3.6035,-3.6035,-3.6035,-3.6035,-3.6035,-3.6035,-3.6035,-3.6094,-3.625,-3.6582,-3.6992,-3.7402,-3.7832,-3.8203,-3.8476,-3.8574,-3.8574,-3.8594,-3.8691,-3.8945,-3.9375,-3.9805,-4.0254,-4.0644,-4.0996,-4.1094,-4.1172,-4.1191,-4.1289,-4.1523,-4.1875,-4.2285,-4.2793,-4.3183,-4.3359,-4.3496,-4.3652,-4.3691,-4.3672,-4.3672,-4.3691,-4.3691,-4.3691,-4.4021,-4.433,-4.4658,-4.5758,-4.7166,-4.8187,-4.882,-4.9719,-5.063,-5.1731,-5.2845,-5.2821,-5.2892,-5.4509,-5.6476,-5.6996,-5.7364,-5.8524,-5.9156,-5.9232,-5.9232,-5.9182,-5.9257,-5.9433,-5.9508,-5.9508,-5.9508,-2.4583,-2.4462,-2.4062,-2.3728,-2.346,-2.326,-2.306,-2.2913,-2.2979,-2.3166,-2.3447,-2.346,-2.346,-2.346,-2.346,-2.3541,-2.3701,-2.3981,-2.4616,-2.4807,-2.4956,-2.5332,-2.691,-2.8757,-3.0593,-3.1738,-3.402,-3.5879,-3.5879,-3.6016,-3.6035,-3.6035,-3.6035,-3.6035,-3.6035,-3.6035,-3.6035,-3.6035,-3.6035,-3.6035,-3.6035,-3.6035,-3.6035,-3.6035,-3.6035,-3.6035,-3.6035,-3.6035,-3.6035,-3.6035,-3.6035,-3.6035,-3.6172,-3.6426,-3.6855,-3.7266,-3.7695,-3.8125,-3.8437,-3.8574,-3.8652,-3.8789,-3.8809,-3.9023,-3.9375,-3.9824,-4.0215,-4.0449,-4.0879,-4.1172,-4.1172,-4.1172,-4.1172,-4.125,-4.1816,-4.2187,-4.25,-4.293,-4.3301,-4.3613,-4.3691,-4.3691,-4.3691,-4.3691,-4.3856,-4.3856,-4.3711,-4.4186,-4.5291,-4.5596,-4.6061,-4.7326,-4.889,-4.9942,-5.0967,-5.2293,-5.3457,-5.396,-5.4863,-5.499,-5.5386,-5.6698,-5.7248,-5.7474,-5.8024,-5.888,-5.9182,-5.9332,-5.9408,-5.9458,-5.9508,-5.9508,-5.9508,-5.9508,-5.9508,-2.4476,-2.4222,-2.4182,-2.3995,-2.3647,-2.3126,-2.2899,-2.2966,-2.3233,-2.35,-2.3754,-2.3768,-2.3768,-2.3768,-2.3754,-2.3861,-2.4179,-2.4471,-2.5347,-2.6402,-2.6168,-2.7201,-2.8757,-3.0451,-3.1456,-3.317,-3.5021,-3.6035,-3.6035,-3.6035,-3.6035,-3.6035,-3.6035,-3.6035,-3.6035,-3.6035,-3.6035,-3.6035,-3.6035,-3.6035,-3.6035,-3.6035,-3.6035,-3.6035,-3.6035,-3.6035,-3.6035,-3.6035,-3.6035,-3.6035,-3.6035,-3.6035,-3.6074,-3.6504,-3.6914,-3.7285,-3.7734,-3.8144,-3.8516,-3.8574,-3.8789,-3.9043,-3.9043,-3.9316,-3.9805,-4.0215,-4.0508,-4.0684,-4.0957,-4.1152,-4.1172,-4.1172,-4.1172,-4.1445,-4.1992,-4.2441,-4.2734,-4.3105,-4.3496,-4.3672,-4.3691,-4.3691,-4.3691,-4.3856,-4.4021,-4.4021,-4.3876,-4.4658,-4.6082,-4.7187,-4.7804,-4.9047,-5.0762,-5.1777,-5.3186,-5.5233,-5.6501,-5.6675,-5.6675,-5.655,-5.65,-5.6899,-5.7449,-5.7876,-5.8353,-5.888,-5.9207,-5.9483,-5.9508,-5.9508,-5.9508,-5.9508,-5.9508,-5.9508,-5.9508,-2.4462,-2.4182,-2.3995,-2.3741,-2.346,-2.326,-2.3166,-2.326,-2.3661,-2.3968,-2.4035,-2.4062,-2.4062,-2.4048,-2.4206,-2.4273,-2.4499,-2.6025,-2.7171,-2.7475,-2.7765,-2.89,-3.0451,-3.1738,-3.2595,-3.3448,-3.5021,-3.6035,-3.6035,-3.6035,-3.6035,-3.6035,-3.6035,-3.6035,-3.6035,-3.6035,-3.6035,-3.6035,-3.6035,-3.6035,-3.6035,-3.6035,-3.6035,-3.6035,-3.6035,-3.6035,-3.6035,-3.6035,-3.6035,-3.6035,-3.6035,-3.6035,-3.6172,-3.6601,-3.7109,-3.7441,-3.7871,-3.8379,-3.8633,-3.8789,-3.9023,-3.918,-3.9316,-3.9609,-4.0195,-4.041,-4.0644,-4.0879,-4.1035,-4.1172,-4.1172,-4.1172,-4.1269,-4.1641,-4.2129,-4.2558,-4.291,-4.334,-4.3691,-4.3691,-4.3691,-4.4965,-4.5434,-4.5434,-4.5596,-4.6384,-4.6545,-4.6223,-4.7166,-4.8597,-4.9674,-5.1071,-5.2494,-5.3798,-5.5213,-5.6352,-5.6949,-5.7024,-5.7224,-5.7425,-5.7524,-5.7449,-5.7801,-5.8303,-5.8579,-5.8855,-5.9207,-5.9508,-5.9508,-5.9508,-5.9508,-5.9508,-5.9508,-5.9508,-5.9508,-2.4315,-2.4022,-2.3741,-2.3514,-2.334,-2.3327,-2.342,-2.3661,-2.4048,-2.4249,-2.4329,-2.4356,-2.4356,-2.4488,-2.5056,-2.5347,-2.5651,-2.7515,-2.9202,-2.9345,-2.9741,-3.1158,-3.2298,-3.2874,-3.3448,-3.4296,-3.5158,-3.6035,-3.6035,-3.6035,-3.6035,-3.6035,-3.6035,-3.6035,-3.6035,-3.6035,-3.6035,-3.6035,-3.6035,-3.6035,-3.6035,-3.6035,-3.6035,-3.6035,-3.6035,-3.6035,-3.6035,-3.6035,-3.6035,-3.6035,-3.6035,-3.6035,-3.6269,-3.6738,-3.7246,-3.7519,-3.8047,-3.8476,-3.8652,-3.8965,-3.9199,-3.9473,-3.9551,-4.0,-4.0566,-4.0762,-4.0898,-4.1074,-4.1152,-4.1172,-4.1172,-4.1191,-4.1954,-4.2349,-4.3399,-4.382,-4.4442,-4.4866,-4.4965,-4.4802,-4.5596,-4.6545,-4.7486,-4.7326,-4.7326,-4.8417,-4.9361,-4.9047,-4.8733,-5.0142,-5.1708,-5.2949,-5.4074,-5.4966,-5.5782,-5.6525,-5.7097,-5.7298,-5.7625,-5.7976,-5.8001,-5.7901,-5.8303,-5.8679,-5.893,-5.9156,-5.9332,-5.9508,-5.9508,-5.9508,-5.9508,-5.9508,-5.9508,-5.9508,-5.9508,-2.4336,-2.3897,-2.3614,-2.3507,-2.348,-2.3674,-2.3971,-2.4313,-2.4354,-2.4661,-2.4904,-2.5171,-2.5437,-2.5465,-2.6765,-2.746,-2.7863,-2.9599,-3.1034,-3.2036,-3.1738,-3.3309,-3.402,-3.4314,-3.459,-3.5451,-3.6035,-3.6035,-3.6035,-3.6035,-3.6035,-3.6035,-3.6035,-3.6035,-3.6035,-3.6035,-3.6035,-3.6035,-3.6035,-3.6035,-3.6035,-3.6035,-3.6035,-3.6035,-3.6035,-3.6035,-3.6035,-3.6035,-3.6035,-3.6035,-3.6035,-3.6035,-3.6309,-3.6855,-3.7148,-3.7578,-3.8223,-3.8457,-3.8652,-3.8984,-3.984,-4.0345,-4.067,-4.0837,-4.1112,-4.1345,-4.1539,-4.1268,-4.1172,-4.1172,-4.1172,-4.205,-4.2953,-4.414,-4.5514,-4.6143,-4.6711,-4.6849,-4.6943,-4.7166,-4.828,-4.9069,-4.9674,-4.9674,-4.9204,-5.0916,-5.1861,-5.199,-5.1838,-5.2319,-5.3726,-5.4819,-5.5682,-5.6151,-5.6646,-5.6821,-5.7248,-5.7524,-5.7851,-5.8177,-5.8202,-5.8403,-5.873,-5.9031,-5.9257,-5.9433,-5.9483,-5.9508,-5.9508,-5.9508,-5.9508,-5.9508,-5.9508,-5.9508,-5.9508,-2.8412,-2.7959,-2.6602,-2.5877,-2.5717,-2.5921,-2.5982,-2.6156,-2.6532,-2.7286,-2.8613,-2.8613,-2.8326,-2.8757,-2.9329,-2.9472,-3.0168,-3.1316,-3.2316,-3.3013,-3.3725,-3.4883,-3.5451,-3.5451,-3.5587,-3.5743,-3.6035,-3.6035,-3.6035,-3.6035,-3.6035,-3.6035,-3.6035,-3.6035,-3.6035,-3.6035,-3.6035,-3.6035,-3.6035,-3.6035,-3.6035,-3.6035,-3.6035,-3.6035,-3.6035,-3.6035,-3.6035,-3.6035,-3.6035,-3.6035,-3.6035,-3.6113,-3.6543,-3.7031,-3.7441,-3.8164,-3.8476,-3.8594,-3.8691,-3.9258,-4.0306,-4.1718,-4.2699,-4.2088,-4.2022,-4.235,-4.2637,-4.235,-4.2062,-4.2196,-4.2799,-4.3526,-4.4607,-4.6108,-4.7508,-4.8565,-4.9118,-4.9452,-4.9361,-4.9674,-5.0607,-5.0916,-5.1555,-5.1247,-5.1071,-5.2949,-5.4025,-5.4324,-5.4497,-5.4646,-5.4967,-5.5901,-5.6244,-5.6369,-5.652,-5.6671,-5.7248,-5.775,-5.8027,-5.8428,-5.8855,-5.9056,-5.9207,-5.9307,-5.9408,-5.9458,-5.9483,-5.9508,-5.9508,-5.9508,-5.9508,-5.9508,-5.9508,-5.9508,-5.9508,-3.012,-2.9765,-2.8503,-2.7974,-2.8005,-2.8146,-2.8711,-2.9183,-2.8821,-2.9329,-3.0168,-3.0168,-3.031,-3.031,-3.1017,-3.1439,-3.1597,-3.3309,-3.4452,-3.4727,-3.5451,-3.5743,-3.6035,-3.6035,-3.5879,-3.6035,-3.6035,-3.6035,-3.6035,-3.6035,-3.6035,-3.6035,-3.6035,-3.6035,-3.6035,-3.6035,-3.6035,-3.6035,-3.6035,-3.6035,-3.6035,-3.6035,-3.6035,-3.6035,-3.6035,-3.6035,-3.6035,-3.6035,-3.6035,-3.6035,-3.6035,-3.623,-3.6699,-3.7207,-3.7773,-3.8418,-3.8555,-3.8574,-3.8857,-4.0372,-4.158,-4.3089,-4.4988,-4.5274,-4.4677,-4.4699,-4.4548,-4.4247,-4.3966,-4.3725,-4.439,-4.51,-4.6551,-4.8009,-4.935,-5.088,-5.1523,-5.212,-5.2319,-5.2319,-5.2622,-5.2798,-5.2798,-5.2471,-5.2798,-5.4348,-5.5263,-5.5263,-5.5435,-5.5582,-5.5729,-5.6047,-5.6219,-5.6269,-5.6394,-5.6595,-5.7123,-5.7625,-5.7951,-5.8428,-5.9182,-5.9483,-5.9408,-5.9408,-5.9483,-5.9508,-5.9508,-5.9508,-5.9508,-5.9508,-5.9508,-5.9508,-5.9508,-5.9508,-5.9508,-3.0338,-3.0459,-2.9864,-2.9981,-3.011,-3.0443,-3.1563,-3.3152,-3.158,-3.0876,-3.1017,-3.0876,-3.1158,-3.1878,-3.2735,-3.3309,-3.3725,-3.4865,-3.5451,-3.5879,-3.5879,-3.6035,-3.6035,-3.6035,-3.6035,-3.6035,-3.6035,-3.6035,-3.6035,-3.6035,-3.6035,-3.6035,-3.6035,-3.6035,-3.6035,-3.6035,-3.6035,-3.6035,-3.6035,-3.6035,-3.6035,-3.6035,-3.6035,-3.6035,-3.6035,-3.6035,-3.6035,-3.6035,-3.6035,-3.6035,-3.6074,-3.625,-3.7253,-3.8085,-3.8556,-3.9369,-3.9818,-3.9962,-4.0473,-4.1939,-4.3022,-4.4858,-4.7167,-4.8056,-4.7927,-4.7029,-4.6735,-4.5849,-4.5425,-4.5425,-4.5897,-4.7365,-4.8929,-5.0238,-5.1671,-5.2767,-5.348,-5.4025,-5.4348,-5.4348,-5.4025,-5.4348,-5.4646,-5.4348,-5.4199,-5.5754,-5.6047,-5.6047,-5.6047,-5.6219,-5.6219,-5.6219,-5.6219,-5.6219,-5.6319,-5.657,-5.6997,-5.7449,-5.7876,-5.8478,-5.9282,-5.9483,-5.9508,-5.9508,-5.9508,-5.9508,-5.9508,-5.9508,-5.9508,-5.9508,-5.9508,-5.9508,-5.9508,-5.9508,-5.9508,-3.4124,-3.4007,-3.2791,-3.2382,-3.2471,-3.242,-3.3586,-3.5314,-3.4883,-3.4452,-3.459,-3.459,-3.4433,-3.4314,-3.4727,-3.5021,-3.5451,-3.5587,-3.5879,-3.6016,-3.6035,-3.6035,-3.6035,-3.6035,-3.6035,-3.6035,-3.6035,-3.6035,-3.6035,-3.6035,-3.6035,-3.6035,-3.6035,-3.6035,-3.6035,-3.6035,-3.6035,-3.6035,-3.6035,-3.6035,-3.6035,-3.6035,-3.6035,-3.6035,-3.6035,-3.6035,-3.6035,-3.6035,-3.6035,-3.6035,-3.6035,-3.7208,-3.9131,-3.9997,-4.1299,-4.243,-4.2312,-4.2171,-4.2689,-4.3796,-4.5132,-4.6836,-4.8779,-5.0287,-5.0551,-4.9819,-4.8794,-4.7759,-4.7175,-4.7321,-4.784,-4.9577,-5.1137,-5.2449,-5.3815,-5.4476,-5.5263,-5.5729,-5.6219,-5.5901,-5.5582,-5.5754,-5.6047,-5.6219,-5.6219,-5.6219,-5.6219,-5.6219,-5.6047,-5.6219,-5.6219,-5.6219,-5.6219,-5.6244,-5.6294,-5.6595,-5.7072,-5.765,-5.8152,-5.8755,-5.9382,-5.9458,-5.9508,-5.9508,-5.9508,-5.9508,-5.9508,-5.9508,-5.9508,-5.9508,-5.9508,-5.9508,-5.9508,-5.9508,-5.9508,-3.5391,-3.5315,-3.4713,-3.4452,-3.4452,-3.4452,-3.5021,-3.5879,-3.6035,-3.6035,-3.6035,-3.6035,-3.6035,-3.6035,-3.6035,-3.6035,-3.6035,-3.6035,-3.6035,-3.6035,-3.6035,-3.6035,-3.6035,-3.6035,-3.6035,-3.6035,-3.6035,-3.6035,-3.6035,-3.6035,-3.6035,-3.6035,-3.6035,-3.6035,-3.6035,-3.6035,-3.6035,-3.6035,-3.6035,-3.6035,-3.6035,-3.6035,-3.6035,-3.6035,-3.6035,-3.6035,-3.6035,-3.6035,-3.6035,-3.6601,-3.7188,-3.8514,-4.0255,-4.1625,-4.2922,-4.3542,-4.3818,-4.4116,-4.4616,-4.5737,-4.7075,-4.8606,-5.0239,-5.1442,-5.2025,-5.1303,-5.1303,-5.041,-5.0269,-5.0434,-5.0698,-5.2063,-5.2717,-5.3759,-5.4741,-5.5629,-5.5901,-5.6047,-5.6219,-5.6047,-5.5901,-5.5901,-5.6219,-5.6219,-5.6219,-5.6219,-5.6219,-5.6219,-5.6219,-5.6219,-5.6219,-5.6219,-5.6219,-5.6219,-5.6244,-5.6646,-5.7198,-5.7775,-5.8378,-5.888,-5.9357,-5.9433,-5.9508,-5.9508,-5.9508,-5.9508,-5.9508,-5.9508,-5.9508,-5.9508,-5.9508,-5.9508,-5.9508,-5.9508,-5.9508,-3.5273,-3.5449,-3.5781,-3.5976,-3.6035,-3.6016,-3.6016,-3.6035,-3.6035,-3.6035,-3.6035,-3.6035,-3.6035,-3.6035,-3.6035,-3.6035,-3.6035,-3.6035,-3.6035,-3.6035,-3.6035,-3.6035,-3.6035,-3.6035,-3.6035,-3.6035,-3.6035,-3.6035,-3.6035,-3.6035,-3.6035,-3.6035,-3.6035,-3.6035,-3.6035,-3.6035,-3.6035,-3.6035,-3.6035,-3.6035,-3.6035,-3.6035,-3.6035,-3.6035,-3.6035,-3.6035,-3.6035,-3.6035,-3.6035,-3.6972,-3.833,-4.0392,-4.2,-4.3621,-4.4528,-4.5344,-4.575,-4.5615,-4.5731,-4.7234,-4.8188,-4.9373,-5.1049,-5.2141,-5.2729,-5.2792,-5.2654,-5.2654,-5.2629,-5.2729,-5.3003,-5.3453,-5.4094,-5.4595,-5.5516,-5.6194,-5.6219,-5.6219,-5.6219,-5.6219,-5.6219,-5.6219,-5.6219,-5.6219,-5.6219,-5.6219,-5.6219,-5.6219,-5.6219,-5.6219,-5.6219,-5.6219,-5.6219,-5.6219,-5.6219,-5.6846,-5.7449,-5.7901,-5.8478,-5.8956,-5.9332,-5.9433,-5.9508,-5.9508,-5.9508,-5.9508,-5.9508,-5.9508,-5.9508,-5.9508,-5.9508,-5.9508,-5.9508,-5.9508,-5.9508,-3.4746,-3.541,-3.5488,-3.5703,-3.5976,-3.6016,-3.6035,-3.6035,-3.6035,-3.6035,-3.6035,-3.6035,-3.6035,-3.6035,-3.6035,-3.6035,-3.6035,-3.6035,-3.6035,-3.6035,-3.6035,-3.6035,-3.6035,-3.6035,-3.6035,-3.6035,-3.6035,-3.6035,-3.6035,-3.6035,-3.6035,-3.6035,-3.6035,-3.6035,-3.6035,-3.6035,-3.6035,-3.6035,-3.6035,-3.6035,-3.6035,-3.6035,-3.6035,-3.6035,-3.6035,-3.6035,-3.6035,-3.6035,-3.6035,-3.6796,-3.8801,-4.1878,-4.3916,-4.5582,-4.6618,-4.7401,-4.7665,-4.7797,-4.8255,-4.8812,-4.9544,-5.0344,-5.1749,-5.2251,-5.2653,-5.2929,-5.2792,-5.2792,-5.2792,-5.2792,-5.3092,-5.3768,-5.4461,-5.4913,-5.5541,-5.5993,-5.6219,-5.6219,-5.6219,-5.6219,-5.6219,-5.6219,-5.6219,-5.6219,-5.6219,-5.6219,-5.6219,-5.6219,-5.6219,-5.6219,-5.6219,-5.6219,-5.6219,-5.6219,-5.6244,-5.7148,-5.7801,-5.8177,-5.8579,-5.9106,-5.9408,-5.9458,-5.9508,-5.9508,-5.9508,-5.9508,-5.9508,-5.9508,-5.9508,-5.9508,-5.9508,-5.9508,-5.9508,-5.9508,-5.9508]}]]